Wetterdaten: Samstag, 28.10.2017
Datum Zeit Temp. A. Pool Temp. Feuchte A. Luftdruck Regen Wind Richtung Richtung Sonnenschein ET UV Solar Taupunkt Windchill Windben Empfang
28.10.2017 00:00 8,3 C 10,0 C 89 % 1025,1 hPa 0,0 l/m 19,9 km/h (4 Bft) W-SW 256 0 min 0,000 mm 0,0 UV-I 0 W/m 6,6 C 1,1 C 33,8 km/h (5 Bft) 100,00 %
28.10.2017 00:02 8,3 C 10,0 C 89 % 1024,9 hPa 0,0 l/m 19,6 km/h (3 Bft) W-SW 250 0 min 0,000 mm 0,0 UV-I 0 W/m 6,6 C 1,2 C 30,6 km/h (5 Bft) 9,52 %
28.10.2017 00:04 8,2 C 10,0 C 89 % 1025,0 hPa 0,0 l/m 19,4 km/h (3 Bft) W-SW 257 0 min 0,000 mm 0,0 UV-I 0 W/m 6,5 C 1,2 C 33,8 km/h (5 Bft) 95,65 %
28.10.2017 00:06 8,2 C 10,0 C 89 % 1024,9 hPa 0,0 l/m 20,5 km/h (4 Bft) S-SW 213 0 min 0,000 mm 0,0 UV-I 0 W/m 6,5 C 0,8 C 27,4 km/h (4 Bft) 100,00 %
28.10.2017 00:08 8,2 C 10,0 C 89 % 1024,9 hPa 0,0 l/m 22,2 km/h (4 Bft) W 261 0 min 0,000 mm 0,0 UV-I 0 W/m 6,5 C 0,2 C 29,0 km/h (5 Bft) 100,00 %
28.10.2017 00:10 8,1 C 10,0 C 89 % 1024,8 hPa 0,0 l/m 22,3 km/h (4 Bft) W-SW 253 0 min 0,000 mm 0,0 UV-I 0 W/m 6,4 C 0,1 C 33,8 km/h (5 Bft) 100,00 %
28.10.2017 00:12 8,1 C 10,0 C 89 % 1024,8 hPa 0,0 l/m 21,9 km/h (4 Bft) W 263 0 min 0,000 mm 0,0 UV-I 0 W/m 6,4 C 0,2 C 30,6 km/h (5 Bft) 97,14 %
28.10.2017 00:14 8,1 C 10,0 C 89 % 1024,9 hPa 0,0 l/m 22,8 km/h (4 Bft) W-SW 252 0 min 0,000 mm 0,0 UV-I 0 W/m 6,4 C -0,1 C 30,6 km/h (5 Bft) 100,00 %
28.10.2017 00:16 8,1 C 10,0 C 89 % 1024,9 hPa 0,0 l/m 21,5 km/h (4 Bft) W-NW 288 0 min 0,000 mm 0,0 UV-I 0 W/m 6,4 C 0,3 C 32,2 km/h (5 Bft) 100,00 %
28.10.2017 00:18 8,1 C 10,0 C 89 % 1024,9 hPa 0,0 l/m 18,8 km/h (3 Bft) SW 229 0 min 0,000 mm 0,0 UV-I 0 W/m 6,4 C 1,3 C 27,4 km/h (4 Bft) 100,00 %
28.10.2017 00:20 8,1 C 10,0 C 89 % 1024,8 hPa 0,0 l/m 18,6 km/h (3 Bft) W-SW 254 0 min 0,000 mm 0,0 UV-I 0 W/m 6,4 C 1,3 C 27,4 km/h (4 Bft) 100,00 %
28.10.2017 00:22 8,1 C 10,0 C 88 % 1024,9 hPa 0,0 l/m 20,6 km/h (4 Bft) W 261 0 min 0,000 mm 0,0 UV-I 0 W/m 6,2 C 0,6 C 27,4 km/h (4 Bft) 100,00 %
28.10.2017 00:24 8,1 C 10,0 C 88 % 1024,8 hPa 0,0 l/m 19,0 km/h (3 Bft) SW 233 0 min 0,000 mm 0,0 UV-I 0 W/m 6,2 C 1,2 C 25,7 km/h (4 Bft) 100,00 %
28.10.2017 00:26 8,1 C 10,0 C 88 % 1024,9 hPa 0,0 l/m 19,6 km/h (3 Bft) W 266 0 min 0,000 mm 0,0 UV-I 0 W/m 6,2 C 1,0 C 33,8 km/h (5 Bft) 100,00 %
28.10.2017 00:28 8,1 C 10,0 C 88 % 1024,9 hPa 0,0 l/m 21,9 km/h (4 Bft) W-SW 238 0 min 0,000 mm 0,0 UV-I 0 W/m 6,2 C 0,2 C 27,4 km/h (4 Bft) 97,87 %
28.10.2017 00:30 8,1 C 10,0 C 88 % 1024,9 hPa 0,0 l/m 25,7 km/h (4 Bft) W 262 0 min 0,000 mm 0,0 UV-I 0 W/m 6,2 C -0,9 C 41,8 km/h (6 Bft) 100,00 %
28.10.2017 00:32 8,1 C 10,0 C 88 % 1024,9 hPa 0,0 l/m 18,3 km/h (3 Bft) W 269 0 min 0,000 mm 0,0 UV-I 0 W/m 6,2 C 1,5 C 30,6 km/h (5 Bft) 100,00 %
28.10.2017 00:34 8,1 C 10,0 C 88 % 1025,0 hPa 0,0 l/m 19,0 km/h (3 Bft) W 263 0 min 0,000 mm 0,0 UV-I 0 W/m 6,2 C 1,2 C 30,6 km/h (5 Bft) 100,00 %
28.10.2017 00:36 8,1 C 10,0 C 88 % 1025,0 hPa 0,0 l/m 23,0 km/h (4 Bft) W-SW 240 0 min 0,000 mm 0,0 UV-I 0 W/m 6,2 C -0,2 C 33,8 km/h (5 Bft) 100,00 %
28.10.2017 00:38 8,1 C 10,0 C 88 % 1025,1 hPa 0,0 l/m 20,2 km/h (4 Bft) W-SW 241 0 min 0,000 mm 0,0 UV-I 0 W/m 6,2 C 0,8 C 30,6 km/h (5 Bft) 100,00 %
28.10.2017 00:40 8,1 C 10,0 C 88 % 1025,1 hPa 0,0 l/m 21,7 km/h (4 Bft) W-SW 250 0 min 0,000 mm 0,0 UV-I 0 W/m 6,2 C 0,3 C 40,2 km/h (6 Bft) 98,08 %
28.10.2017 00:42 8,2 C 10,0 C 88 % 1025,1 hPa 0,0 l/m 23,0 km/h (4 Bft) W-SW 240 0 min 0,000 mm 0,0 UV-I 0 W/m 6,3 C -0,0 C 33,8 km/h (5 Bft) 100,00 %
28.10.2017 00:44 8,2 C 10,0 C 88 % 1025,1 hPa 0,0 l/m 20,6 km/h (4 Bft) W-SW 244 0 min 0,000 mm 0,0 UV-I 0 W/m 6,3 C 0,8 C 30,6 km/h (5 Bft) 100,00 %
28.10.2017 00:46 8,2 C 10,0 C 88 % 1025,0 hPa 0,0 l/m 18,4 km/h (3 Bft) W-SW 255 0 min 0,000 mm 0,0 UV-I 0 W/m 6,3 C 1,5 C 25,7 km/h (4 Bft) 100,00 %
28.10.2017 00:48 8,2 C 10,0 C 88 % 1024,9 hPa 0,0 l/m 19,3 km/h (3 Bft) W 259 0 min 0,000 mm 0,0 UV-I 0 W/m 6,3 C 1,2 C 38,6 km/h (5 Bft) 97,37 %
28.10.2017 00:50 8,2 C 10,0 C 88 % 1025,1 hPa 0,0 l/m 21,1 km/h (4 Bft) W-SW 245 0 min 0,000 mm 0,0 UV-I 0 W/m 6,3 C 0,6 C 40,2 km/h (6 Bft) 100,00 %
28.10.2017 00:52 8,2 C 10,0 C 88 % 1025,1 hPa 0,0 l/m 22,5 km/h (4 Bft) W-SW 254 0 min 0,000 mm 0,0 UV-I 0 W/m 6,3 C 0,1 C 32,2 km/h (5 Bft) 100,00 %
28.10.2017 00:54 8,2 C 10,0 C 88 % 1025,1 hPa 0,0 l/m 21,5 km/h (4 Bft) W 278 0 min 0,000 mm 0,0 UV-I 0 W/m 6,3 C 0,5 C 30,6 km/h (5 Bft) 100,00 %
28.10.2017 00:56 8,3 C 10,0 C 88 % 1025,2 hPa 0,0 l/m 19,4 km/h (3 Bft) S-SW 211 0 min 0,000 mm 0,0 UV-I 0 W/m 6,4 C 1,3 C 30,6 km/h (5 Bft) 100,00 %
28.10.2017 00:58 8,3 C 10,0 C 87 % 1025,2 hPa 0,0 l/m 19,9 km/h (4 Bft) W-SW 250 0 min 0,000 mm 0,0 UV-I 0 W/m 6,3 C 1,1 C 27,4 km/h (4 Bft) 97,56 %
28.10.2017 01:00 8,3 C 10,0 C 87 % 1025,2 hPa 0,0 l/m 18,5 km/h (3 Bft) SW 219 0 min 0,025 mm 0,0 UV-I 0 W/m 6,3 C 1,6 C 27,4 km/h (4 Bft) 98,21 %
28.10.2017 01:02 8,3 C 10,0 C 87 % 1025,2 hPa 0,0 l/m 17,4 km/h (3 Bft) W 280 0 min 0,000 mm 0,0 UV-I 0 W/m 6,3 C 2,1 C 25,7 km/h (4 Bft) 100,00 %
28.10.2017 01:04 8,3 C 10,0 C 87 % 1025,2 hPa 0,0 l/m 20,0 km/h (4 Bft) W-SW 256 0 min 0,000 mm 0,0 UV-I 0 W/m 6,3 C 1,1 C 33,8 km/h (5 Bft) 100,00 %
28.10.2017 01:06 8,3 C 10,0 C 87 % 1025,2 hPa 0,0 l/m 16,5 km/h (3 Bft) W 271 0 min 0,000 mm 0,0 UV-I 0 W/m 6,3 C 2,4 C 22,5 km/h (4 Bft) 100,00 %
28.10.2017 01:08 8,3 C 10,0 C 87 % 1025,1 hPa 0,0 l/m 18,4 km/h (3 Bft) W 259 0 min 0,000 mm 0,0 UV-I 0 W/m 6,3 C 1,7 C 29,0 km/h (5 Bft) 100,00 %
28.10.2017 01:10 8,3 C 10,0 C 87 % 1025,1 hPa 0,0 l/m 19,3 km/h (3 Bft) W-SW 258 0 min 0,000 mm 0,0 UV-I 0 W/m 6,3 C 1,3 C 29,0 km/h (5 Bft) 100,00 %
28.10.2017 01:12 8,3 C 10,0 C 87 % 1025,0 hPa 0,0 l/m 19,9 km/h (4 Bft) W-SW 250 0 min 0,000 mm 0,0 UV-I 0 W/m 6,3 C 1,1 C 29,0 km/h (5 Bft) 96,23 %
28.10.2017 01:14 8,3 C 10,0 C 87 % 1025,0 hPa 0,0 l/m 23,5 km/h (4 Bft) W 261 0 min 0,000 mm 0,0 UV-I 0 W/m 6,3 C -0,0 C 33,8 km/h (5 Bft) 98,00 %
28.10.2017 01:16 8,4 C 10,0 C 87 % 1025,0 hPa 0,0 l/m 17,0 km/h (3 Bft) W-SW 252 0 min 0,000 mm 0,0 UV-I 0 W/m 6,4 C 2,3 C 25,7 km/h (4 Bft) 97,44 %
28.10.2017 01:18 8,4 C 10,0 C 87 % 1025,0 hPa 0,0 l/m 18,1 km/h (3 Bft) W 259 0 min 0,000 mm 0,0 UV-I 0 W/m 6,4 C 1,9 C 24,1 km/h (4 Bft) 98,08 %
28.10.2017 01:20 8,4 C 10,0 C 86 % 1024,9 hPa 0,0 l/m 17,1 km/h (3 Bft) W-SW 248 0 min 0,000 mm 0,0 UV-I 0 W/m 6,2 C 2,3 C 25,7 km/h (4 Bft) 97,62 %
28.10.2017 01:22 8,4 C 10,0 C 86 % 1024,9 hPa 0,0 l/m 17,0 km/h (3 Bft) W 270 0 min 0,000 mm 0,0 UV-I 0 W/m 6,2 C 2,3 C 20,9 km/h (4 Bft) 98,11 %
28.10.2017 01:24 8,4 C 10,0 C 87 % 1024,8 hPa 0,0 l/m 16,6 km/h (3 Bft) W-SW 252 0 min 0,000 mm 0,0 UV-I 0 W/m 6,4 C 2,5 C 24,1 km/h (4 Bft) 94,74 %
28.10.2017 01:26 8,3 C 10,0 C 86 % 1024,7 hPa 0,0 l/m 19,7 km/h (3 Bft) W 265 0 min 0,000 mm 0,0 UV-I 0 W/m 6,1 C 1,2 C 27,4 km/h (4 Bft) 96,00 %
28.10.2017 01:28 8,4 C 10,0 C 86 % 1024,8 hPa 0,0 l/m 18,7 km/h (3 Bft) W 260 0 min 0,000 mm 0,0 UV-I 0 W/m 6,2 C 1,7 C 25,7 km/h (4 Bft) 96,23 %
28.10.2017 01:30 8,4 C 10,0 C 86 % 1024,8 hPa 0,0 l/m 19,2 km/h (3 Bft) W-SW 252 0 min 0,000 mm 0,0 UV-I 0 W/m 6,2 C 1,5 C 29,0 km/h (5 Bft) 93,10 %
28.10.2017 01:32 8,4 C 10,0 C 86 % 1024,8 hPa 0,0 l/m 14,7 km/h (3 Bft) W 265 0 min 0,000 mm 0,0 UV-I 0 W/m 6,2 C 3,3 C 25,7 km/h (4 Bft) 96,23 %
28.10.2017 01:34 8,4 C 10,0 C 86 % 1024,8 hPa 0,0 l/m 16,3 km/h (3 Bft) W 265 0 min 0,000 mm 0,0 UV-I 0 W/m 6,2 C 2,6 C 27,4 km/h (4 Bft) 98,21 %
28.10.2017 01:36 8,3 C 10,0 C 86 % 1024,7 hPa 0,0 l/m 16,4 km/h (3 Bft) W-SW 245 0 min 0,000 mm 0,0 UV-I 0 W/m 6,1 C 2,5 C 24,1 km/h (4 Bft) 98,00 %
28.10.2017 01:38 8,3 C 10,0 C 86 % 1024,7 hPa 0,0 l/m 16,0 km/h (3 Bft) W 273 0 min 0,000 mm 0,0 UV-I 0 W/m 6,1 C 2,6 C 24,1 km/h (4 Bft) 97,87 %
28.10.2017 01:40 8,3 C 10,0 C 86 % 1024,6 hPa 0,0 l/m 11,3 km/h (2 Bft) W-SW 239 0 min 0,000 mm 0,0 UV-I 0 W/m 6,1 C 4,9 C 19,3 km/h (3 Bft) 95,74 %
28.10.2017 01:42 8,4 C 10,0 C 86 % 1024,6 hPa 0,0 l/m 13,6 km/h (3 Bft) W-SW 254 0 min 0,000 mm 0,0 UV-I 0 W/m 6,2 C 3,9 C 20,9 km/h (4 Bft) 95,74 %
28.10.2017 01:44 8,3 C 10,0 C 86 % 1024,7 hPa 0,0 l/m 14,4 km/h (3 Bft) W-SW 242 0 min 0,000 mm 0,0 UV-I 0 W/m 6,1 C 3,4 C 19,3 km/h (3 Bft) 95,12 %
28.10.2017 01:46 8,3 C 10,0 C 86 % 1024,7 hPa 0,0 l/m 14,6 km/h (3 Bft) SW 228 0 min 0,000 mm 0,0 UV-I 0 W/m 6,1 C 3,3 C 20,9 km/h (4 Bft) 92,68 %
28.10.2017 01:48 8,3 C 10,0 C 86 % 1024,7 hPa 0,0 l/m 15,9 km/h (3 Bft) W-SW 250 0 min 0,000 mm 0,0 UV-I 0 W/m 6,1 C 2,7 C 22,5 km/h (4 Bft) 96,23 %
28.10.2017 01:50 8,3 C 10,0 C 86 % 1024,6 hPa 0,0 l/m 14,7 km/h (3 Bft) W-NW 284 0 min 0,000 mm 0,0 UV-I 0 W/m 6,1 C 3,2 C 20,9 km/h (4 Bft) 97,56 %
28.10.2017 01:52 8,3 C 10,0 C 86 % 1024,4 hPa 0,0 l/m 13,2 km/h (3 Bft) W-SW 250 0 min 0,000 mm 0,0 UV-I 0 W/m 6,1 C 3,9 C 24,1 km/h (4 Bft) 98,11 %
28.10.2017 01:54 8,3 C 10,0 C 86 % 1024,4 hPa 0,0 l/m 15,3 km/h (3 Bft) W-SW 254 0 min 0,000 mm 0,0 UV-I 0 W/m 6,1 C 2,9 C 20,9 km/h (4 Bft) 96,00 %
28.10.2017 01:56 8,3 C 10,0 C 86 % 1024,5 hPa 0,0 l/m 15,8 km/h (3 Bft) W-SW 257 0 min 0,000 mm 0,0 UV-I 0 W/m 6,1 C 2,7 C 22,5 km/h (4 Bft) 97,87 %
28.10.2017 01:58 8,3 C 10,0 C 86 % 1024,6 hPa 0,0 l/m 11,8 km/h (2 Bft) W 264 0 min 0,000 mm 0,0 UV-I 0 W/m 6,1 C 4,7 C 19,3 km/h (3 Bft) 94,87 %
28.10.2017 02:00 8,3 C 10,0 C 86 % 1024,5 hPa 0,0 l/m 14,1 km/h (3 Bft) W-SW 238 0 min 0,026 mm 0,0 UV-I 0 W/m 6,1 C 3,5 C 19,3 km/h (3 Bft) 94,74 %
28.10.2017 02:02 8,3 C 10,0 C 86 % 1024,5 hPa 0,0 l/m 13,1 km/h (3 Bft) W 264 0 min 0,000 mm 0,0 UV-I 0 W/m 6,1 C 4,0 C 20,9 km/h (4 Bft) 96,23 %
28.10.2017 02:04 8,3 C 10,0 C 87 % 1024,6 hPa 0,0 l/m 12,7 km/h (3 Bft) W-SW 247 0 min 0,000 mm 0,0 UV-I 0 W/m 6,3 C 4,2 C 20,9 km/h (4 Bft) 96,43 %
28.10.2017 02:06 8,2 C 10,0 C 86 % 1024,5 hPa 0,0 l/m 13,5 km/h (3 Bft) W-SW 255 0 min 0,000 mm 0,0 UV-I 0 W/m 6,0 C 3,7 C 20,9 km/h (4 Bft) 100,00 %
28.10.2017 02:08 8,2 C 10,0 C 87 % 1024,4 hPa 0,0 l/m 15,1 km/h (3 Bft) W 265 0 min 0,000 mm 0,0 UV-I 0 W/m 6,2 C 2,9 C 20,9 km/h (4 Bft) 96,43 %
28.10.2017 02:10 8,2 C 10,0 C 86 % 1024,4 hPa 0,0 l/m 12,6 km/h (3 Bft) W-SW 246 0 min 0,000 mm 0,0 UV-I 0 W/m 6,0 C 4,1 C 17,7 km/h (3 Bft) 98,00 %
28.10.2017 02:12 8,2 C 10,0 C 86 % 1024,3 hPa 0,0 l/m 15,4 km/h (3 Bft) W 259 0 min 0,000 mm 0,0 UV-I 0 W/m 6,0 C 2,8 C 22,5 km/h (4 Bft) 97,73 %
28.10.2017 02:14 8,2 C 10,0 C 86 % 1024,3 hPa 0,0 l/m 12,6 km/h (3 Bft) W-SW 255 0 min 0,000 mm 0,0 UV-I 0 W/m 6,0 C 4,1 C 17,7 km/h (3 Bft) 95,12 %
28.10.2017 02:16 8,2 C 10,0 C 87 % 1024,4 hPa 0,0 l/m 15,5 km/h (3 Bft) W 273 0 min 0,000 mm 0,0 UV-I 0 W/m 6,2 C 2,7 C 22,5 km/h (4 Bft) 93,18 %
28.10.2017 02:18 8,2 C 10,0 C 87 % 1024,4 hPa 0,0 l/m 14,4 km/h (3 Bft) SW 236 0 min 0,000 mm 0,0 UV-I 0 W/m 6,2 C 3,2 C 19,3 km/h (3 Bft) 98,11 %
28.10.2017 02:20 8,2 C 10,0 C 87 % 1024,4 hPa 0,0 l/m 16,3 km/h (3 Bft) W 264 0 min 0,000 mm 0,0 UV-I 0 W/m 6,2 C 2,4 C 24,1 km/h (4 Bft) 95,12 %
28.10.2017 02:22 8,2 C 10,0 C 87 % 1024,4 hPa 0,0 l/m 15,2 km/h (3 Bft) W 261 0 min 0,000 mm 0,0 UV-I 0 W/m 6,2 C 2,9 C 22,5 km/h (4 Bft) 98,21 %
28.10.2017 02:24 8,2 C 10,0 C 87 % 1024,4 hPa 0,0 l/m 15,0 km/h (3 Bft) W 265 0 min 0,000 mm 0,0 UV-I 0 W/m 6,2 C 3,0 C 17,7 km/h (3 Bft) 97,37 %
28.10.2017 02:26 8,2 C 10,0 C 87 % 1024,4 hPa 0,0 l/m 16,2 km/h (3 Bft) W-SW 240 0 min 0,000 mm 0,0 UV-I 0 W/m 6,2 C 2,4 C 29,0 km/h (5 Bft) 94,34 %
28.10.2017 02:28 8,2 C 10,0 C 87 % 1024,4 hPa 0,0 l/m 16,8 km/h (3 Bft) W-SW 254 0 min 0,000 mm 0,0 UV-I 0 W/m 6,2 C 2,2 C 24,1 km/h (4 Bft) 97,73 %
28.10.2017 02:30 8,2 C 10,0 C 86 % 1024,4 hPa 0,0 l/m 15,4 km/h (3 Bft) W-SW 258 0 min 0,000 mm 0,0 UV-I 0 W/m 6,0 C 2,8 C 22,5 km/h (4 Bft) 97,56 %
28.10.2017 02:32 8,2 C 10,0 C 87 % 1024,5 hPa 0,0 l/m 16,5 km/h (3 Bft) W-SW 258 0 min 0,000 mm 0,0 UV-I 0 W/m 6,2 C 2,3 C 27,4 km/h (4 Bft) 94,64 %
28.10.2017 02:34 8,2 C 10,0 C 86 % 1024,4 hPa 0,0 l/m 13,0 km/h (3 Bft) W-SW 248 0 min 0,000 mm 0,0 UV-I 0 W/m 6,0 C 3,9 C 22,5 km/h (4 Bft) 97,44 %
28.10.2017 02:36 8,2 C 10,0 C 86 % 1024,5 hPa 0,0 l/m 15,4 km/h (3 Bft) W 269 0 min 0,000 mm 0,0 UV-I 0 W/m 6,0 C 2,8 C 20,9 km/h (4 Bft) 98,18 %
28.10.2017 02:38 8,2 C 10,0 C 86 % 1024,4 hPa 0,0 l/m 17,0 km/h (3 Bft) W 267 0 min 0,000 mm 0,0 UV-I 0 W/m 6,0 C 2,1 C 25,7 km/h (4 Bft) 96,00 %
28.10.2017 02:40 8,2 C 10,0 C 86 % 1024,4 hPa 0,0 l/m 13,8 km/h (3 Bft) W 264 0 min 0,000 mm 0,0 UV-I 0 W/m 6,0 C 3,5 C 22,5 km/h (4 Bft) 97,44 %
28.10.2017 02:42 8,2 C 10,0 C 86 % 1024,4 hPa 0,0 l/m 15,3 km/h (3 Bft) W 261 0 min 0,000 mm 0,0 UV-I 0 W/m 6,0 C 2,8 C 22,5 km/h (4 Bft) 97,73 %
28.10.2017 02:44 8,2 C 10,0 C 86 % 1024,4 hPa 0,0 l/m 13,3 km/h (3 Bft) W-SW 244 0 min 0,000 mm 0,0 UV-I 0 W/m 6,0 C 3,8 C 19,3 km/h (3 Bft) 96,23 %
28.10.2017 02:46 8,2 C 10,0 C 86 % 1024,4 hPa 0,0 l/m 12,5 km/h (3 Bft) W 263 0 min 0,000 mm 0,0 UV-I 0 W/m 6,0 C 4,2 C 19,3 km/h (3 Bft) 100,00 %
28.10.2017 02:48 8,2 C 10,0 C 86 % 1024,4 hPa 0,0 l/m 18,4 km/h (3 Bft) W-SW 244 0 min 0,000 mm 0,0 UV-I 0 W/m 6,0 C 1,5 C 25,7 km/h (4 Bft) 100,00 %
28.10.2017 02:50 8,2 C 10,0 C 86 % 1024,5 hPa 0,0 l/m 14,3 km/h (3 Bft) W-SW 252 0 min 0,000 mm 0,0 UV-I 0 W/m 6,0 C 3,3 C 20,9 km/h (4 Bft) 97,73 %
28.10.2017 02:52 8,2 C 10,0 C 86 % 1024,5 hPa 0,0 l/m 15,2 km/h (3 Bft) W 260 0 min 0,000 mm 0,0 UV-I 0 W/m 6,0 C 2,9 C 22,5 km/h (4 Bft) 100,00 %
28.10.2017 02:54 8,2 C 10,0 C 86 % 1024,4 hPa 0,0 l/m 15,3 km/h (3 Bft) S-SW 205 0 min 0,000 mm 0,0 UV-I 0 W/m 6,0 C 2,8 C 24,1 km/h (4 Bft) 100,00 %
28.10.2017 02:56 8,3 C 10,0 C 86 % 1024,4 hPa 0,0 l/m 14,3 km/h (3 Bft) W-SW 254 0 min 0,000 mm 0,0 UV-I 0 W/m 6,1 C 3,4 C 19,3 km/h (3 Bft) 96,00 %
28.10.2017 02:58 8,3 C 10,0 C 86 % 1024,4 hPa 0,0 l/m 14,7 km/h (3 Bft) W 261 0 min 0,000 mm 0,0 UV-I 0 W/m 6,1 C 3,2 C 22,5 km/h (4 Bft) 100,00 %
28.10.2017 03:00 8,3 C 10,0 C 86 % 1024,4 hPa 0,0 l/m 15,8 km/h (3 Bft) W 269 0 min 0,025 mm 0,0 UV-I 0 W/m 6,1 C 2,7 C 29,0 km/h (5 Bft) 100,00 %
28.10.2017 03:02 8,3 C 10,0 C 86 % 1024,3 hPa 0,0 l/m 15,1 km/h (3 Bft) W-SW 240 0 min 0,000 mm 0,0 UV-I 0 W/m 6,1 C 3,0 C 25,7 km/h (4 Bft) 100,00 %
28.10.2017 03:04 8,3 C 10,0 C 86 % 1024,3 hPa 0,0 l/m 15,1 km/h (3 Bft) SW 229 0 min 0,000 mm 0,0 UV-I 0 W/m 6,1 C 3,0 C 22,5 km/h (4 Bft) 100,00 %
28.10.2017 03:06 8,3 C 10,0 C 86 % 1024,3 hPa 0,0 l/m 16,4 km/h (3 Bft) W 266 0 min 0,000 mm 0,0 UV-I 0 W/m 6,1 C 2,5 C 25,7 km/h (4 Bft) 98,21 %
28.10.2017 03:08 8,3 C 10,0 C 86 % 1024,3 hPa 0,0 l/m 14,5 km/h (3 Bft) W-NW 287 0 min 0,000 mm 0,0 UV-I 0 W/m 6,1 C 3,3 C 24,1 km/h (4 Bft) 97,14 %
28.10.2017 03:10 8,3 C 10,0 C 86 % 1024,2 hPa 0,0 l/m 17,1 km/h (3 Bft) W-SW 256 0 min 0,000 mm 0,0 UV-I 0 W/m 6,1 C 2,2 C 25,7 km/h (4 Bft) 98,00 %
28.10.2017 03:12 8,3 C 10,0 C 86 % 1024,2 hPa 0,0 l/m 16,3 km/h (3 Bft) W 259 0 min 0,000 mm 0,0 UV-I 0 W/m 6,1 C 2,5 C 24,1 km/h (4 Bft) 100,00 %
28.10.2017 03:14 8,3 C 10,0 C 86 % 1024,3 hPa 0,0 l/m 16,5 km/h (3 Bft) W-SW 247 0 min 0,000 mm 0,0 UV-I 0 W/m 6,1 C 2,4 C 22,5 km/h (4 Bft) 100,00 %
28.10.2017 03:16 8,3 C 10,0 C 86 % 1024,4 hPa 0,0 l/m 15,5 km/h (3 Bft) W-SW 250 0 min 0,000 mm 0,0 UV-I 0 W/m 6,1 C 2,9 C 24,1 km/h (4 Bft) 100,00 %
28.10.2017 03:18 8,3 C 10,0 C 86 % 1024,4 hPa 0,0 l/m 13,6 km/h (3 Bft) W 261 0 min 0,000 mm 0,0 UV-I 0 W/m 6,1 C 3,7 C 24,1 km/h (4 Bft) 100,00 %
28.10.2017 03:20 8,3 C 10,0 C 86 % 1024,3 hPa 0,0 l/m 15,8 km/h (3 Bft) W 263 0 min 0,000 mm 0,0 UV-I 0 W/m 6,1 C 2,7 C 25,7 km/h (4 Bft) 100,00 %
28.10.2017 03:22 8,3 C 10,0 C 86 % 1024,3 hPa 0,0 l/m 15,8 km/h (3 Bft) W-SW 250 0 min 0,000 mm 0,0 UV-I 0 W/m 6,1 C 2,7 C 24,1 km/h (4 Bft) 97,87 %
28.10.2017 03:24 8,3 C 10,0 C 86 % 1024,4 hPa 0,0 l/m 16,4 km/h (3 Bft) W 273 0 min 0,000 mm 0,0 UV-I 0 W/m 6,1 C 2,5 C 22,5 km/h (4 Bft) 96,00 %
28.10.2017 03:26 8,4 C 10,0 C 86 % 1024,3 hPa 0,0 l/m 15,8 km/h (3 Bft) W-SW 257 0 min 0,000 mm 0,0 UV-I 0 W/m 6,2 C 2,8 C 19,3 km/h (3 Bft) 97,44 %
28.10.2017 03:28 8,4 C 10,0 C 86 % 1024,3 hPa 0,0 l/m 15,8 km/h (3 Bft) W 259 0 min 0,000 mm 0,0 UV-I 0 W/m 6,2 C 2,8 C 22,5 km/h (4 Bft) 94,34 %
28.10.2017 03:30 8,4 C 10,0 C 86 % 1024,4 hPa 0,0 l/m 17,4 km/h (3 Bft) W 265 0 min 0,000 mm 0,0 UV-I 0 W/m 6,2 C 2,2 C 25,7 km/h (4 Bft) 97,56 %
28.10.2017 03:32 8,4 C 10,0 C 86 % 1024,4 hPa 0,0 l/m 14,9 km/h (3 Bft) W-SW 246 0 min 0,000 mm 0,0 UV-I 0 W/m 6,2 C 3,2 C 20,9 km/h (4 Bft) 97,73 %
28.10.2017 03:34 8,4 C 10,0 C 86 % 1024,3 hPa 0,0 l/m 13,3 km/h (3 Bft) W 272 0 min 0,000 mm 0,0 UV-I 0 W/m 6,2 C 4,0 C 20,9 km/h (4 Bft) 94,00 %
28.10.2017 03:36 8,4 C 10,0 C 86 % 1024,3 hPa 0,0 l/m 16,8 km/h (3 Bft) W-SW 250 0 min 0,000 mm 0,0 UV-I 0 W/m 6,2 C 2,4 C 30,6 km/h (5 Bft) 98,00 %
28.10.2017 03:38 8,4 C 10,0 C 86 % 1024,3 hPa 0,0 l/m 15,2 km/h (3 Bft) W-SW 254 0 min 0,000 mm 0,0 UV-I 0 W/m 6,2 C 3,1 C 22,5 km/h (4 Bft) 98,00 %
28.10.2017 03:40 8,4 C 10,0 C 86 % 1024,2 hPa 0,0 l/m 16,3 km/h (3 Bft) W-SW 245 0 min 0,000 mm 0,0 UV-I 0 W/m 6,2 C 2,6 C 22,5 km/h (4 Bft) 97,37 %
28.10.2017 03:42 8,4 C 10,0 C 86 % 1024,3 hPa 0,0 l/m 17,8 km/h (3 Bft) W 263 0 min 0,000 mm 0,0 UV-I 0 W/m 6,2 C 2,0 C 30,6 km/h (5 Bft) 96,43 %
28.10.2017 03:44 8,4 C 10,0 C 86 % 1024,3 hPa 0,0 l/m 14,3 km/h (3 Bft) W-SW 258 0 min 0,000 mm 0,0 UV-I 0 W/m 6,2 C 3,5 C 20,9 km/h (4 Bft) 100,00 %
28.10.2017 03:46 8,4 C 10,0 C 86 % 1024,2 hPa 0,0 l/m 15,0 km/h (3 Bft) W 267 0 min 0,000 mm 0,0 UV-I 0 W/m 6,2 C 3,2 C 19,3 km/h (3 Bft) 96,00 %
28.10.2017 03:48 8,4 C 10,0 C 86 % 1024,2 hPa 0,0 l/m 13,8 km/h (3 Bft) W 279 0 min 0,000 mm 0,0 UV-I 0 W/m 6,2 C 3,8 C 17,7 km/h (3 Bft) 98,00 %
28.10.2017 03:50 8,4 C 10,0 C 86 % 1024,2 hPa 0,0 l/m 15,1 km/h (3 Bft) W-SW 250 0 min 0,000 mm 0,0 UV-I 0 W/m 6,2 C 3,2 C 19,3 km/h (3 Bft) 95,74 %
28.10.2017 03:52 8,4 C 10,0 C 86 % 1024,2 hPa 0,0 l/m 18,0 km/h (3 Bft) W-SW 250 0 min 0,000 mm 0,0 UV-I 0 W/m 6,2 C 2,0 C 27,4 km/h (4 Bft) 95,12 %
28.10.2017 03:54 8,4 C 10,0 C 86 % 1024,2 hPa 0,0 l/m 16,0 km/h (3 Bft) SW 229 0 min 0,000 mm 0,0 UV-I 0 W/m 6,2 C 2,8 C 19,3 km/h (3 Bft) 97,83 %
28.10.2017 03:56 8,4 C 10,0 C 86 % 1024,2 hPa 0,0 l/m 17,9 km/h (3 Bft) W-SW 253 0 min 0,000 mm 0,0 UV-I 0 W/m 6,2 C 2,0 C 27,4 km/h (4 Bft) 98,08 %
28.10.2017 03:58 8,4 C 10,0 C 86 % 1024,0 hPa 0,0 l/m 15,2 km/h (3 Bft) SW 235 0 min 0,000 mm 0,0 UV-I 0 W/m 6,2 C 3,1 C 27,4 km/h (4 Bft) 100,00 %
28.10.2017 04:00 8,4 C 10,0 C 86 % 1024,0 hPa 0,0 l/m 18,1 km/h (3 Bft) W 267 0 min 0,000 mm 0,0 UV-I 0 W/m 6,2 C 1,9 C 24,1 km/h (4 Bft) 100,00 %
28.10.2017 04:02 8,4 C 10,0 C 86 % 1024,0 hPa 0,0 l/m 16,9 km/h (3 Bft) SW 234 0 min 0,026 mm 0,0 UV-I 0 W/m 6,2 C 2,4 C 20,9 km/h (4 Bft) 96,55 %
28.10.2017 04:04 8,4 C 10,0 C 86 % 1023,9 hPa 0,0 l/m 14,7 km/h (3 Bft) W-SW 251 0 min 0,000 mm 0,0 UV-I 0 W/m 6,2 C 3,3 C 24,1 km/h (4 Bft) 98,11 %
28.10.2017 04:06 8,4 C 10,0 C 86 % 1023,9 hPa 0,0 l/m 18,0 km/h (3 Bft) W-SW 252 0 min 0,000 mm 0,0 UV-I 0 W/m 6,2 C 2,0 C 22,5 km/h (4 Bft) 100,00 %
28.10.2017 04:08 8,4 C 10,0 C 86 % 1023,9 hPa 0,0 l/m 14,9 km/h (3 Bft) W-SW 256 0 min 0,000 mm 0,0 UV-I 0 W/m 6,2 C 3,2 C 17,7 km/h (3 Bft) 100,00 %
28.10.2017 04:10 8,4 C 10,0 C 86 % 1023,8 hPa 0,0 l/m 11,2 km/h (2 Bft) SW 220 0 min 0,000 mm 0,0 UV-I 0 W/m 6,2 C 5,1 C 17,7 km/h (3 Bft) 97,37 %
28.10.2017 04:12 8,3 C 10,0 C 86 % 1023,8 hPa 0,0 l/m 13,8 km/h (3 Bft) W-SW 243 0 min 0,000 mm 0,0 UV-I 0 W/m 6,1 C 3,6 C 22,5 km/h (4 Bft) 98,46 %
28.10.2017 04:14 8,3 C 10,0 C 87 % 1023,7 hPa 0,0 l/m 13,6 km/h (3 Bft) W-SW 249 0 min 0,000 mm 0,0 UV-I 0 W/m 6,3 C 3,7 C 24,1 km/h (4 Bft) 100,00 %
28.10.2017 04:16 8,3 C 10,0 C 87 % 1023,7 hPa 0,0 l/m 14,2 km/h (3 Bft) W-SW 244 0 min 0,000 mm 0,0 UV-I 0 W/m 6,3 C 3,4 C 20,9 km/h (4 Bft) 100,00 %
28.10.2017 04:18 8,3 C 10,0 C 87 % 1023,7 hPa 0,0 l/m 11,1 km/h (2 Bft) SW 225 0 min 0,000 mm 0,0 UV-I 0 W/m 6,3 C 5,1 C 16,1 km/h (3 Bft) 97,87 %
28.10.2017 04:20 8,2 C 10,0 C 87 % 1023,7 hPa 0,0 l/m 12,4 km/h (3 Bft) SW 215 0 min 0,000 mm 0,0 UV-I 0 W/m 6,2 C 4,2 C 24,1 km/h (4 Bft) 100,00 %
28.10.2017 04:22 8,2 C 10,0 C 88 % 1023,6 hPa 0,0 l/m 16,2 km/h (3 Bft) W-SW 242 0 min 0,000 mm 0,0 UV-I 0 W/m 6,3 C 2,4 C 22,5 km/h (4 Bft) 98,00 %
28.10.2017 04:24 8,1 C 10,0 C 88 % 1023,7 hPa 0,0 l/m 17,3 km/h (3 Bft) SW 234 0 min 0,000 mm 0,0 UV-I 0 W/m 6,2 C 1,8 C 25,7 km/h (4 Bft) 100,00 %
28.10.2017 04:26 8,1 C 10,0 C 88 % 1023,7 hPa 0,0 l/m 15,7 km/h (3 Bft) SW 220 0 min 0,000 mm 0,0 UV-I 0 W/m 6,2 C 2,5 C 24,1 km/h (4 Bft) 100,00 %
28.10.2017 04:28 8,1 C 10,0 C 88 % 1023,7 hPa 0,0 l/m 13,7 km/h (3 Bft) SW 235 0 min 0,000 mm 0,0 UV-I 0 W/m 6,2 C 3,4 C 20,9 km/h (4 Bft) 100,00 %
28.10.2017 04:30 8,0 C 10,0 C 88 % 1023,6 hPa 0,0 l/m 13,2 km/h (3 Bft) SW 219 0 min 0,000 mm 0,0 UV-I 0 W/m 6,1 C 3,6 C 19,3 km/h (3 Bft) 100,00 %
28.10.2017 04:32 8,0 C 10,0 C 89 % 1023,6 hPa 0,0 l/m 14,5 km/h (3 Bft) W-SW 253 0 min 0,000 mm 0,0 UV-I 0 W/m 6,3 C 2,9 C 20,9 km/h (4 Bft) 100,00 %
28.10.2017 04:34 8,0 C 10,0 C 89 % 1023,6 hPa 0,0 l/m 13,8 km/h (3 Bft) SW 231 0 min 0,000 mm 0,0 UV-I 0 W/m 6,3 C 3,3 C 20,9 km/h (4 Bft) 100,00 %
28.10.2017 04:36 7,9 C 10,0 C 89 % 1023,5 hPa 0,0 l/m 15,1 km/h (3 Bft) SW 222 0 min 0,000 mm 0,0 UV-I 0 W/m 6,2 C 2,5 C 19,3 km/h (3 Bft) 95,74 %
28.10.2017 04:38 7,9 C 10,0 C 89 % 1023,5 hPa 0,0 l/m 12,8 km/h (3 Bft) SW 223 0 min 0,000 mm 0,0 UV-I 0 W/m 6,2 C 3,7 C 25,7 km/h (4 Bft) 100,00 %
28.10.2017 04:40 7,9 C 10,0 C 89 % 1023,4 hPa 0,0 l/m 18,0 km/h (3 Bft) W-SW 242 0 min 0,000 mm 0,0 UV-I 0 W/m 6,2 C 1,3 C 27,4 km/h (4 Bft) 100,00 %
28.10.2017 04:42 7,9 C 10,0 C 89 % 1023,4 hPa 0,0 l/m 13,5 km/h (3 Bft) W 271 0 min 0,000 mm 0,0 UV-I 0 W/m 6,2 C 3,3 C 20,9 km/h (4 Bft) 100,00 %
28.10.2017 04:44 7,9 C 10,0 C 89 % 1023,4 hPa 0,0 l/m 14,3 km/h (3 Bft) SW 229 0 min 0,000 mm 0,0 UV-I 0 W/m 6,2 C 2,9 C 20,9 km/h (4 Bft) 100,00 %
28.10.2017 04:46 7,9 C 10,0 C 89 % 1023,3 hPa 0,0 l/m 16,5 km/h (3 Bft) W-SW 244 0 min 0,000 mm 0,0 UV-I 0 W/m 6,2 C 1,9 C 22,5 km/h (4 Bft) 100,00 %
28.10.2017 04:48 7,9 C 10,0 C 89 % 1023,3 hPa 0,0 l/m 14,5 km/h (3 Bft) W-SW 242 0 min 0,000 mm 0,0 UV-I 0 W/m 6,2 C 2,8 C 24,1 km/h (4 Bft) 100,00 %
28.10.2017 04:50 7,9 C 10,0 C 89 % 1023,3 hPa 0,0 l/m 15,2 km/h (3 Bft) W 266 0 min 0,000 mm 0,0 UV-I 0 W/m 6,2 C 2,5 C 22,5 km/h (4 Bft) 97,87 %
28.10.2017 04:52 7,8 C 10,0 C 89 % 1023,3 hPa 0,0 l/m 17,7 km/h (3 Bft) W 260 0 min 0,000 mm 0,0 UV-I 0 W/m 6,1 C 1,3 C 24,1 km/h (4 Bft) 100,00 %
28.10.2017 04:54 7,8 C 10,0 C 89 % 1023,3 hPa 0,0 l/m 14,3 km/h (3 Bft) W-SW 252 0 min 0,000 mm 0,0 UV-I 0 W/m 6,1 C 2,8 C 19,3 km/h (3 Bft) 100,00 %
28.10.2017 04:56 7,8 C 10,0 C 89 % 1023,3 hPa 0,0 l/m 14,3 km/h (3 Bft) SW 222 0 min 0,000 mm 0,0 UV-I 0 W/m 6,1 C 2,8 C 22,5 km/h (4 Bft) 100,00 %
28.10.2017 04:58 7,8 C 10,0 C 89 % 1023,3 hPa 0,0 l/m 14,1 km/h (3 Bft) W-SW 246 0 min 0,000 mm 0,0 UV-I 0 W/m 6,1 C 2,9 C 17,7 km/h (3 Bft) 100,00 %
28.10.2017 05:00 7,8 C 10,0 C 89 % 1023,3 hPa 0,0 l/m 13,9 km/h (3 Bft) SW 236 0 min 0,000 mm 0,0 UV-I 0 W/m 6,1 C 3,0 C 19,3 km/h (3 Bft) 100,00 %
28.10.2017 05:02 7,8 C 10,0 C 89 % 1023,3 hPa 0,0 l/m 14,3 km/h (3 Bft) SW 226 0 min 0,025 mm 0,0 UV-I 0 W/m 6,1 C 2,8 C 20,9 km/h (4 Bft) 100,00 %
28.10.2017 05:04 7,8 C 10,0 C 89 % 1023,3 hPa 0,0 l/m 16,2 km/h (3 Bft) W 263 0 min 0,000 mm 0,0 UV-I 0 W/m 6,1 C 1,9 C 20,9 km/h (4 Bft) 100,00 %
28.10.2017 05:06 7,8 C 10,0 C 89 % 1023,3 hPa 0,0 l/m 16,1 km/h (3 Bft) SW 230 0 min 0,000 mm 0,0 UV-I 0 W/m 6,1 C 2,0 C 22,5 km/h (4 Bft) 97,87 %
28.10.2017 05:08 7,8 C 10,0 C 89 % 1023,2 hPa 0,0 l/m 15,2 km/h (3 Bft) W 267 0 min 0,000 mm 0,0 UV-I 0 W/m 6,1 C 2,4 C 22,5 km/h (4 Bft) 98,21 %
28.10.2017 05:10 7,8 C 10,0 C 89 % 1023,2 hPa 0,0 l/m 14,8 km/h (3 Bft) W-SW 243 0 min 0,000 mm 0,0 UV-I 0 W/m 6,1 C 2,6 C 20,9 km/h (4 Bft) 100,00 %
28.10.2017 05:12 7,8 C 10,0 C 89 % 1023,2 hPa 0,0 l/m 14,1 km/h (3 Bft) W 263 0 min 0,000 mm 0,0 UV-I 0 W/m 6,1 C 2,9 C 19,3 km/h (3 Bft) 98,11 %
28.10.2017 05:14 7,8 C 10,0 C 89 % 1023,2 hPa 0,0 l/m 14,3 km/h (3 Bft) W-SW 243 0 min 0,000 mm 0,0 UV-I 0 W/m 6,1 C 2,8 C 22,5 km/h (4 Bft) 100,00 %
28.10.2017 05:16 7,8 C 10,0 C 89 % 1023,2 hPa 0,0 l/m 16,1 km/h (3 Bft) W-SW 258 0 min 0,000 mm 0,0 UV-I 0 W/m 6,1 C 2,0 C 22,5 km/h (4 Bft) 100,00 %
28.10.2017 05:18 7,8 C 10,0 C 89 % 1023,2 hPa 0,0 l/m 16,9 km/h (3 Bft) SW 229 0 min 0,000 mm 0,0 UV-I 0 W/m 6,1 C 1,6 C 24,1 km/h (4 Bft) 100,00 %
28.10.2017 05:20 7,8 C 10,0 C 89 % 1023,2 hPa 0,0 l/m 16,3 km/h (3 Bft) W-SW 250 0 min 0,000 mm 0,0 UV-I 0 W/m 6,1 C 1,9 C 22,5 km/h (4 Bft) 94,74 %
28.10.2017 05:22 7,8 C 10,0 C 89 % 1023,2 hPa 0,0 l/m 16,8 km/h (3 Bft) W-SW 244 0 min 0,000 mm 0,0 UV-I 0 W/m 6,1 C 1,7 C 22,5 km/h (4 Bft) 98,21 %
28.10.2017 05:24 7,8 C 10,0 C 89 % 1023,2 hPa 0,0 l/m 17,6 km/h (3 Bft) W-SW 257 0 min 0,000 mm 0,0 UV-I 0 W/m 6,1 C 1,4 C 22,5 km/h (4 Bft) 98,00 %
28.10.2017 05:26 7,8 C 10,0 C 89 % 1023,1 hPa 0,0 l/m 18,0 km/h (3 Bft) W 268 0 min 0,000 mm 0,0 UV-I 0 W/m 6,1 C 1,2 C 20,9 km/h (4 Bft) 100,00 %
28.10.2017 05:28 7,8 C 10,0 C 89 % 1023,1 hPa 0,0 l/m 17,9 km/h (3 Bft) SW 226 0 min 0,000 mm 0,0 UV-I 0 W/m 6,1 C 1,2 C 27,4 km/h (4 Bft) 94,00 %
28.10.2017 05:30 7,8 C 10,0 C 89 % 1023,1 hPa 0,0 l/m 15,8 km/h (3 Bft) W 263 0 min 0,000 mm 0,0 UV-I 0 W/m 6,1 C 2,1 C 27,4 km/h (4 Bft) 93,18 %
28.10.2017 05:32 7,8 C 10,0 C 89 % 1023,0 hPa 0,0 l/m 15,7 km/h (3 Bft) W 259 0 min 0,000 mm 0,0 UV-I 0 W/m 6,1 C 2,2 C 24,1 km/h (4 Bft) 96,00 %
28.10.2017 05:34 7,8 C 10,0 C 89 % 1023,1 hPa 0,0 l/m 16,7 km/h (3 Bft) W-SW 239 0 min 0,000 mm 0,0 UV-I 0 W/m 6,1 C 1,7 C 24,1 km/h (4 Bft) 94,74 %
28.10.2017 05:36 7,8 C 10,0 C 89 % 1023,1 hPa 0,0 l/m 17,7 km/h (3 Bft) W-SW 240 0 min 0,000 mm 0,0 UV-I 0 W/m 6,1 C 1,3 C 25,7 km/h (4 Bft) 96,23 %
28.10.2017 05:38 7,8 C 10,0 C 89 % 1023,1 hPa 0,0 l/m 16,0 km/h (3 Bft) W-SW 243 0 min 0,000 mm 0,0 UV-I 0 W/m 6,1 C 2,0 C 25,7 km/h (4 Bft) 95,12 %
28.10.2017 05:40 7,8 C 10,0 C 89 % 1023,0 hPa 0,0 l/m 16,5 km/h (3 Bft) W-SW 246 0 min 0,000 mm 0,0 UV-I 0 W/m 6,1 C 1,8 C 27,4 km/h (4 Bft) 92,86 %
28.10.2017 05:42 7,8 C 10,0 C 89 % 1023,0 hPa 0,0 l/m 14,9 km/h (3 Bft) W 267 0 min 0,000 mm 0,0 UV-I 0 W/m 6,1 C 2,5 C 20,9 km/h (4 Bft) 97,37 %
28.10.2017 05:44 7,8 C 10,0 C 89 % 1023,0 hPa 0,0 l/m 15,1 km/h (3 Bft) W-SW 245 0 min 0,000 mm 0,0 UV-I 0 W/m 6,1 C 2,4 C 22,5 km/h (4 Bft) 91,07 %
28.10.2017 05:46 7,8 C 10,0 C 89 % 1023,0 hPa 0,0 l/m 14,5 km/h (3 Bft) SW 224 0 min 0,000 mm 0,0 UV-I 0 W/m 6,1 C 2,7 C 20,9 km/h (4 Bft) 97,37 %
28.10.2017 05:48 7,8 C 10,0 C 89 % 1023,0 hPa 0,0 l/m 15,9 km/h (3 Bft) W 281 0 min 0,000 mm 0,0 UV-I 0 W/m 6,1 C 2,1 C 19,3 km/h (3 Bft) 94,92 %
28.10.2017 05:50 7,8 C 10,0 C 89 % 1023,0 hPa 0,0 l/m 15,7 km/h (3 Bft) W-SW 256 0 min 0,000 mm 0,0 UV-I 0 W/m 6,1 C 2,2 C 24,1 km/h (4 Bft) 95,12 %
28.10.2017 05:52 7,8 C 10,0 C 89 % 1022,9 hPa 0,0 l/m 16,5 km/h (3 Bft) W 261 0 min 0,000 mm 0,0 UV-I 0 W/m 6,1 C 1,8 C 24,1 km/h (4 Bft) 97,62 %
28.10.2017 05:54 7,8 C 10,0 C 89 % 1023,0 hPa 0,0 l/m 16,9 km/h (3 Bft) W-SW 256 0 min 0,000 mm 0,0 UV-I 0 W/m 6,1 C 1,6 C 25,7 km/h (4 Bft) 94,55 %
28.10.2017 05:56 7,8 C 10,0 C 89 % 1023,1 hPa 0,0 l/m 18,9 km/h (3 Bft) W 265 0 min 0,000 mm 0,0 UV-I 0 W/m 6,1 C 0,8 C 24,1 km/h (4 Bft) 95,24 %
28.10.2017 05:58 7,8 C 10,0 C 89 % 1023,0 hPa 0,0 l/m 18,2 km/h (3 Bft) W-SW 256 0 min 0,000 mm 0,0 UV-I 0 W/m 6,1 C 1,1 C 27,4 km/h (4 Bft) 92,68 %
28.10.2017 06:00 7,8 C 10,0 C 89 % 1023,1 hPa 0,0 l/m 16,8 km/h (3 Bft) W-SW 251 0 min 0,025 mm 0,0 UV-I 0 W/m 6,1 C 1,7 C 22,5 km/h (4 Bft) 96,49 %
28.10.2017 06:02 7,8 C 10,0 C 89 % 1023,0 hPa 0,0 l/m 14,3 km/h (3 Bft) W 260 0 min 0,000 mm 0,0 UV-I 0 W/m 6,1 C 2,8 C 19,3 km/h (3 Bft) 97,37 %
28.10.2017 06:04 7,8 C 10,0 C 89 % 1023,0 hPa 0,0 l/m 17,1 km/h (3 Bft) SW 225 0 min 0,000 mm 0,0 UV-I 0 W/m 6,1 C 1,6 C 24,1 km/h (4 Bft) 97,73 %
28.10.2017 06:06 7,8 C 10,0 C 89 % 1023,0 hPa 0,0 l/m 16,5 km/h (3 Bft) W-SW 251 0 min 0,000 mm 0,0 UV-I 0 W/m 6,1 C 1,8 C 22,5 km/h (4 Bft) 96,43 %
28.10.2017 06:08 7,8 C 10,0 C 89 % 1022,9 hPa 0,0 l/m 16,4 km/h (3 Bft) W 266 0 min 0,000 mm 0,0 UV-I 0 W/m 6,1 C 1,8 C 24,1 km/h (4 Bft) 96,23 %
28.10.2017 06:10 7,8 C 10,0 C 88 % 1022,9 hPa 0,0 l/m 18,0 km/h (3 Bft) W-SW 246 0 min 0,000 mm 0,0 UV-I 0 W/m 5,9 C 1,2 C 25,7 km/h (4 Bft) 97,37 %
28.10.2017 06:12 7,9 C 10,0 C 88 % 1022,7 hPa 0,0 l/m 17,6 km/h (3 Bft) W-SW 254 0 min 0,000 mm 0,0 UV-I 0 W/m 6,0 C 1,5 C 24,1 km/h (4 Bft) 98,21 %
28.10.2017 06:14 7,9 C 10,0 C 88 % 1022,8 hPa 0,0 l/m 17,3 km/h (3 Bft) W-SW 256 0 min 0,000 mm 0,0 UV-I 0 W/m 6,0 C 1,6 C 25,7 km/h (4 Bft) 97,73 %
28.10.2017 06:16 7,9 C 10,0 C 88 % 1022,7 hPa 0,0 l/m 16,3 km/h (3 Bft) W-SW 256 0 min 0,000 mm 0,0 UV-I 0 W/m 6,0 C 2,0 C 24,1 km/h (4 Bft) 97,37 %
28.10.2017 06:18 7,9 C 10,0 C 88 % 1022,7 hPa 0,0 l/m 16,5 km/h (3 Bft) W 259 0 min 0,000 mm 0,0 UV-I 0 W/m 6,0 C 1,9 C 27,4 km/h (4 Bft) 96,00 %
28.10.2017 06:20 7,9 C 10,0 C 88 % 1022,6 hPa 0,0 l/m 19,3 km/h (3 Bft) W-SW 258 0 min 0,000 mm 0,0 UV-I 0 W/m 6,0 C 0,8 C 22,5 km/h (4 Bft) 97,87 %
28.10.2017 06:22 7,9 C 10,0 C 88 % 1022,6 hPa 0,0 l/m 19,1 km/h (3 Bft) W 269 0 min 0,000 mm 0,0 UV-I 0 W/m 6,0 C 0,9 C 25,7 km/h (4 Bft) 97,22 %
28.10.2017 06:24 7,9 C 10,0 C 88 % 1022,5 hPa 0,0 l/m 20,8 km/h (4 Bft) W-SW 252 0 min 0,000 mm 0,0 UV-I 0 W/m 6,0 C 0,3 C 29,0 km/h (5 Bft) 98,18 %
28.10.2017 06:26 7,9 C 10,0 C 88 % 1022,5 hPa 0,0 l/m 17,3 km/h (3 Bft) W-SW 247 0 min 0,000 mm 0,0 UV-I 0 W/m 6,0 C 1,6 C 29,0 km/h (5 Bft) 96,23 %
28.10.2017 06:28 7,9 C 10,0 C 88 % 1022,5 hPa 0,0 l/m 18,0 km/h (3 Bft) W 259 0 min 0,000 mm 0,0 UV-I 0 W/m 6,0 C 1,3 C 25,7 km/h (4 Bft) 92,68 %
28.10.2017 06:30 7,9 C 10,0 C 88 % 1022,4 hPa 0,0 l/m 16,9 km/h (3 Bft) W 269 0 min 0,000 mm 0,0 UV-I 0 W/m 6,0 C 1,8 C 27,4 km/h (4 Bft) 98,11 %
28.10.2017 06:32 7,9 C 10,0 C 88 % 1022,4 hPa 0,0 l/m 18,1 km/h (3 Bft) W-NW 286 0 min 0,000 mm 0,0 UV-I 0 W/m 6,0 C 1,3 C 25,7 km/h (4 Bft) 97,56 %
28.10.2017 06:34 7,9 C 10,0 C 88 % 1022,4 hPa 0,0 l/m 18,4 km/h (3 Bft) W 266 0 min 0,000 mm 0,0 UV-I 0 W/m 6,0 C 1,2 C 24,1 km/h (4 Bft) 98,11 %
28.10.2017 06:36 7,9 C 10,0 C 87 % 1022,5 hPa 0,0 l/m 18,8 km/h (3 Bft) W-SW 238 0 min 0,000 mm 0,0 UV-I 0 W/m 5,9 C 1,0 C 32,2 km/h (5 Bft) 100,00 %
28.10.2017 06:38 8,0 C 10,0 C 87 % 1022,3 hPa 0,0 l/m 17,0 km/h (3 Bft) W-SW 249 0 min 0,000 mm 0,0 UV-I 0 W/m 6,0 C 1,8 C 27,4 km/h (4 Bft) 100,00 %
28.10.2017 06:40 8,0 C 10,0 C 87 % 1022,3 hPa 0,0 l/m 23,3 km/h (4 Bft) W 259 0 min 0,000 mm 0,0 UV-I 0 W/m 6,0 C -0,4 C 33,8 km/h (5 Bft) 97,44 %
28.10.2017 06:42 8,0 C 10,0 C 87 % 1022,4 hPa 0,0 l/m 20,4 km/h (4 Bft) W-SW 257 0 min 0,000 mm 0,0 UV-I 0 W/m 6,0 C 0,6 C 30,6 km/h (5 Bft) 100,00 %
28.10.2017 06:44 8,1 C 10,0 C 87 % 1022,3 hPa 0,0 l/m 18,6 km/h (3 Bft) W-SW 258 0 min 0,000 mm 0,0 UV-I 0 W/m 6,1 C 1,3 C 30,6 km/h (5 Bft) 100,00 %
28.10.2017 06:46 8,1 C 10,0 C 87 % 1022,4 hPa 0,0 l/m 13,4 km/h (3 Bft) W-SW 250 0 min 0,000 mm 0,0 UV-I 0 W/m 6,1 C 3,6 C 17,7 km/h (3 Bft) 100,00 %
28.10.2017 06:48 8,1 C 10,0 C 87 % 1022,3 hPa 0,0 l/m 16,4 km/h (3 Bft) W-SW 238 0 min 0,000 mm 0,0 UV-I 0 W/m 6,1 C 2,2 C 24,1 km/h (4 Bft) 100,00 %
28.10.2017 06:50 8,1 C 10,0 C 87 % 1022,3 hPa 0,0 l/m 18,5 km/h (3 Bft) W-SW 246 0 min 0,000 mm 0,0 UV-I 0 W/m 6,1 C 1,4 C 32,2 km/h (5 Bft) 100,00 %
28.10.2017 06:52 8,1 C 10,0 C 86 % 1022,1 hPa 0,0 l/m 20,3 km/h (4 Bft) W 265 0 min 0,000 mm 0,0 UV-I 0 W/m 5,9 C 0,7 C 30,6 km/h (5 Bft) 100,00 %
28.10.2017 06:54 8,1 C 10,0 C 86 % 1022,1 hPa 0,0 l/m 15,9 km/h (3 Bft) W-SW 252 0 min 0,000 mm 0,0 UV-I 0 W/m 5,9 C 2,4 C 24,1 km/h (4 Bft) 98,11 %
28.10.2017 06:56 8,1 C 10,0 C 86 % 1022,0 hPa 0,0 l/m 16,5 km/h (3 Bft) SW 231 0 min 0,000 mm 0,0 UV-I 0 W/m 5,9 C 2,2 C 24,1 km/h (4 Bft) 100,00 %
28.10.2017 06:58 8,0 C 10,0 C 86 % 1022,0 hPa 0,0 l/m 21,0 km/h (4 Bft) W-SW 252 0 min 0,000 mm 0,0 UV-I 0 W/m 5,8 C 0,4 C 29,0 km/h (5 Bft) 100,00 %
28.10.2017 07:00 8,0 C 10,0 C 86 % 1021,9 hPa 0,0 l/m 18,7 km/h (3 Bft) W-SW 257 0 min 0,026 mm 0,0 UV-I 0 W/m 5,8 C 1,2 C 25,7 km/h (4 Bft) 98,00 %
28.10.2017 07:02 7,9 C 10,0 C 86 % 1021,9 hPa 0,0 l/m 23,7 km/h (4 Bft) W-SW 254 0 min 0,000 mm 0,0 UV-I 0 W/m 5,7 C -0,6 C 30,6 km/h (5 Bft) 100,00 %
28.10.2017 07:04 7,9 C 10,0 C 86 % 1021,8 hPa 0,0 l/m 16,2 km/h (3 Bft) W-SW 238 0 min 0,000 mm 0,0 UV-I 0 W/m 5,7 C 2,1 C 24,1 km/h (4 Bft) 100,00 %
28.10.2017 07:06 7,9 C 10,0 C 86 % 1021,8 hPa 0,0 l/m 14,9 km/h (3 Bft) W-SW 239 0 min 0,000 mm 0,0 UV-I 0 W/m 5,7 C 2,6 C 19,3 km/h (3 Bft) 100,00 %
28.10.2017 07:08 7,9 C 10,0 C 86 % 1021,8 hPa 0,0 l/m 16,4 km/h (3 Bft) W-SW 242 0 min 0,000 mm 0,0 UV-I 0 W/m 5,7 C 2,0 C 27,4 km/h (4 Bft) 98,00 %
28.10.2017 07:10 7,9 C 10,0 C 86 % 1021,7 hPa 0,0 l/m 19,7 km/h (3 Bft) W 261 0 min 0,000 mm 0,0 UV-I 0 W/m 5,7 C 0,7 C 27,4 km/h (4 Bft) 100,00 %
28.10.2017 07:12 7,9 C 10,0 C 86 % 1021,8 hPa 0,0 l/m 13,2 km/h (3 Bft) W 265 0 min 0,000 mm 0,0 UV-I 0 W/m 5,7 C 3,5 C 19,3 km/h (3 Bft) 100,00 %
28.10.2017 07:14 7,8 C 10,0 C 87 % 1021,8 hPa 0,0 l/m 14,4 km/h (3 Bft) W 269 0 min 0,000 mm 0,0 UV-I 0 W/m 5,8 C 2,7 C 20,9 km/h (4 Bft) 100,00 %
28.10.2017 07:16 7,8 C 10,0 C 87 % 1021,9 hPa 0,0 l/m 16,8 km/h (3 Bft) W 267 0 min 0,000 mm 0,0 UV-I 0 W/m 5,8 C 1,7 C 20,9 km/h (4 Bft) 100,00 %
28.10.2017 07:18 7,8 C 10,0 C 87 % 1021,8 hPa 0,0 l/m 17,1 km/h (3 Bft) W 265 0 min 0,000 mm 0,0 UV-I 0 W/m 5,8 C 1,6 C 27,4 km/h (4 Bft) 100,00 %
28.10.2017 07:20 7,8 C 10,0 C 87 % 1021,7 hPa 0,0 l/m 17,5 km/h (3 Bft) W 263 0 min 0,000 mm 0,0 UV-I 0 W/m 5,8 C 1,4 C 27,4 km/h (4 Bft) 100,00 %
28.10.2017 07:22 7,8 C 10,0 C 87 % 1021,7 hPa 0,0 l/m 13,9 km/h (3 Bft) W-SW 237 0 min 0,000 mm 0,0 UV-I 0 W/m 5,8 C 3,0 C 22,5 km/h (4 Bft) 100,00 %
28.10.2017 07:24 7,8 C 10,0 C 87 % 1021,7 hPa 0,0 l/m 14,3 km/h (3 Bft) W-SW 249 0 min 0,000 mm 0,0 UV-I 0 W/m 5,8 C 2,8 C 20,9 km/h (4 Bft) 98,11 %
28.10.2017 07:26 7,8 C 10,0 C 87 % 1021,7 hPa 0,0 l/m 15,8 km/h (3 Bft) SW 219 0 min 0,000 mm 0,0 UV-I 0 W/m 5,8 C 2,1 C 24,1 km/h (4 Bft) 97,56 %
28.10.2017 07:28 7,8 C 10,0 C 87 % 1021,7 hPa 0,0 l/m 17,3 km/h (3 Bft) W 265 0 min 0,000 mm 0,0 UV-I 0 W/m 5,8 C 1,5 C 32,2 km/h (5 Bft) 98,11 %
28.10.2017 07:30 7,8 C 10,0 C 87 % 1021,7 hPa 0,0 l/m 13,6 km/h (3 Bft) W 263 0 min 0,000 mm 0,0 UV-I 0 W/m 5,8 C 3,1 C 19,3 km/h (3 Bft) 97,56 %
28.10.2017 07:32 7,8 C 10,0 C 87 % 1021,7 hPa 0,0 l/m 19,5 km/h (3 Bft) W-SW 253 0 min 0,000 mm 0,0 UV-I 0 W/m 5,8 C 0,6 C 30,6 km/h (5 Bft) 95,24 %
28.10.2017 07:34 7,8 C 10,0 C 87 % 1021,7 hPa 0,0 l/m 15,8 km/h (3 Bft) W 273 0 min 0,000 mm 0,0 UV-I 0 W/m 5,8 C 2,1 C 22,5 km/h (4 Bft) 98,11 %
28.10.2017 07:36 7,7 C 10,0 C 87 % 1021,6 hPa 0,0 l/m 15,3 km/h (3 Bft) W-SW 251 0 min 0,000 mm 0,0 UV-I 3 W/m 5,7 C 2,2 C 20,9 km/h (4 Bft) 98,00 %
28.10.2017 07:38 7,7 C 10,0 C 87 % 1021,6 hPa 0,0 l/m 16,1 km/h (3 Bft) W-SW 258 0 min 0,000 mm 0,0 UV-I 5 W/m 5,7 C 1,9 C 24,1 km/h (4 Bft) 97,73 %
28.10.2017 07:40 7,7 C 10,0 C 88 % 1021,7 hPa 0,0 l/m 13,5 km/h (3 Bft) SW 222 0 min 0,000 mm 0,0 UV-I 5 W/m 5,8 C 3,1 C 20,9 km/h (4 Bft) 97,37 %
28.10.2017 07:42 7,7 C 10,0 C 88 % 1021,5 hPa 0,0 l/m 15,9 km/h (3 Bft) W-SW 254 0 min 0,000 mm 0,0 UV-I 5 W/m 5,8 C 1,9 C 20,9 km/h (4 Bft) 96,43 %
28.10.2017 07:44 7,7 C 10,0 C 87 % 1021,6 hPa 0,0 l/m 16,5 km/h (3 Bft) SW 232 0 min 0,000 mm 0,0 UV-I 6 W/m 5,7 C 1,7 C 27,4 km/h (4 Bft) 96,00 %
28.10.2017 07:46 7,7 C 10,0 C 88 % 1021,6 hPa 0,0 l/m 15,0 km/h (3 Bft) SW 219 0 min 0,000 mm 0,0 UV-I 7 W/m 5,8 C 2,3 C 20,9 km/h (4 Bft) 97,56 %
28.10.2017 07:48 7,7 C 10,0 C 88 % 1021,6 hPa 0,0 l/m 12,1 km/h (2 Bft) SW 232 0 min 0,000 mm 0,0 UV-I 7 W/m 5,8 C 3,8 C 17,7 km/h (3 Bft) 96,00 %
28.10.2017 07:50 7,6 C 10,0 C 88 % 1021,7 hPa 0,0 l/m 13,4 km/h (3 Bft) SW 219 0 min 0,000 mm 0,0 UV-I 9 W/m 5,7 C 3,0 C 22,5 km/h (4 Bft) 97,62 %
28.10.2017 07:52 7,6 C 10,0 C 88 % 1021,7 hPa 0,0 l/m 16,3 km/h (3 Bft) W-SW 244 0 min 0,000 mm 0,0 UV-I 11 W/m 5,7 C 1,6 C 24,1 km/h (4 Bft) 100,00 %
28.10.2017 07:54 7,6 C 10,0 C 88 % 1021,7 hPa 0,0 l/m 16,8 km/h (3 Bft) W-SW 250 2 min 0,000 mm 0,0 UV-I 11 W/m 5,7 C 1,4 C 25,7 km/h (4 Bft) 97,06 %
28.10.2017 07:56 7,6 C 10,0 C 88 % 1021,7 hPa 0,0 l/m 17,7 km/h (3 Bft) W-SW 241 0 min 0,000 mm 0,0 UV-I 12 W/m 5,7 C 1,1 C 22,5 km/h (4 Bft) 95,45 %
28.10.2017 07:58 7,6 C 10,0 C 88 % 1021,8 hPa 0,0 l/m 15,8 km/h (3 Bft) SW 222 0 min 0,000 mm 0,0 UV-I 14 W/m 5,7 C 1,9 C 22,5 km/h (4 Bft) 98,11 %
28.10.2017 08:00 7,6 C 10,0 C 88 % 1021,8 hPa 0,0 l/m 17,4 km/h (3 Bft) W 261 0 min 0,025 mm 0,0 UV-I 15 W/m 5,7 C 1,2 C 24,1 km/h (4 Bft) 97,14 %
28.10.2017 08:02 7,6 C 10,0 C 88 % 1021,8 hPa 0,0 l/m 17,1 km/h (3 Bft) W-SW 245 0 min 0,000 mm 0,0 UV-I 17 W/m 5,7 C 1,3 C 24,1 km/h (4 Bft) 96,00 %
28.10.2017 08:04 7,6 C 10,0 C 88 % 1021,8 hPa 0,0 l/m 19,9 km/h (4 Bft) W 266 0 min 0,000 mm 0,0 UV-I 19 W/m 5,7 C 0,2 C 25,7 km/h (4 Bft) 96,43 %
28.10.2017 08:06 7,6 C 10,0 C 88 % 1021,8 hPa 0,0 l/m 18,0 km/h (3 Bft) W 261 0 min 0,000 mm 0,0 UV-I 21 W/m 5,7 C 0,9 C 29,0 km/h (5 Bft) 97,56 %
28.10.2017 08:08 7,6 C 10,0 C 88 % 1021,8 hPa 0,0 l/m 15,0 km/h (3 Bft) W 260 0 min 0,000 mm 0,0 UV-I 22 W/m 5,7 C 2,2 C 19,3 km/h (3 Bft) 100,00 %
28.10.2017 08:10 7,6 C 10,0 C 88 % 1021,7 hPa 0,0 l/m 16,9 km/h (3 Bft) SW 227 0 min 0,000 mm 0,0 UV-I 25 W/m 5,7 C 1,4 C 25,7 km/h (4 Bft) 98,21 %
28.10.2017 08:12 7,6 C 10,0 C 88 % 1021,8 hPa 0,0 l/m 16,8 km/h (3 Bft) W 279 0 min 0,000 mm 0,0 UV-I 27 W/m 5,7 C 1,4 C 22,5 km/h (4 Bft) 100,00 %
28.10.2017 08:14 7,6 C 10,0 C 88 % 1021,7 hPa 0,0 l/m 17,4 km/h (3 Bft) W-SW 238 0 min 0,000 mm 0,0 UV-I 30 W/m 5,7 C 1,2 C 22,5 km/h (4 Bft) 93,62 %
28.10.2017 08:16 7,6 C 10,0 C 88 % 1021,8 hPa 0,0 l/m 12,6 km/h (3 Bft) W 265 0 min 0,000 mm 0,0 UV-I 32 W/m 5,7 C 3,4 C 17,7 km/h (3 Bft) 100,00 %
28.10.2017 08:18 7,6 C 10,0 C 88 % 1021,8 hPa 0,0 l/m 15,5 km/h (3 Bft) W-SW 250 0 min 0,000 mm 0,0 UV-I 32 W/m 5,7 C 2,0 C 22,5 km/h (4 Bft) 100,00 %
28.10.2017 08:20 7,6 C 10,0 C 88 % 1021,8 hPa 0,0 l/m 14,9 km/h (3 Bft) W 261 0 min 0,000 mm 0,0 UV-I 33 W/m 5,7 C 2,3 C 20,9 km/h (4 Bft) 100,00 %
28.10.2017 08:22 7,6 C 10,0 C 88 % 1021,7 hPa 0,0 l/m 16,5 km/h (3 Bft) W 262 0 min 0,000 mm 0,0 UV-I 33 W/m 5,7 C 1,6 C 27,4 km/h (4 Bft) 97,73 %
28.10.2017 08:24 7,6 C 10,0 C 88 % 1021,7 hPa 0,0 l/m 12,8 km/h (3 Bft) W-SW 257 0 min 0,000 mm 0,0 UV-I 32 W/m 5,7 C 3,3 C 20,9 km/h (4 Bft) 100,00 %
28.10.2017 08:26 7,6 C 10,0 C 87 % 1021,7 hPa 0,0 l/m 18,0 km/h (3 Bft) W-SW 239 0 min 0,000 mm 0,0 UV-I 32 W/m 5,6 C 0,9 C 29,0 km/h (5 Bft) 98,00 %
28.10.2017 08:28 7,6 C 10,0 C 87 % 1021,7 hPa 0,0 l/m 14,6 km/h (3 Bft) SW 229 0 min 0,000 mm 0,0 UV-I 33 W/m 5,6 C 2,4 C 22,5 km/h (4 Bft) 100,00 %
28.10.2017 08:30 7,7 C 10,0 C 87 % 1021,7 hPa 0,0 l/m 18,4 km/h (3 Bft) W-SW 250 0 min 0,000 mm 0,0 UV-I 34 W/m 5,7 C 0,9 C 30,6 km/h (5 Bft) 97,44 %
28.10.2017 08:32 7,7 C 10,0 C 87 % 1021,6 hPa 0,0 l/m 17,5 km/h (3 Bft) W 259 0 min 0,000 mm 0,0 UV-I 38 W/m 5,7 C 1,3 C 25,7 km/h (4 Bft) 98,11 %
28.10.2017 08:34 7,7 C 10,0 C 87 % 1021,6 hPa 0,0 l/m 16,3 km/h (3 Bft) W-SW 254 0 min 0,000 mm 0,0 UV-I 39 W/m 5,7 C 1,8 C 25,7 km/h (4 Bft) 100,00 %
28.10.2017 08:36 7,7 C 10,0 C 87 % 1021,6 hPa 0,0 l/m 17,3 km/h (3 Bft) W-NW 291 0 min 0,000 mm 0,0 UV-I 40 W/m 5,7 C 1,3 C 25,7 km/h (4 Bft) 100,00 %
28.10.2017 08:38 7,7 C 10,0 C 87 % 1021,6 hPa 0,0 l/m 15,2 km/h (3 Bft) W-SW 252 0 min 0,000 mm 0,0 UV-I 42 W/m 5,7 C 2,3 C 29,0 km/h (5 Bft) 100,00 %
28.10.2017 08:40 7,8 C 10,0 C 87 % 1021,8 hPa 0,0 l/m 17,7 km/h (3 Bft) W-SW 239 0 min 0,000 mm 0,0 UV-I 45 W/m 5,8 C 1,3 C 25,7 km/h (4 Bft) 96,23 %
28.10.2017 08:42 7,8 C 10,0 C 87 % 1021,8 hPa 0,0 l/m 15,9 km/h (3 Bft) SW 234 0 min 0,000 mm 0,0 UV-I 48 W/m 5,8 C 2,1 C 22,5 km/h (4 Bft) 100,00 %
28.10.2017 08:44 7,8 C 10,0 C 87 % 1021,7 hPa 0,0 l/m 16,0 km/h (3 Bft) W-SW 258 0 min 0,000 mm 0,0 UV-I 50 W/m 5,8 C 2,0 C 22,5 km/h (4 Bft) 97,37 %
28.10.2017 08:46 7,8 C 10,0 C 87 % 1021,8 hPa 0,0 l/m 15,5 km/h (3 Bft) W-SW 242 0 min 0,000 mm 0,0 UV-I 50 W/m 5,8 C 2,2 C 30,6 km/h (5 Bft) 100,00 %
28.10.2017 08:48 7,8 C 10,0 C 87 % 1021,9 hPa 0,0 l/m 20,7 km/h (4 Bft) W 271 0 min 0,000 mm 0,0 UV-I 51 W/m 5,8 C 0,2 C 32,2 km/h (5 Bft) 100,00 %
28.10.2017 08:50 7,9 C 10,0 C 87 % 1022,0 hPa 0,0 l/m 19,0 km/h (3 Bft) W-SW 251 0 min 0,000 mm 0,0 UV-I 50 W/m 5,9 C 0,9 C 30,6 km/h (5 Bft) 100,00 %
28.10.2017 08:52 7,9 C 10,0 C 87 % 1022,0 hPa 0,0 l/m 16,3 km/h (3 Bft) SW 233 0 min 0,000 mm 0,0 UV-I 50 W/m 5,9 C 2,0 C 25,7 km/h (4 Bft) 100,00 %
28.10.2017 08:54 7,9 C 10,0 C 87 % 1022,0 hPa 0,0 l/m 15,7 km/h (3 Bft) W-SW 244 0 min 0,000 mm 0,0 UV-I 55 W/m 5,9 C 2,3 C 22,5 km/h (4 Bft) 100,00 %
28.10.2017 08:56 7,9 C 10,0 C 86 % 1022,0 hPa 0,0 l/m 18,0 km/h (3 Bft) W 259 0 min 0,000 mm 0,0 UV-I 63 W/m 5,7 C 1,3 C 27,4 km/h (4 Bft) 100,00 %
28.10.2017 08:58 8,0 C 10,0 C 86 % 1022,1 hPa 0,0 l/m 14,6 km/h (3 Bft) SW 214 0 min 0,000 mm 0,0 UV-I 61 W/m 5,8 C 2,9 C 20,9 km/h (4 Bft) 100,00 %
28.10.2017 09:00 8,0 C 10,0 C 86 % 1021,9 hPa 0,0 l/m 17,2 km/h (3 Bft) W-SW 255 0 min 0,026 mm 0,0 UV-I 62 W/m 5,8 C 1,8 C 27,4 km/h (4 Bft) 100,00 %
28.10.2017 09:02 8,0 C 10,0 C 86 % 1021,9 hPa 0,0 l/m 15,9 km/h (3 Bft) W-SW 250 0 min 0,000 mm 0,0 UV-I 69 W/m 5,8 C 2,3 C 22,5 km/h (4 Bft) 98,21 %
28.10.2017 09:04 8,1 C 10,0 C 86 % 1021,9 hPa 0,0 l/m 15,3 km/h (3 Bft) W 260 0 min 0,000 mm 0,0 UV-I 73 W/m 5,9 C 2,7 C 22,5 km/h (4 Bft) 100,00 %
28.10.2017 09:06 8,1 C 10,0 C 86 % 1021,9 hPa 0,0 l/m 17,6 km/h (3 Bft) S-SW 212 0 min 0,000 mm 0,0 UV-I 78 W/m 5,9 C 1,7 C 27,4 km/h (4 Bft) 98,11 %
28.10.2017 09:08 8,1 C 10,0 C 86 % 1021,9 hPa 0,0 l/m 19,0 km/h (3 Bft) SW 219 0 min 0,000 mm 0,0 UV-I 80 W/m 5,9 C 1,2 C 22,5 km/h (4 Bft) 100,00 %
28.10.2017 09:10 8,2 C 10,0 C 86 % 1021,8 hPa 0,0 l/m 20,7 km/h (4 Bft) W-SW 249 0 min 0,000 mm 0,0 UV-I 82 W/m 6,0 C 0,7 C 30,6 km/h (5 Bft) 100,00 %
28.10.2017 09:12 8,2 C 10,0 C 86 % 1021,7 hPa 0,0 l/m 16,9 km/h (3 Bft) W 274 0 min 0,000 mm 0,0 UV-I 83 W/m 6,0 C 2,1 C 24,1 km/h (4 Bft) 98,31 %
28.10.2017 09:14 8,2 C 10,0 C 86 % 1021,7 hPa 0,0 l/m 18,2 km/h (3 Bft) W-SW 250 0 min 0,000 mm 0,0 UV-I 82 W/m 6,0 C 1,6 C 27,4 km/h (4 Bft) 100,00 %
28.10.2017 09:16 8,2 C 10,0 C 86 % 1021,8 hPa 0,0 l/m 15,6 km/h (3 Bft) W 259 0 min 0,000 mm 0,0 UV-I 79 W/m 6,0 C 2,7 C 22,5 km/h (4 Bft) 100,00 %
28.10.2017 09:18 8,3 C 10,0 C 86 % 1021,8 hPa 0,0 l/m 18,9 km/h (3 Bft) W 261 0 min 0,000 mm 0,0 UV-I 78 W/m 6,1 C 1,5 C 24,1 km/h (4 Bft) 100,00 %
28.10.2017 09:20 8,3 C 10,0 C 86 % 1021,7 hPa 0,0 l/m 18,3 km/h (3 Bft) W 265 0 min 0,000 mm 0,0 UV-I 84 W/m 6,1 C 1,7 C 24,1 km/h (4 Bft) 100,00 %
28.10.2017 09:22 8,3 C 10,0 C 86 % 1021,7 hPa 0,0 l/m 17,5 km/h (3 Bft) W 273 0 min 0,000 mm 0,0 UV-I 86 W/m 6,1 C 2,0 C 27,4 km/h (4 Bft) 98,53 %
28.10.2017 09:24 8,3 C 10,0 C 85 % 1021,7 hPa 0,0 l/m 17,1 km/h (3 Bft) SW 215 0 min 0,000 mm 0,0 UV-I 89 W/m 5,9 C 2,2 C 24,1 km/h (4 Bft) 97,56 %
28.10.2017 09:26 8,3 C 10,0 C 85 % 1021,6 hPa 0,0 l/m 13,8 km/h (3 Bft) W 267 0 min 0,000 mm 0,0 UV-I 89 W/m 5,9 C 3,6 C 19,3 km/h (3 Bft) 98,00 %
28.10.2017 09:28 8,3 C 10,0 C 85 % 1021,7 hPa 0,0 l/m 16,5 km/h (3 Bft) W-NW 300 0 min 0,000 mm 0,0 UV-I 86 W/m 5,9 C 2,4 C 22,5 km/h (4 Bft) 97,56 %
28.10.2017 09:30 8,4 C 10,0 C 85 % 1021,6 hPa 0,0 l/m 15,2 km/h (3 Bft) W-SW 237 0 min 0,000 mm 0,0 UV-I 82 W/m 6,0 C 3,1 C 24,1 km/h (4 Bft) 98,11 %
28.10.2017 09:32 8,4 C 10,0 C 85 % 1021,6 hPa 0,0 l/m 19,2 km/h (3 Bft) SW 223 0 min 0,000 mm 0,0 UV-I 78 W/m 6,0 C 1,5 C 30,6 km/h (5 Bft) 95,12 %
28.10.2017 09:34 8,4 C 10,0 C 85 % 1021,6 hPa 0,0 l/m 16,9 km/h (3 Bft) W-SW 244 0 min 0,000 mm 0,0 UV-I 76 W/m 6,0 C 2,4 C 24,1 km/h (4 Bft) 94,34 %
28.10.2017 09:36 8,4 C 10,0 C 85 % 1021,5 hPa 0,0 l/m 19,0 km/h (3 Bft) W 267 0 min 0,000 mm 0,0 UV-I 70 W/m 6,0 C 1,6 C 27,4 km/h (4 Bft) 96,00 %
28.10.2017 09:38 8,4 C 10,0 C 85 % 1021,5 hPa 0,0 l/m 18,3 km/h (3 Bft) W-SW 254 0 min 0,000 mm 0,0 UV-I 66 W/m 6,0 C 1,8 C 25,7 km/h (4 Bft) 95,12 %
28.10.2017 09:40 8,4 C 10,0 C 85 % 1021,5 hPa 0,0 l/m 19,0 km/h (3 Bft) W-SW 250 0 min 0,000 mm 0,0 UV-I 61 W/m 6,0 C 1,6 C 27,4 km/h (4 Bft) 96,00 %
28.10.2017 09:42 8,4 C 10,0 C 85 % 1021,4 hPa 0,0 l/m 22,9 km/h (4 Bft) W 267 0 min 0,000 mm 0,0 UV-I 59 W/m 6,0 C 0,3 C 32,2 km/h (5 Bft) 95,12 %
28.10.2017 09:44 8,4 C 10,0 C 85 % 1021,5 hPa 0,0 l/m 20,4 km/h (4 Bft) W-SW 237 0 min 0,000 mm 0,0 UV-I 62 W/m 6,0 C 1,1 C 30,6 km/h (5 Bft) 95,45 %
28.10.2017 09:46 8,4 C 10,0 C 84 % 1021,5 hPa 0,0 l/m 17,5 km/h (3 Bft) W-SW 240 0 min 0,000 mm 0,0 UV-I 52 W/m 5,9 C 2,1 C 30,6 km/h (5 Bft) 92,86 %
28.10.2017 09:48 8,4 C 10,0 C 85 % 1021,4 hPa 0,0 l/m 19,8 km/h (3 Bft) W-SW 244 0 min 0,000 mm 0,0 UV-I 47 W/m 6,0 C 1,3 C 29,0 km/h (5 Bft) 95,24 %
28.10.2017 09:50 8,4 C 10,0 C 84 % 1021,4 hPa 0,0 l/m 21,7 km/h (4 Bft) W 263 0 min 0,000 mm 0,0 UV-I 44 W/m 5,9 C 0,7 C 38,6 km/h (5 Bft) 94,00 %
28.10.2017 09:52 8,4 C 10,0 C 84 % 1021,5 hPa 0,2 l/m 25,3 km/h (4 Bft) W 272 0 min 0,000 mm 0,0 UV-I 43 W/m 5,9 C -0,4 C 38,6 km/h (5 Bft) 96,00 %
28.10.2017 09:54 8,4 C 10,0 C 84 % 1021,4 hPa 0,0 l/m 19,1 km/h (3 Bft) W-NW 286 0 min 0,000 mm 0,0 UV-I 44 W/m 5,9 C 1,5 C 27,4 km/h (4 Bft) 95,74 %
28.10.2017 09:56 8,4 C 10,0 C 84 % 1021,4 hPa 0,0 l/m 19,2 km/h (3 Bft) W-NW 301 0 min 0,000 mm 0,0 UV-I 48 W/m 5,9 C 1,5 C 29,0 km/h (5 Bft) 94,74 %
28.10.2017 09:58 8,4 C 10,0 C 84 % 1021,5 hPa 0,0 l/m 19,1 km/h (3 Bft) W 280 0 min 0,000 mm 0,0 UV-I 48 W/m 5,9 C 1,5 C 29,0 km/h (5 Bft) 92,86 %
28.10.2017 10:00 8,4 C 10,0 C 84 % 1021,6 hPa 0,0 l/m 18,9 km/h (3 Bft) W-NW 298 0 min 0,050 mm 0,0 UV-I 47 W/m 5,9 C 1,6 C 27,4 km/h (4 Bft) 94,74 %
28.10.2017 10:02 8,4 C 10,0 C 84 % 1021,5 hPa 0,0 l/m 23,8 km/h (4 Bft) W-SW 248 0 min 0,000 mm 0,0 UV-I 47 W/m 5,9 C 0,0 C 37,0 km/h (5 Bft) 94,64 %
28.10.2017 10:04 8,4 C 10,0 C 84 % 1021,6 hPa 0,0 l/m 23,9 km/h (4 Bft) W-SW 256 0 min 0,000 mm 0,0 UV-I 53 W/m 5,9 C -0,0 C 32,2 km/h (5 Bft) 95,12 %
28.10.2017 10:06 8,4 C 10,0 C 84 % 1021,6 hPa 0,0 l/m 20,3 km/h (4 Bft) W 277 0 min 0,000 mm 0,0 UV-I 67 W/m 5,9 C 1,1 C 33,8 km/h (5 Bft) 92,45 %
28.10.2017 10:08 8,4 C 10,0 C 84 % 1021,5 hPa 0,0 l/m 18,8 km/h (3 Bft) SW 226 0 min 0,000 mm 0,0 UV-I 93 W/m 5,9 C 1,6 C 27,4 km/h (4 Bft) 97,37 %
28.10.2017 10:10 8,4 C 10,0 C 84 % 1021,5 hPa 0,0 l/m 17,0 km/h (3 Bft) W-SW 250 0 min 0,000 mm 0,0 UV-I 105 W/m 5,9 C 2,3 C 25,7 km/h (4 Bft) 91,49 %
28.10.2017 10:12 8,5 C 10,0 C 84 % 1021,5 hPa 0,0 l/m 21,1 km/h (4 Bft) SW 233 0 min 0,000 mm 0,0 UV-I 124 W/m 6,0 C 1,0 C 27,4 km/h (4 Bft) 98,00 %
28.10.2017 10:14 8,5 C 10,0 C 84 % 1021,5 hPa 0,0 l/m 16,3 km/h (3 Bft) W-SW 252 0 min 0,000 mm 0,0 UV-I 112 W/m 6,0 C 2,8 C 25,7 km/h (4 Bft) 98,00 %
28.10.2017 10:16 8,6 C 10,0 C 84 % 1021,6 hPa 0,0 l/m 16,1 km/h (3 Bft) W 270 0 min 0,000 mm 0,0 UV-I 128 W/m 6,1 C 3,0 C 24,1 km/h (4 Bft) 97,37 %
28.10.2017 10:18 8,6 C 10,0 C 84 % 1021,5 hPa 0,0 l/m 12,4 km/h (3 Bft) W-SW 250 0 min 0,000 mm 0,0 UV-I 121 W/m 6,1 C 4,7 C 17,7 km/h (3 Bft) 96,43 %
28.10.2017 10:20 8,7 C 10,0 C 84 % 1021,5 hPa 0,0 l/m 14,5 km/h (3 Bft) W-SW 243 0 min 0,000 mm 0,0 UV-I 115 W/m 6,2 C 3,8 C 20,9 km/h (4 Bft) 94,74 %
28.10.2017 10:22 8,7 C 10,0 C 84 % 1021,5 hPa 0,0 l/m 15,9 km/h (3 Bft) W-SW 238 0 min 0,000 mm 0,0 UV-I 98 W/m 6,2 C 3,2 C 24,1 km/h (4 Bft) 96,00 %
28.10.2017 10:24 8,7 C 10,0 C 83 % 1021,5 hPa 0,0 l/m 23,3 km/h (4 Bft) W-SW 250 0 min 0,000 mm 0,0 UV-I 79 W/m 6,0 C 0,6 C 38,6 km/h (5 Bft) 98,00 %
28.10.2017 10:26 8,7 C 10,0 C 83 % 1021,5 hPa 0,0 l/m 15,6 km/h (3 Bft) W-NW 286 0 min 0,000 mm 0,0 UV-I 56 W/m 6,0 C 3,3 C 25,7 km/h (4 Bft) 97,87 %
28.10.2017 10:28 8,7 C 10,0 C 83 % 1021,5 hPa 0,0 l/m 16,0 km/h (3 Bft) W-SW 238 0 min 0,000 mm 0,0 UV-I 59 W/m 6,0 C 3,1 C 25,7 km/h (4 Bft) 95,24 %
28.10.2017 10:30 8,7 C 10,0 C 83 % 1021,5 hPa 0,0 l/m 18,0 km/h (3 Bft) W-SW 254 0 min 0,000 mm 0,0 UV-I 63 W/m 6,0 C 2,3 C 38,6 km/h (5 Bft) 97,87 %
28.10.2017 10:32 8,7 C 10,0 C 83 % 1021,5 hPa 0,0 l/m 14,0 km/h (3 Bft) W 273 0 min 0,000 mm 0,0 UV-I 68 W/m 6,0 C 4,0 C 20,9 km/h (4 Bft) 100,00 %
28.10.2017 10:34 8,7 C 10,0 C 83 % 1021,4 hPa 0,0 l/m 25,1 km/h (4 Bft) SW 228 0 min 0,000 mm 0,0 UV-I 73 W/m 6,0 C 0,0 C 38,6 km/h (5 Bft) 98,63 %
28.10.2017 10:36 8,7 C 10,0 C 83 % 1021,4 hPa 0,0 l/m 21,9 km/h (4 Bft) W-SW 254 0 min 0,000 mm 0,0 UV-I 80 W/m 6,0 C 1,0 C 32,2 km/h (5 Bft) 100,00 %
28.10.2017 10:38 8,7 C 10,0 C 83 % 1021,4 hPa 0,0 l/m 20,4 km/h (4 Bft) W 260 0 min 0,000 mm 0,0 UV-I 82 W/m 6,0 C 1,5 C 32,2 km/h (5 Bft) 100,00 %
28.10.2017 10:40 8,7 C 10,0 C 82 % 1021,3 hPa 0,0 l/m 28,7 km/h (4 Bft) W-SW 247 0 min 0,000 mm 0,1 UV-I 101 W/m 5,8 C -0,9 C 40,2 km/h (6 Bft) 97,56 %
28.10.2017 10:42 8,7 C 10,0 C 82 % 1021,3 hPa 0,0 l/m 16,4 km/h (3 Bft) W-SW 242 0 min 0,000 mm 0,5 UV-I 135 W/m 5,8 C 3,0 C 20,9 km/h (4 Bft) 100,00 %
28.10.2017 10:44 8,7 C 10,0 C 82 % 1021,3 hPa 0,0 l/m 19,5 km/h (3 Bft) W 261 0 min 0,000 mm 0,6 UV-I 162 W/m 5,8 C 1,8 C 24,1 km/h (4 Bft) 100,00 %
28.10.2017 10:46 8,7 C 10,0 C 82 % 1021,2 hPa 0,0 l/m 21,3 km/h (4 Bft) W-SW 240 0 min 0,000 mm 0,6 UV-I 161 W/m 5,8 C 1,2 C 33,8 km/h (5 Bft) 100,00 %
28.10.2017 10:48 8,8 C 10,0 C 82 % 1021,3 hPa 0,0 l/m 18,6 km/h (3 Bft) W 259 0 min 0,000 mm 0,6 UV-I 172 W/m 5,9 C 2,2 C 30,6 km/h (5 Bft) 100,00 %
28.10.2017 10:50 8,8 C 10,0 C 82 % 1021,2 hPa 0,0 l/m 27,0 km/h (4 Bft) W-SW 257 0 min 0,000 mm 0,6 UV-I 173 W/m 5,9 C -0,3 C 41,8 km/h (6 Bft) 100,00 %
28.10.2017 10:52 8,8 C 10,0 C 81 % 1021,2 hPa 0,0 l/m 23,6 km/h (4 Bft) W-SW 238 0 min 0,000 mm 0,5 UV-I 133 W/m 5,7 C 0,6 C 40,2 km/h (6 Bft) 100,00 %
28.10.2017 10:54 8,8 C 10,0 C 81 % 1021,2 hPa 0,0 l/m 23,4 km/h (4 Bft) W 273 0 min 0,000 mm 0,3 UV-I 100 W/m 5,7 C 0,7 C 33,8 km/h (5 Bft) 100,00 %
28.10.2017 10:56 8,8 C 10,0 C 81 % 1021,2 hPa 0,0 l/m 18,4 km/h (3 Bft) W-SW 253 0 min 0,000 mm 0,0 UV-I 84 W/m 5,7 C 2,3 C 29,0 km/h (5 Bft) 100,00 %
28.10.2017 10:58 8,8 C 10,0 C 81 % 1021,2 hPa 0,0 l/m 21,1 km/h (4 Bft) W 260 0 min 0,000 mm 0,4 UV-I 100 W/m 5,7 C 1,4 C 33,8 km/h (5 Bft) 98,00 %
28.10.2017 11:00 8,7 C 10,0 C 82 % 1021,1 hPa 0,0 l/m 24,5 km/h (4 Bft) W 269 0 min 0,077 mm 0,5 UV-I 107 W/m 5,8 C 0,2 C 41,8 km/h (6 Bft) 97,37 %
28.10.2017 11:02 8,7 C 10,0 C 81 % 1021,2 hPa 0,0 l/m 26,2 km/h (4 Bft) W 268 0 min 0,000 mm 0,5 UV-I 110 W/m 5,6 C -0,3 C 40,2 km/h (6 Bft) 100,00 %
28.10.2017 11:04 8,7 C 10,0 C 81 % 1021,2 hPa 0,0 l/m 23,0 km/h (4 Bft) W-SW 257 0 min 0,000 mm 0,6 UV-I 147 W/m 5,6 C 0,6 C 43,5 km/h (6 Bft) 100,00 %
28.10.2017 11:06 8,7 C 10,0 C 81 % 1021,1 hPa 0,0 l/m 24,1 km/h (4 Bft) W 260 0 min 0,000 mm 0,6 UV-I 153 W/m 5,6 C 0,3 C 37,0 km/h (5 Bft) 100,00 %
28.10.2017 11:08 8,8 C 10,0 C 81 % 1021,1 hPa 0,0 l/m 19,1 km/h (3 Bft) W-SW 240 0 min 0,000 mm 0,7 UV-I 166 W/m 5,7 C 2,1 C 27,4 km/h (4 Bft) 100,00 %
28.10.2017 11:10 8,8 C 10,0 C 81 % 1021,1 hPa 0,0 l/m 15,6 km/h (3 Bft) W 277 0 min 0,000 mm 0,7 UV-I 175 W/m 5,7 C 3,4 C 25,7 km/h (4 Bft) 97,44 %
28.10.2017 11:12 8,9 C 10,0 C 81 % 1021,1 hPa 0,0 l/m 21,0 km/h (4 Bft) W-SW 253 0 min 0,000 mm 0,6 UV-I 160 W/m 5,8 C 1,5 C 33,8 km/h (5 Bft) 100,00 %
28.10.2017 11:14 8,9 C 10,0 C 81 % 1021,0 hPa 0,0 l/m 18,9 km/h (3 Bft) W-NW 300 0 min 0,000 mm 0,6 UV-I 171 W/m 5,8 C 2,3 C 32,2 km/h (5 Bft) 100,00 %
28.10.2017 11:16 8,9 C 10,0 C 81 % 1021,0 hPa 0,0 l/m 19,5 km/h (3 Bft) W 266 0 min 0,000 mm 0,7 UV-I 194 W/m 5,8 C 2,0 C 32,2 km/h (5 Bft) 100,00 %
28.10.2017 11:18 8,9 C 10,0 C 80 % 1021,0 hPa 0,0 l/m 22,8 km/h (4 Bft) W 259 0 min 0,000 mm 0,6 UV-I 168 W/m 5,6 C 1,0 C 35,4 km/h (5 Bft) 100,00 %
28.10.2017 11:20 8,9 C 10,0 C 80 % 1020,9 hPa 0,0 l/m 17,4 km/h (3 Bft) W-SW 249 0 min 0,000 mm 0,6 UV-I 164 W/m 5,6 C 2,8 C 30,6 km/h (5 Bft) 100,00 %
28.10.2017 11:22 9,0 C 10,0 C 80 % 1020,9 hPa 0,0 l/m 23,2 km/h (4 Bft) W-SW 244 0 min 0,000 mm 0,7 UV-I 177 W/m 5,7 C 1,0 C 38,6 km/h (5 Bft) 97,87 %
28.10.2017 11:24 9,1 C 10,0 C 80 % 1021,0 hPa 0,0 l/m 19,4 km/h (3 Bft) W-SW 250 0 min 0,000 mm 0,8 UV-I 187 W/m 5,8 C 2,3 C 32,2 km/h (5 Bft) 100,00 %
28.10.2017 11:26 9,1 C 10,0 C 80 % 1020,9 hPa 0,0 l/m 22,1 km/h (4 Bft) SW 227 0 min 0,000 mm 0,7 UV-I 172 W/m 5,8 C 1,4 C 37,0 km/h (5 Bft) 98,00 %
28.10.2017 11:28 9,1 C 10,0 C 80 % 1020,9 hPa 0,0 l/m 22,7 km/h (4 Bft) W-SW 255 0 min 0,000 mm 0,7 UV-I 160 W/m 5,8 C 1,3 C 30,6 km/h (5 Bft) 100,00 %
28.10.2017 11:30 9,1 C 10,0 C 80 % 1020,8 hPa 0,0 l/m 19,0 km/h (3 Bft) W-SW 249 0 min 0,000 mm 0,6 UV-I 135 W/m 5,8 C 2,5 C 27,4 km/h (4 Bft) 97,37 %
28.10.2017 11:32 9,1 C 10,0 C 80 % 1020,9 hPa 0,0 l/m 27,3 km/h (4 Bft) W-SW 249 0 min 0,000 mm 0,6 UV-I 141 W/m 5,8 C 0,0 C 37,0 km/h (5 Bft) 98,00 %
28.10.2017 11:34 9,1 C 10,0 C 80 % 1020,8 hPa 0,0 l/m 25,7 km/h (4 Bft) SW 234 0 min 0,000 mm 0,7 UV-I 146 W/m 5,8 C 0,4 C 46,7 km/h (6 Bft) 98,00 %
28.10.2017 11:36 9,1 C 10,0 C 79 % 1020,9 hPa 0,0 l/m 21,8 km/h (4 Bft) W-SW 250 0 min 0,000 mm 0,7 UV-I 145 W/m 5,7 C 1,5 C 30,6 km/h (5 Bft) 97,87 %
28.10.2017 11:38 9,1 C 10,0 C 80 % 1020,9 hPa 0,0 l/m 25,0 km/h (4 Bft) W 269 0 min 0,000 mm 0,7 UV-I 140 W/m 5,8 C 0,6 C 49,9 km/h (6 Bft) 97,56 %
28.10.2017 11:40 9,1 C 10,0 C 79 % 1020,8 hPa 0,0 l/m 27,1 km/h (4 Bft) SW 235 0 min 0,000 mm 0,7 UV-I 135 W/m 5,7 C 0,1 C 40,2 km/h (6 Bft) 96,23 %
28.10.2017 11:42 9,1 C 10,0 C 79 % 1021,0 hPa 0,0 l/m 23,7 km/h (4 Bft) W-SW 253 0 min 0,000 mm 0,7 UV-I 140 W/m 5,7 C 1,0 C 37,0 km/h (5 Bft) 97,37 %
28.10.2017 11:44 9,1 C 10,0 C 79 % 1020,8 hPa 0,0 l/m 23,6 km/h (4 Bft) W 268 0 min 0,000 mm 0,7 UV-I 128 W/m 5,7 C 1,0 C 37,0 km/h (5 Bft) 97,78 %
28.10.2017 11:46 9,1 C 10,0 C 79 % 1020,7 hPa 0,0 l/m 16,1 km/h (3 Bft) W 263 0 min 0,000 mm 0,7 UV-I 128 W/m 5,7 C 3,6 C 20,9 km/h (4 Bft) 98,11 %
28.10.2017 11:48 9,1 C 10,0 C 80 % 1020,7 hPa 0,0 l/m 17,9 km/h (3 Bft) W-SW 240 0 min 0,000 mm 0,9 UV-I 172 W/m 5,8 C 2,9 C 27,4 km/h (4 Bft) 96,15 %
28.10.2017 11:50 9,1 C 10,0 C 80 % 1020,6 hPa 0,0 l/m 18,1 km/h (3 Bft) W-SW 247 0 min 0,000 mm 0,9 UV-I 205 W/m 5,8 C 2,8 C 25,7 km/h (4 Bft) 100,00 %
28.10.2017 11:52 9,2 C 10,0 C 80 % 1020,5 hPa 0,0 l/m 21,0 km/h (4 Bft) W-SW 246 0 min 0,000 mm 0,9 UV-I 191 W/m 5,9 C 1,9 C 29,0 km/h (5 Bft) 95,74 %
28.10.2017 11:54 9,3 C 10,0 C 80 % 1020,4 hPa 0,0 l/m 18,5 km/h (3 Bft) W 273 0 min 0,000 mm 1,1 UV-I 219 W/m 6,0 C 2,9 C 30,6 km/h (5 Bft) 98,31 %
28.10.2017 11:56 9,3 C 10,0 C 79 % 1020,4 hPa 0,0 l/m 17,8 km/h (3 Bft) SW 221 2 min 0,000 mm 1,2 UV-I 271 W/m 5,8 C 3,2 C 35,4 km/h (5 Bft) 97,56 %
28.10.2017 11:58 9,4 C 10,0 C 79 % 1020,4 hPa 0,0 l/m 20,8 km/h (4 Bft) W 262 2 min 0,000 mm 1,1 UV-I 260 W/m 5,9 C 2,2 C 37,0 km/h (5 Bft) 98,11 %
28.10.2017 12:00 9,4 C 10,0 C 78 % 1020,4 hPa 0,0 l/m 26,9 km/h (4 Bft) W-SW 250 0 min 0,127 mm 1,0 UV-I 230 W/m 5,8 C 0,5 C 37,0 km/h (5 Bft) 97,87 %
28.10.2017 12:02 9,5 C 10,0 C 78 % 1020,3 hPa 0,0 l/m 20,9 km/h (4 Bft) W-NW 290 0 min 0,000 mm 1,0 UV-I 219 W/m 5,9 C 2,3 C 30,6 km/h (5 Bft) 97,73 %
28.10.2017 12:04 9,5 C 10,0 C 79 % 1020,3 hPa 0,0 l/m 23,8 km/h (4 Bft) W-NW 288 0 min 0,000 mm 1,0 UV-I 220 W/m 6,0 C 1,5 C 35,4 km/h (5 Bft) 97,87 %
28.10.2017 12:06 9,5 C 10,0 C 78 % 1020,3 hPa 0,0 l/m 20,4 km/h (4 Bft) W 259 0 min 0,000 mm 1,0 UV-I 210 W/m 5,9 C 2,5 C 30,6 km/h (5 Bft) 97,37 %
28.10.2017 12:08 9,5 C 10,0 C 78 % 1020,2 hPa 0,0 l/m 26,2 km/h (4 Bft) W-SW 250 0 min 0,000 mm 0,8 UV-I 196 W/m 5,9 C 0,8 C 45,1 km/h (6 Bft) 98,21 %
28.10.2017 12:10 9,4 C 10,0 C 78 % 1020,2 hPa 0,0 l/m 20,6 km/h (4 Bft) W-NW 292 0 min 0,000 mm 0,7 UV-I 175 W/m 5,8 C 2,3 C 33,8 km/h (5 Bft) 100,00 %
28.10.2017 12:12 9,4 C 10,0 C 78 % 1020,3 hPa 0,0 l/m 17,9 km/h (3 Bft) W-SW 255 0 min 0,000 mm 0,2 UV-I 114 W/m 5,8 C 3,2 C 25,7 km/h (4 Bft) 100,00 %
28.10.2017 12:14 9,4 C 10,0 C 78 % 1020,3 hPa 0,0 l/m 21,9 km/h (4 Bft) W-NW 293 0 min 0,000 mm 0,0 UV-I 62 W/m 5,8 C 1,9 C 30,6 km/h (5 Bft) 100,00 %
28.10.2017 12:16 9,3 C 10,0 C 78 % 1020,3 hPa 0,0 l/m 20,5 km/h (4 Bft) NW 304 0 min 0,000 mm 0,0 UV-I 54 W/m 5,7 C 2,2 C 33,8 km/h (5 Bft) 100,00 %
28.10.2017 12:18 9,3 C 10,0 C 78 % 1020,2 hPa 0,0 l/m 25,6 km/h (4 Bft) W-SW 250 0 min 0,000 mm 0,0 UV-I 56 W/m 5,7 C 0,7 C 40,2 km/h (6 Bft) 98,00 %
28.10.2017 12:20 9,2 C 10,0 C 78 % 1020,1 hPa 0,0 l/m 20,2 km/h (4 Bft) W 264 0 min 0,000 mm 0,0 UV-I 77 W/m 5,6 C 2,2 C 29,0 km/h (5 Bft) 100,00 %
28.10.2017 12:22 9,2 C 10,0 C 78 % 1020,1 hPa 0,0 l/m 23,0 km/h (4 Bft) W-SW 257 0 min 0,000 mm 0,0 UV-I 78 W/m 5,6 C 1,3 C 30,6 km/h (5 Bft) 100,00 %
28.10.2017 12:24 9,2 C 10,0 C 78 % 1020,1 hPa 0,0 l/m 19,6 km/h (3 Bft) W 261 0 min 0,000 mm 0,3 UV-I 120 W/m 5,6 C 2,4 C 30,6 km/h (5 Bft) 97,56 %
28.10.2017 12:26 9,2 C 10,0 C 78 % 1020,1 hPa 0,0 l/m 16,4 km/h (3 Bft) W 267 0 min 0,000 mm 0,7 UV-I 171 W/m 5,6 C 3,6 C 22,5 km/h (4 Bft) 100,00 %
28.10.2017 12:28 9,2 C 10,0 C 79 % 1020,1 hPa 0,0 l/m 15,2 km/h (3 Bft) SW 235 0 min 0,000 mm 0,8 UV-I 194 W/m 5,8 C 4,1 C 25,7 km/h (4 Bft) 100,00 %
28.10.2017 12:30 9,2 C 10,0 C 78 % 1020,1 hPa 0,0 l/m 24,7 km/h (4 Bft) W 273 0 min 0,000 mm 0,5 UV-I 130 W/m 5,6 C 0,8 C 35,4 km/h (5 Bft) 100,00 %
28.10.2017 12:32 9,2 C 10,0 C 78 % 1020,1 hPa 0,0 l/m 20,7 km/h (4 Bft) SW 232 0 min 0,000 mm 0,0 UV-I 70 W/m 5,6 C 2,0 C 32,2 km/h (5 Bft) 97,56 %
28.10.2017 12:34 9,2 C 10,0 C 78 % 1020,2 hPa 0,0 l/m 16,1 km/h (3 Bft) W 272 0 min 0,000 mm 0,0 UV-I 55 W/m 5,6 C 3,7 C 25,7 km/h (4 Bft) 100,00 %
28.10.2017 12:36 9,2 C 10,0 C 78 % 1020,3 hPa 0,0 l/m 15,2 km/h (3 Bft) W-SW 251 0 min 0,000 mm 0,0 UV-I 37 W/m 5,6 C 4,1 C 22,5 km/h (4 Bft) 100,00 %
28.10.2017 12:38 9,2 C 10,0 C 79 % 1020,1 hPa 0,0 l/m 15,6 km/h (3 Bft) W 263 0 min 0,000 mm 0,0 UV-I 39 W/m 5,8 C 3,9 C 33,8 km/h (5 Bft) 100,00 %
28.10.2017 12:40 9,1 C 10,0 C 78 % 1020,1 hPa 0,0 l/m 19,5 km/h (3 Bft) W-NW 286 0 min 0,000 mm 0,0 UV-I 68 W/m 5,5 C 2,3 C 32,2 km/h (5 Bft) 96,43 %
28.10.2017 12:42 9,1 C 10,0 C 78 % 1020,1 hPa 0,0 l/m 21,1 km/h (4 Bft) W 271 0 min 0,000 mm 0,6 UV-I 131 W/m 5,5 C 1,8 C 32,2 km/h (5 Bft) 100,00 %
28.10.2017 12:44 9,1 C 10,0 C 78 % 1019,9 hPa 0,0 l/m 23,5 km/h (4 Bft) W 267 0 min 0,000 mm 0,4 UV-I 134 W/m 5,5 C 1,0 C 38,6 km/h (5 Bft) 98,00 %
28.10.2017 12:46 9,2 C 10,0 C 78 % 1019,8 hPa 0,0 l/m 15,2 km/h (3 Bft) W-SW 253 0 min 0,000 mm 0,0 UV-I 86 W/m 5,6 C 4,1 C 27,4 km/h (4 Bft) 100,00 %
28.10.2017 12:48 9,2 C 10,0 C 78 % 1019,8 hPa 0,0 l/m 18,6 km/h (3 Bft) W 271 0 min 0,000 mm 0,0 UV-I 53 W/m 5,6 C 2,7 C 30,6 km/h (5 Bft) 100,00 %
28.10.2017 12:50 9,1 C 10,0 C 78 % 1019,8 hPa 0,0 l/m 18,8 km/h (3 Bft) W-SW 240 0 min 0,000 mm 0,0 UV-I 36 W/m 5,5 C 2,5 C 32,2 km/h (5 Bft) 100,00 %
28.10.2017 12:52 9,1 C 10,0 C 78 % 1019,8 hPa 0,0 l/m 21,5 km/h (4 Bft) W-SW 252 0 min 0,000 mm 0,0 UV-I 32 W/m 5,5 C 1,6 C 30,6 km/h (5 Bft) 97,14 %
28.10.2017 12:54 9,1 C 10,0 C 78 % 1019,7 hPa 0,0 l/m 17,1 km/h (3 Bft) W-NW 288 0 min 0,000 mm 0,0 UV-I 35 W/m 5,5 C 3,2 C 25,7 km/h (4 Bft) 100,00 %
28.10.2017 12:56 9,1 C 10,0 C 78 % 1019,7 hPa 0,0 l/m 15,5 km/h (3 Bft) W-SW 253 0 min 0,000 mm 0,0 UV-I 31 W/m 5,5 C 3,8 C 27,4 km/h (4 Bft) 98,21 %
28.10.2017 12:58 9,0 C 10,0 C 78 % 1019,6 hPa 0,0 l/m 22,9 km/h (4 Bft) W 265 0 min 0,000 mm 0,0 UV-I 32 W/m 5,4 C 1,1 C 40,2 km/h (6 Bft) 97,73 %
28.10.2017 13:00 9,0 C 10,0 C 78 % 1019,5 hPa 0,0 l/m 17,6 km/h (3 Bft) N-NW 335 0 min 0,076 mm 0,0 UV-I 40 W/m 5,4 C 2,9 C 24,1 km/h (4 Bft) 100,00 %
28.10.2017 13:02 8,9 C 10,0 C 79 % 1019,5 hPa 0,0 l/m 18,6 km/h (3 Bft) W 280 0 min 0,000 mm 0,0 UV-I 52 W/m 5,5 C 2,4 C 29,0 km/h (5 Bft) 100,00 %
28.10.2017 13:04 8,9 C 10,0 C 79 % 1019,5 hPa 0,0 l/m 18,7 km/h (3 Bft) W-NW 287 0 min 0,000 mm 0,0 UV-I 60 W/m 5,5 C 2,3 C 33,8 km/h (5 Bft) 100,00 %
28.10.2017 13:06 8,9 C 10,0 C 78 % 1019,5 hPa 0,0 l/m 16,0 km/h (3 Bft) W 261 0 min 0,000 mm 0,0 UV-I 57 W/m 5,3 C 3,4 C 30,6 km/h (5 Bft) 100,00 %
28.10.2017 13:08 8,9 C 10,0 C 78 % 1019,4 hPa 0,0 l/m 19,6 km/h (3 Bft) W-NW 287 0 min 0,000 mm 0,0 UV-I 49 W/m 5,3 C 2,0 C 32,2 km/h (5 Bft) 100,00 %
28.10.2017 13:10 8,9 C 10,0 C 79 % 1019,4 hPa 0,0 l/m 19,6 km/h (3 Bft) W 261 0 min 0,000 mm 0,0 UV-I 37 W/m 5,5 C 2,0 C 30,6 km/h (5 Bft) 98,00 %
28.10.2017 13:12 8,9 C 10,0 C 79 % 1019,4 hPa 0,0 l/m 21,5 km/h (4 Bft) W 265 0 min 0,000 mm 0,0 UV-I 39 W/m 5,5 C 1,4 C 33,8 km/h (5 Bft) 100,00 %
28.10.2017 13:14 8,9 C 10,0 C 79 % 1019,3 hPa 0,0 l/m 19,4 km/h (3 Bft) W-SW 240 0 min 0,000 mm 0,0 UV-I 47 W/m 5,5 C 2,1 C 32,2 km/h (5 Bft) 100,00 %
28.10.2017 13:16 8,9 C 10,0 C 79 % 1019,2 hPa 0,0 l/m 16,6 km/h (3 Bft) W-SW 245 0 min 0,000 mm 0,0 UV-I 45 W/m 5,5 C 3,1 C 25,7 km/h (4 Bft) 100,00 %
28.10.2017 13:18 8,8 C 10,0 C 79 % 1019,3 hPa 0,0 l/m 17,6 km/h (3 Bft) W 279 0 min 0,000 mm 0,0 UV-I 48 W/m 5,4 C 2,6 C 29,0 km/h (5 Bft) 100,00 %
28.10.2017 13:20 8,8 C 10,0 C 79 % 1019,3 hPa 0,0 l/m 15,6 km/h (3 Bft) W-SW 242 0 min 0,000 mm 0,0 UV-I 59 W/m 5,4 C 3,4 C 25,7 km/h (4 Bft) 100,00 %
28.10.2017 13:22 8,8 C 10,0 C 79 % 1019,1 hPa 0,0 l/m 21,3 km/h (4 Bft) W 265 0 min 0,000 mm 0,0 UV-I 72 W/m 5,4 C 1,3 C 32,2 km/h (5 Bft) 100,00 %
28.10.2017 13:24 8,9 C 10,0 C 79 % 1019,0 hPa 0,0 l/m 17,6 km/h (3 Bft) W-NW 283 0 min 0,000 mm 0,1 UV-I 94 W/m 5,5 C 2,7 C 27,4 km/h (4 Bft) 100,00 %
28.10.2017 13:26 8,9 C 10,0 C 79 % 1019,0 hPa 0,0 l/m 18,9 km/h (3 Bft) W-NW 294 0 min 0,000 mm 0,7 UV-I 150 W/m 5,5 C 2,3 C 32,2 km/h (5 Bft) 97,73 %
28.10.2017 13:28 9,0 C 10,0 C 79 % 1019,0 hPa 0,0 l/m 20,6 km/h (4 Bft) W-SW 254 0 min 0,000 mm 0,9 UV-I 198 W/m 5,6 C 1,8 C 32,2 km/h (5 Bft) 98,21 %
28.10.2017 13:30 9,1 C 10,0 C 79 % 1019,1 hPa 0,0 l/m 18,5 km/h (3 Bft) W-SW 246 0 min 0,000 mm 0,7 UV-I 141 W/m 5,7 C 2,7 C 30,6 km/h (5 Bft) 97,37 %
28.10.2017 13:32 9,2 C 10,0 C 78 % 1019,0 hPa 0,0 l/m 23,6 km/h (4 Bft) W 264 0 min 0,000 mm 0,6 UV-I 138 W/m 5,6 C 1,1 C 30,6 km/h (5 Bft) 95,74 %
28.10.2017 13:34 9,2 C 10,0 C 78 % 1018,9 hPa 0,0 l/m 20,6 km/h (4 Bft) W-SW 249 0 min 0,000 mm 0,6 UV-I 130 W/m 5,6 C 2,1 C 29,0 km/h (5 Bft) 88,68 %
28.10.2017 13:36 9,2 C 10,0 C 77 % 1018,9 hPa 0,0 l/m 24,5 km/h (4 Bft) W-SW 248 0 min 0,000 mm 0,6 UV-I 115 W/m 5,4 C 0,9 C 35,4 km/h (5 Bft) 96,00 %
28.10.2017 13:38 9,3 C 10,0 C 76 % 1018,8 hPa 0,0 l/m 29,8 km/h (5 Bft) W-SW 240 0 min 0,000 mm 0,6 UV-I 109 W/m 5,3 C -0,3 C 41,8 km/h (6 Bft) 94,74 %
28.10.2017 13:40 9,3 C 10,0 C 76 % 1018,9 hPa 0,0 l/m 25,3 km/h (4 Bft) W-SW 252 0 min 0,000 mm 0,6 UV-I 116 W/m 5,3 C 0,8 C 40,2 km/h (6 Bft) 96,23 %
28.10.2017 13:42 9,3 C 10,0 C 76 % 1018,8 hPa 0,0 l/m 21,7 km/h (4 Bft) SW 231 0 min 0,000 mm 0,6 UV-I 130 W/m 5,3 C 1,8 C 37,0 km/h (5 Bft) 95,45 %
28.10.2017 13:44 9,3 C 10,0 C 76 % 1018,7 hPa 0,0 l/m 26,1 km/h (4 Bft) W-NW 303 0 min 0,000 mm 0,6 UV-I 132 W/m 5,3 C 0,6 C 38,6 km/h (5 Bft) 95,74 %
28.10.2017 13:46 9,4 C 10,0 C 76 % 1018,7 hPa 0,0 l/m 21,1 km/h (4 Bft) W 278 0 min 0,000 mm 0,8 UV-I 155 W/m 5,4 C 2,2 C 32,2 km/h (5 Bft) 94,00 %
28.10.2017 13:48 9,4 C 10,0 C 76 % 1018,8 hPa 0,0 l/m 19,4 km/h (3 Bft) W-SW 242 0 min 0,000 mm 0,8 UV-I 163 W/m 5,4 C 2,7 C 27,4 km/h (4 Bft) 94,87 %
28.10.2017 13:50 9,4 C 10,0 C 76 % 1018,7 hPa 0,0 l/m 23,1 km/h (4 Bft) W 259 0 min 0,000 mm 0,8 UV-I 178 W/m 5,4 C 1,5 C 30,6 km/h (5 Bft) 94,34 %
28.10.2017 13:52 9,5 C 10,0 C 76 % 1018,6 hPa 0,0 l/m 21,2 km/h (4 Bft) W-SW 257 0 min 0,000 mm 0,9 UV-I 207 W/m 5,5 C 2,3 C 37,0 km/h (5 Bft) 95,12 %
28.10.2017 13:54 9,6 C 10,0 C 75 % 1018,6 hPa 0,0 l/m 20,4 km/h (4 Bft) W-SW 250 0 min 0,000 mm 0,8 UV-I 181 W/m 5,4 C 2,6 C 29,0 km/h (5 Bft) 95,45 %
28.10.2017 13:56 9,6 C 10,0 C 76 % 1018,7 hPa 0,0 l/m 21,4 km/h (4 Bft) SW 219 0 min 0,000 mm 0,7 UV-I 156 W/m 5,6 C 2,3 C 29,0 km/h (5 Bft) 94,92 %
28.10.2017 13:58 9,6 C 10,0 C 75 % 1018,5 hPa 0,0 l/m 25,0 km/h (4 Bft) W-SW 247 0 min 0,000 mm 0,6 UV-I 141 W/m 5,4 C 1,3 C 35,4 km/h (5 Bft) 94,74 %
28.10.2017 14:00 9,6 C 10,0 C 74 % 1018,4 hPa 0,0 l/m 23,4 km/h (4 Bft) W-SW 247 0 min 0,000 mm 0,6 UV-I 134 W/m 5,2 C 1,7 C 33,8 km/h (5 Bft) 95,45 %
28.10.2017 14:02 9,6 C 10,0 C 74 % 1018,5 hPa 0,0 l/m 22,7 km/h (4 Bft) W-SW 250 0 min 0,101 mm 0,3 UV-I 117 W/m 5,2 C 1,9 C 43,5 km/h (6 Bft) 96,61 %
28.10.2017 14:04 9,6 C 10,0 C 74 % 1018,5 hPa 0,0 l/m 18,4 km/h (3 Bft) W-SW 258 0 min 0,000 mm 0,0 UV-I 88 W/m 5,2 C 3,3 C 25,7 km/h (4 Bft) 95,12 %
28.10.2017 14:06 9,6 C 10,0 C 75 % 1018,3 hPa 0,0 l/m 18,5 km/h (3 Bft) W-SW 238 0 min 0,000 mm 0,0 UV-I 74 W/m 5,4 C 3,3 C 32,2 km/h (5 Bft) 98,00 %
28.10.2017 14:08 9,6 C 10,0 C 74 % 1018,1 hPa 0,0 l/m 24,5 km/h (4 Bft) W 279 0 min 0,000 mm 0,0 UV-I 76 W/m 5,2 C 1,4 C 35,4 km/h (5 Bft) 97,56 %
28.10.2017 14:10 9,6 C 10,0 C 74 % 1018,1 hPa 0,0 l/m 20,9 km/h (4 Bft) W-SW 245 0 min 0,000 mm 0,0 UV-I 87 W/m 5,2 C 2,5 C 32,2 km/h (5 Bft) 98,11 %
28.10.2017 14:12 9,6 C 10,0 C 74 % 1018,0 hPa 0,0 l/m 19,7 km/h (3 Bft) W 260 0 min 0,000 mm 0,0 UV-I 98 W/m 5,2 C 2,9 C 35,4 km/h (5 Bft) 98,00 %
28.10.2017 14:14 9,5 C 10,0 C 75 % 1018,0 hPa 0,0 l/m 18,2 km/h (3 Bft) SW 219 0 min 0,000 mm 0,5 UV-I 109 W/m 5,3 C 3,3 C 33,8 km/h (5 Bft) 97,37 %
28.10.2017 14:16 9,6 C 10,0 C 75 % 1018,0 hPa 0,0 l/m 19,6 km/h (3 Bft) W 265 0 min 0,000 mm 0,5 UV-I 116 W/m 5,4 C 2,9 C 27,4 km/h (4 Bft) 97,87 %
28.10.2017 14:18 9,6 C 10,0 C 74 % 1018,0 hPa 0,0 l/m 23,7 km/h (4 Bft) W-SW 255 0 min 0,000 mm 0,5 UV-I 114 W/m 5,2 C 1,6 C 37,0 km/h (5 Bft) 94,00 %
28.10.2017 14:20 9,6 C 10,0 C 74 % 1018,0 hPa 0,0 l/m 23,6 km/h (4 Bft) W-SW 253 0 min 0,000 mm 0,5 UV-I 104 W/m 5,2 C 1,7 C 38,6 km/h (5 Bft) 97,87 %
28.10.2017 14:22 9,6 C 10,0 C 74 % 1018,1 hPa 0,0 l/m 32,2 km/h (5 Bft) W-SW 238 0 min 0,000 mm 0,5 UV-I 102 W/m 5,2 C -0,4 C 43,5 km/h (6 Bft) 97,78 %
28.10.2017 14:24 9,6 C 10,0 C 73 % 1017,9 hPa 0,0 l/m 26,9 km/h (4 Bft) W-SW 242 0 min 0,000 mm 0,5 UV-I 108 W/m 5,0 C 0,8 C 41,8 km/h (6 Bft) 97,73 %
28.10.2017 14:26 9,7 C 10,0 C 73 % 1018,0 hPa 0,0 l/m 27,2 km/h (4 Bft) W-SW 249 0 min 0,000 mm 0,5 UV-I 114 W/m 5,1 C 0,9 C 46,7 km/h (6 Bft) 98,18 %
28.10.2017 14:28 9,7 C 10,0 C 73 % 1018,0 hPa 0,0 l/m 34,1 km/h (5 Bft) NW 311 0 min 0,000 mm 0,5 UV-I 122 W/m 5,1 C -0,6 C 49,9 km/h (6 Bft) 94,87 %
28.10.2017 14:30 9,7 C 10,0 C 73 % 1017,8 hPa 0,0 l/m 24,7 km/h (4 Bft) W 263 0 min 0,000 mm 0,6 UV-I 149 W/m 5,1 C 1,5 C 43,5 km/h (6 Bft) 98,00 %
28.10.2017 14:32 9,7 C 10,0 C 73 % 1017,9 hPa 0,0 l/m 28,9 km/h (5 Bft) W-SW 258 0 min 0,000 mm 0,7 UV-I 191 W/m 5,1 C 0,5 C 45,1 km/h (6 Bft) 100,00 %
28.10.2017 14:34 9,8 C 10,0 C 72 % 1017,8 hPa 0,0 l/m 30,4 km/h (5 Bft) W-SW 244 0 min 0,000 mm 0,8 UV-I 223 W/m 5,0 C 0,3 C 57,9 km/h (7 Bft) 100,00 %
28.10.2017 14:36 9,8 C 10,0 C 72 % 1017,6 hPa 0,0 l/m 25,7 km/h (4 Bft) W-SW 245 0 min 0,000 mm 0,7 UV-I 169 W/m 5,0 C 1,4 C 43,5 km/h (6 Bft) 100,00 %
28.10.2017 14:38 9,8 C 10,0 C 72 % 1017,6 hPa 0,0 l/m 29,1 km/h (5 Bft) W-SW 258 0 min 0,000 mm 0,5 UV-I 124 W/m 5,0 C 0,6 C 51,5 km/h (7 Bft) 100,00 %
28.10.2017 14:40 9,8 C 10,0 C 72 % 1017,6 hPa 0,0 l/m 26,9 km/h (4 Bft) W-SW 251 0 min 0,000 mm 0,0 UV-I 81 W/m 5,0 C 1,1 C 49,9 km/h (6 Bft) 100,00 %
28.10.2017 14:42 9,8 C 10,0 C 72 % 1017,5 hPa 0,0 l/m 24,8 km/h (4 Bft) W 269 0 min 0,000 mm 0,0 UV-I 76 W/m 5,0 C 1,6 C 35,4 km/h (5 Bft) 100,00 %
28.10.2017 14:44 9,8 C 10,0 C 72 % 1017,6 hPa 0,0 l/m 26,0 km/h (4 Bft) W-SW 244 0 min 0,000 mm 0,3 UV-I 108 W/m 5,0 C 1,3 C 41,8 km/h (6 Bft) 100,00 %
28.10.2017 14:46 9,8 C 10,0 C 72 % 1017,4 hPa 0,0 l/m 25,9 km/h (4 Bft) NW 316 0 min 0,000 mm 0,6 UV-I 134 W/m 5,0 C 1,3 C 40,2 km/h (6 Bft) 100,00 %
28.10.2017 14:48 9,8 C 10,0 C 71 % 1017,4 hPa 0,0 l/m 26,4 km/h (4 Bft) W-NW 285 0 min 0,000 mm 0,7 UV-I 176 W/m 4,8 C 1,2 C 41,8 km/h (6 Bft) 100,00 %
28.10.2017 14:50 9,8 C 10,0 C 71 % 1017,4 hPa 0,0 l/m 25,5 km/h (4 Bft) W-SW 255 0 min 0,000 mm 0,8 UV-I 188 W/m 4,8 C 1,4 C 41,8 km/h (6 Bft) 100,00 %
28.10.2017 14:52 9,8 C 10,0 C 71 % 1017,6 hPa 0,0 l/m 20,2 km/h (4 Bft) W-SW 243 0 min 0,000 mm 0,7 UV-I 168 W/m 4,8 C 3,0 C 35,4 km/h (5 Bft) 98,11 %
28.10.2017 14:54 9,9 C 10,0 C 70 % 1017,5 hPa 0,0 l/m 23,8 km/h (4 Bft) W-SW 246 0 min 0,000 mm 0,7 UV-I 189 W/m 4,7 C 2,0 C 41,8 km/h (6 Bft) 100,00 %
28.10.2017 14:56 9,9 C 10,0 C 69 % 1017,4 hPa 0,0 l/m 25,9 km/h (4 Bft) W-SW 257 2 min 0,000 mm 0,8 UV-I 217 W/m 4,5 C 1,5 C 41,8 km/h (6 Bft) 100,00 %
28.10.2017 14:58 9,9 C 10,0 C 69 % 1017,4 hPa 0,0 l/m 22,6 km/h (4 Bft) W 263 2 min 0,000 mm 0,8 UV-I 213 W/m 4,5 C 2,4 C 37,0 km/h (5 Bft) 100,00 %
28.10.2017 15:00 10,0 C 10,0 C 69 % 1017,4 hPa 0,0 l/m 25,0 km/h (4 Bft) W-SW 254 2 min 0,127 mm 0,8 UV-I 218 W/m 4,6 C 1,8 C 45,1 km/h (6 Bft) 100,00 %
28.10.2017 15:02 10,0 C 10,0 C 67 % 1017,3 hPa 0,0 l/m 32,2 km/h (5 Bft) W-SW 253 2 min 0,000 mm 0,7 UV-I 211 W/m 4,2 C 0,2 C 51,5 km/h (7 Bft) 98,18 %
28.10.2017 15:04 10,1 C 10,0 C 67 % 1017,4 hPa 0,0 l/m 24,9 km/h (4 Bft) SW 225 0 min 0,000 mm 0,7 UV-I 195 W/m 4,3 C 2,0 C 43,5 km/h (6 Bft) 92,59 %
28.10.2017 15:06 10,1 C 10,0 C 67 % 1017,3 hPa 0,0 l/m 22,3 km/h (4 Bft) W-SW 252 0 min 0,000 mm 0,6 UV-I 161 W/m 4,3 C 2,7 C 38,6 km/h (5 Bft) 100,00 %
28.10.2017 15:08 10,1 C 10,0 C 68 % 1017,3 hPa 0,0 l/m 26,3 km/h (4 Bft) W-SW 244 0 min 0,000 mm 0,6 UV-I 160 W/m 4,5 C 1,6 C 43,5 km/h (6 Bft) 100,00 %
28.10.2017 15:10 10,0 C 10,0 C 67 % 1017,3 hPa 0,0 l/m 29,5 km/h (5 Bft) SW 232 0 min 0,000 mm 0,6 UV-I 167 W/m 4,2 C 0,8 C 48,3 km/h (6 Bft) 100,00 %
28.10.2017 15:12 10,0 C 10,0 C 68 % 1017,4 hPa 0,0 l/m 24,9 km/h (4 Bft) W-SW 252 0 min 0,000 mm 0,6 UV-I 153 W/m 4,4 C 1,9 C 38,6 km/h (5 Bft) 100,00 %
28.10.2017 15:14 9,9 C 10,0 C 69 % 1017,4 hPa 0,0 l/m 21,8 km/h (4 Bft) W 273 0 min 0,000 mm 0,5 UV-I 127 W/m 4,5 C 2,6 C 35,4 km/h (5 Bft) 100,00 %
28.10.2017 15:16 9,9 C 10,0 C 69 % 1017,4 hPa 0,0 l/m 24,1 km/h (4 Bft) W 265 0 min 0,000 mm 0,2 UV-I 113 W/m 4,5 C 1,9 C 46,7 km/h (6 Bft) 100,00 %
28.10.2017 15:18 9,9 C 10,0 C 68 % 1017,5 hPa 0,0 l/m 24,6 km/h (4 Bft) SW 230 0 min 0,000 mm 0,5 UV-I 127 W/m 4,3 C 1,8 C 40,2 km/h (6 Bft) 100,00 %
28.10.2017 15:20 9,9 C 10,0 C 68 % 1017,4 hPa 0,0 l/m 18,8 km/h (3 Bft) W 264 0 min 0,000 mm 0,5 UV-I 128 W/m 4,3 C 3,6 C 27,4 km/h (4 Bft) 100,00 %
28.10.2017 15:22 9,9 C 10,0 C 68 % 1017,4 hPa 0,0 l/m 25,6 km/h (4 Bft) W 267 0 min 0,000 mm 0,0 UV-I 120 W/m 4,3 C 1,5 C 43,5 km/h (6 Bft) 100,00 %
28.10.2017 15:24 9,9 C 10,0 C 67 % 1017,5 hPa 0,0 l/m 29,6 km/h (5 Bft) SW 227 0 min 0,000 mm 0,0 UV-I 116 W/m 4,1 C 0,6 C 53,1 km/h (7 Bft) 98,11 %
28.10.2017 15:26 9,9 C 10,0 C 67 % 1017,4 hPa 0,0 l/m 22,3 km/h (4 Bft) SW 233 0 min 0,000 mm 0,0 UV-I 112 W/m 4,1 C 2,4 C 37,0 km/h (5 Bft) 97,73 %
28.10.2017 15:28 9,9 C 10,0 C 68 % 1017,4 hPa 0,0 l/m 20,2 km/h (4 Bft) W-SW 252 0 min 0,000 mm 0,0 UV-I 111 W/m 4,3 C 3,1 C 30,6 km/h (5 Bft) 100,00 %
28.10.2017 15:30 9,9 C 10,0 C 68 % 1017,5 hPa 0,0 l/m 21,2 km/h (4 Bft) W-SW 253 0 min 0,000 mm 0,0 UV-I 116 W/m 4,3 C 2,8 C 29,0 km/h (5 Bft) 94,64 %
28.10.2017 15:32 9,9 C 10,0 C 68 % 1017,4 hPa 0,0 l/m 26,4 km/h (4 Bft) W-SW 250 0 min 0,000 mm 0,0 UV-I 106 W/m 4,3 C 1,3 C 38,6 km/h (5 Bft) 97,73 %
28.10.2017 15:34 9,9 C 10,0 C 68 % 1017,5 hPa 0,0 l/m 18,7 km/h (3 Bft) W 270 0 min 0,000 mm 0,0 UV-I 101 W/m 4,3 C 3,6 C 53,1 km/h (7 Bft) 96,23 %
28.10.2017 15:36 9,9 C 10,0 C 68 % 1017,5 hPa 0,0 l/m 27,9 km/h (4 Bft) W-SW 257 0 min 0,000 mm 0,0 UV-I 90 W/m 4,3 C 1,0 C 48,3 km/h (6 Bft) 96,23 %
28.10.2017 15:38 9,8 C 10,0 C 68 % 1017,6 hPa 0,0 l/m 25,7 km/h (4 Bft) W-SW 252 0 min 0,000 mm 0,0 UV-I 79 W/m 4,2 C 1,4 C 45,1 km/h (6 Bft) 97,73 %
28.10.2017 15:40 9,8 C 10,0 C 68 % 1017,6 hPa 0,0 l/m 23,4 km/h (4 Bft) W-SW 238 0 min 0,000 mm 0,0 UV-I 76 W/m 4,2 C 2,0 C 35,4 km/h (5 Bft) 97,62 %
28.10.2017 15:42 9,8 C 10,0 C 68 % 1017,5 hPa 0,0 l/m 22,0 km/h (4 Bft) W-NW 290 0 min 0,000 mm 0,0 UV-I 61 W/m 4,2 C 2,4 C 35,4 km/h (5 Bft) 96,15 %
28.10.2017 15:44 9,8 C 10,0 C 68 % 1017,4 hPa 0,0 l/m 26,7 km/h (4 Bft) W-SW 258 0 min 0,000 mm 0,0 UV-I 60 W/m 4,2 C 1,1 C 45,1 km/h (6 Bft) 97,87 %
28.10.2017 15:46 9,8 C 10,0 C 68 % 1017,4 hPa 0,0 l/m 25,7 km/h (4 Bft) W-SW 248 0 min 0,000 mm 0,0 UV-I 58 W/m 4,2 C 1,4 C 43,5 km/h (6 Bft) 97,62 %
28.10.2017 15:48 9,8 C 10,0 C 68 % 1017,3 hPa 0,0 l/m 30,1 km/h (5 Bft) W-SW 251 0 min 0,000 mm 0,0 UV-I 51 W/m 4,2 C 0,4 C 43,5 km/h (6 Bft) 95,74 %
28.10.2017 15:50 9,8 C 10,0 C 68 % 1017,4 hPa 0,0 l/m 28,4 km/h (4 Bft) SW 215 0 min 0,000 mm 0,0 UV-I 40 W/m 4,2 C 0,7 C 53,1 km/h (7 Bft) 97,87 %
28.10.2017 15:52 9,7 C 10,0 C 68 % 1017,3 hPa 0,0 l/m 24,8 km/h (4 Bft) W-SW 252 0 min 0,000 mm 0,0 UV-I 36 W/m 4,1 C 1,5 C 40,2 km/h (6 Bft) 95,74 %
28.10.2017 15:54 9,7 C 10,0 C 69 % 1017,4 hPa 0,0 l/m 19,2 km/h (3 Bft) W-SW 256 0 min 0,000 mm 0,0 UV-I 40 W/m 4,3 C 3,2 C 29,0 km/h (5 Bft) 97,37 %
28.10.2017 15:56 9,7 C 10,0 C 69 % 1017,5 hPa 0,0 l/m 20,2 km/h (4 Bft) SW 225 0 min 0,000 mm 0,0 UV-I 49 W/m 4,3 C 2,8 C 33,8 km/h (5 Bft) 96,77 %
28.10.2017 15:58 9,7 C 10,0 C 69 % 1017,4 hPa 0,0 l/m 21,0 km/h (4 Bft) W-SW 240 0 min 0,000 mm 0,0 UV-I 78 W/m 4,3 C 2,6 C 30,6 km/h (5 Bft) 97,37 %
28.10.2017 16:00 9,7 C 10,0 C 70 % 1017,4 hPa 0,0 l/m 24,1 km/h (4 Bft) W-SW 245 0 min 0,000 mm 0,0 UV-I 85 W/m 4,5 C 1,7 C 41,8 km/h (6 Bft) 97,87 %
28.10.2017 16:02 9,7 C 10,0 C 69 % 1017,5 hPa 0,0 l/m 26,9 km/h (4 Bft) W-SW 243 0 min 0,127 mm 0,0 UV-I 71 W/m 4,3 C 0,9 C 49,9 km/h (6 Bft) 98,11 %
28.10.2017 16:04 9,7 C 10,0 C 70 % 1017,4 hPa 0,0 l/m 23,5 km/h (4 Bft) W-SW 241 0 min 0,000 mm 0,0 UV-I 70 W/m 4,5 C 1,8 C 32,2 km/h (5 Bft) 97,73 %
28.10.2017 16:06 9,7 C 10,0 C 69 % 1017,4 hPa 0,0 l/m 27,1 km/h (4 Bft) W-SW 243 0 min 0,000 mm 0,0 UV-I 82 W/m 4,3 C 0,9 C 43,5 km/h (6 Bft) 100,00 %
28.10.2017 16:08 9,7 C 10,0 C 69 % 1017,3 hPa 0,0 l/m 25,1 km/h (4 Bft) W-SW 245 0 min 0,000 mm 0,0 UV-I 80 W/m 4,3 C 1,4 C 33,8 km/h (5 Bft) 100,00 %
28.10.2017 16:10 9,7 C 10,0 C 69 % 1017,4 hPa 0,0 l/m 24,1 km/h (4 Bft) W-NW 283 0 min 0,000 mm 0,0 UV-I 74 W/m 4,3 C 1,7 C 38,6 km/h (5 Bft) 100,00 %
28.10.2017 16:12 9,7 C 10,0 C 69 % 1017,3 hPa 0,0 l/m 28,8 km/h (4 Bft) W-SW 248 0 min 0,000 mm 0,0 UV-I 67 W/m 4,3 C 0,5 C 46,7 km/h (6 Bft) 95,74 %
28.10.2017 16:14 9,7 C 10,0 C 68 % 1017,3 hPa 0,0 l/m 20,9 km/h (4 Bft) W-SW 247 0 min 0,000 mm 0,0 UV-I 59 W/m 4,1 C 2,6 C 32,2 km/h (5 Bft) 100,00 %
28.10.2017 16:16 9,7 C 10,0 C 68 % 1017,3 hPa 0,0 l/m 20,8 km/h (4 Bft) W-NW 282 0 min 0,000 mm 0,0 UV-I 56 W/m 4,1 C 2,6 C 33,8 km/h (5 Bft) 100,00 %
28.10.2017 16:18 9,7 C 10,0 C 68 % 1017,3 hPa 0,0 l/m 27,2 km/h (4 Bft) W 281 0 min 0,000 mm 0,0 UV-I 47 W/m 4,1 C 0,9 C 41,8 km/h (6 Bft) 100,00 %
28.10.2017 16:20 9,7 C 10,0 C 68 % 1017,4 hPa 0,0 l/m 17,6 km/h (3 Bft) W-SW 254 0 min 0,000 mm 0,0 UV-I 46 W/m 4,1 C 3,7 C 25,7 km/h (4 Bft) 100,00 %
28.10.2017 16:22 9,7 C 10,0 C 68 % 1017,3 hPa 0,0 l/m 26,1 km/h (4 Bft) W-SW 256 0 min 0,000 mm 0,0 UV-I 50 W/m 4,1 C 1,1 C 40,2 km/h (6 Bft) 100,00 %
28.10.2017 16:24 9,7 C 10,0 C 68 % 1017,2 hPa 0,0 l/m 27,6 km/h (4 Bft) W 277 0 min 0,000 mm 0,0 UV-I 56 W/m 4,1 C 0,8 C 57,9 km/h (7 Bft) 100,00 %
28.10.2017 16:26 9,7 C 10,0 C 67 % 1017,2 hPa 0,0 l/m 30,1 km/h (5 Bft) W 269 0 min 0,000 mm 0,0 UV-I 56 W/m 3,9 C 0,2 C 48,3 km/h (6 Bft) 100,00 %
28.10.2017 16:28 9,7 C 10,0 C 67 % 1017,2 hPa 0,0 l/m 26,3 km/h (4 Bft) W 261 0 min 0,000 mm 0,0 UV-I 52 W/m 3,9 C 1,1 C 33,8 km/h (5 Bft) 100,00 %
28.10.2017 16:30 9,7 C 10,0 C 67 % 1017,3 hPa 0,0 l/m 25,0 km/h (4 Bft) W-SW 250 0 min 0,000 mm 0,0 UV-I 47 W/m 3,9 C 1,4 C 38,6 km/h (5 Bft) 100,00 %
28.10.2017 16:32 9,7 C 10,0 C 67 % 1017,2 hPa 0,0 l/m 26,5 km/h (4 Bft) W 265 0 min 0,000 mm 0,0 UV-I 51 W/m 3,9 C 1,0 C 43,5 km/h (6 Bft) 97,14 %
28.10.2017 16:34 9,7 C 10,0 C 67 % 1017,2 hPa 0,0 l/m 26,2 km/h (4 Bft) W-SW 245 0 min 0,000 mm 0,0 UV-I 46 W/m 3,9 C 1,1 C 43,5 km/h (6 Bft) 98,53 %
28.10.2017 16:36 9,7 C 10,0 C 68 % 1017,1 hPa 0,0 l/m 26,5 km/h (4 Bft) W 268 0 min 0,000 mm 0,0 UV-I 41 W/m 4,1 C 1,0 C 48,3 km/h (6 Bft) 97,37 %
28.10.2017 16:38 9,7 C 10,0 C 68 % 1017,1 hPa 0,0 l/m 22,2 km/h (4 Bft) W-SW 254 0 min 0,000 mm 0,0 UV-I 39 W/m 4,1 C 2,2 C 38,6 km/h (5 Bft) 100,00 %
28.10.2017 16:40 9,7 C 10,0 C 68 % 1017,0 hPa 0,0 l/m 25,5 km/h (4 Bft) SW 228 0 min 0,000 mm 0,0 UV-I 41 W/m 4,1 C 1,3 C 43,5 km/h (6 Bft) 97,37 %
28.10.2017 16:41 9,7 C 10,0 C 68 % 1017,0 hPa 0,0 l/m 21,7 km/h (4 Bft) W 273 0 min 0,000 mm 0,0 UV-I 46 W/m 4,1 C 2,4 C 29,0 km/h (5 Bft) 100,00 %
28.10.2017 16:42 9,7 C 10,0 C 68 % 1017,0 hPa 0,0 l/m 18,5 km/h (3 Bft) SW 214 0 min 0,000 mm 0,0 UV-I 48 W/m 4,1 C 3,4 C 32,2 km/h (5 Bft) 96,15 %
28.10.2017 16:43 9,7 C 10,0 C 68 % 1017,0 hPa 0,0 l/m 26,2 km/h (4 Bft) W-SW 248 0 min 0,000 mm 0,0 UV-I 49 W/m 4,1 C 1,1 C 35,4 km/h (5 Bft) 100,00 %
28.10.2017 16:44 9,7 C 10,0 C 68 % 1017,0 hPa 0,0 l/m 28,4 km/h (4 Bft) W-SW 252 0 min 0,000 mm 0,0 UV-I 49 W/m 4,1 C 0,6 C 43,5 km/h (6 Bft) 96,15 %
28.10.2017 16:45 9,7 C 10,0 C 68 % 1016,9 hPa 0,0 l/m 21,4 km/h (4 Bft) W 268 0 min 0,000 mm 0,0 UV-I 47 W/m 4,1 C 2,5 C 29,0 km/h (5 Bft) 100,00 %
28.10.2017 16:46 9,7 C 10,0 C 68 % 1017,0 hPa 0,0 l/m 22,4 km/h (4 Bft) SW 223 0 min 0,000 mm 0,0 UV-I 46 W/m 4,1 C 2,2 C 35,4 km/h (5 Bft) 100,00 %
28.10.2017 16:47 9,7 C 10,0 C 68 % 1016,9 hPa 0,0 l/m 25,6 km/h (4 Bft) W 266 0 min 0,000 mm 0,0 UV-I 43 W/m 4,1 C 1,3 C 35,4 km/h (5 Bft) 100,00 %
28.10.2017 16:48 9,7 C 10,0 C 69 % 1016,9 hPa 0,0 l/m 23,9 km/h (4 Bft) W-NW 282 0 min 0,000 mm 0,0 UV-I 41 W/m 4,3 C 1,7 C 30,6 km/h (5 Bft) 100,00 %
28.10.2017 16:49 9,7 C 10,0 C 69 % 1016,9 hPa 0,0 l/m 21,0 km/h (4 Bft) W-SW 244 0 min 0,000 mm 0,0 UV-I 38 W/m 4,3 C 2,6 C 33,8 km/h (5 Bft) 100,00 %
28.10.2017 16:50 9,6 C 10,0 C 68 % 1017,0 hPa 0,0 l/m 29,7 km/h (5 Bft) W 281 0 min 0,000 mm 0,0 UV-I 34 W/m 4,0 C 0,2 C 37,0 km/h (5 Bft) 100,00 %
28.10.2017 16:51 9,7 C 10,0 C 68 % 1016,9 hPa 0,0 l/m 32,3 km/h (5 Bft) W-SW 248 0 min 0,000 mm 0,0 UV-I 32 W/m 4,1 C -0,2 C 48,3 km/h (6 Bft) 100,00 %
28.10.2017 16:52 9,6 C 10,0 C 68 % 1016,8 hPa 0,0 l/m 20,3 km/h (4 Bft) W 263 0 min 0,000 mm 0,0 UV-I 30 W/m 4,0 C 2,7 C 30,6 km/h (5 Bft) 100,00 %
28.10.2017 16:53 9,6 C 10,0 C 69 % 1016,9 hPa 0,0 l/m 25,1 km/h (4 Bft) W-SW 254 0 min 0,000 mm 0,0 UV-I 30 W/m 4,2 C 1,3 C 30,6 km/h (5 Bft) 100,00 %
28.10.2017 16:54 9,6 C 10,0 C 69 % 1016,9 hPa 0,0 l/m 22,7 km/h (4 Bft) W-SW 243 0 min 0,000 mm 0,0 UV-I 30 W/m 4,2 C 1,9 C 32,2 km/h (5 Bft) 100,00 %
28.10.2017 16:55 9,6 C 10,0 C 69 % 1016,8 hPa 0,0 l/m 25,5 km/h (4 Bft) W-SW 253 0 min 0,000 mm 0,0 UV-I 29 W/m 4,2 C 1,2 C 38,6 km/h (5 Bft) 100,00 %
28.10.2017 16:56 9,6 C 10,0 C 69 % 1016,8 hPa 0,0 l/m 24,9 km/h (4 Bft) W 259 0 min 0,000 mm 0,0 UV-I 28 W/m 4,2 C 1,3 C 32,2 km/h (5 Bft) 100,00 %
28.10.2017 16:57 9,6 C 10,0 C 69 % 1016,7 hPa 0,0 l/m 22,7 km/h (4 Bft) W 264 0 min 0,000 mm 0,0 UV-I 28 W/m 4,2 C 1,9 C 33,8 km/h (5 Bft) 100,00 %
28.10.2017 16:58 9,6 C 10,0 C 69 % 1016,7 hPa 0,0 l/m 17,1 km/h (3 Bft) W-SW 256 0 min 0,000 mm 0,0 UV-I 28 W/m 4,2 C 3,8 C 20,9 km/h (4 Bft) 96,15 %
28.10.2017 16:59 9,6 C 10,0 C 70 % 1016,7 hPa 0,0 l/m 25,6 km/h (4 Bft) W-SW 258 0 min 0,000 mm 0,0 UV-I 26 W/m 4,4 C 1,1 C 33,8 km/h (5 Bft) 100,00 %
28.10.2017 17:00 9,6 C 10,0 C 70 % 1016,7 hPa 0,0 l/m 18,9 km/h (3 Bft) W-SW 258 0 min 0,000 mm 0,0 UV-I 25 W/m 4,4 C 3,1 C 25,7 km/h (4 Bft) 100,00 %
28.10.2017 17:01 9,6 C 10,0 C 70 % 1016,8 hPa 0,0 l/m 26,8 km/h (4 Bft) W-SW 241 0 min 0,102 mm 0,0 UV-I 25 W/m 4,4 C 0,8 C 33,8 km/h (5 Bft) 100,00 %
28.10.2017 17:02 9,6 C 10,0 C 70 % 1016,8 hPa 0,0 l/m 24,0 km/h (4 Bft) W-SW 252 0 min 0,000 mm 0,0 UV-I 24 W/m 4,4 C 1,6 C 30,6 km/h (5 Bft) 100,00 %
28.10.2017 17:03 9,5 C 10,0 C 70 % 1016,8 hPa 0,0 l/m 23,5 km/h (4 Bft) W 269 0 min 0,000 mm 0,0 UV-I 23 W/m 4,3 C 1,6 C 37,0 km/h (5 Bft) 100,00 %
28.10.2017 17:04 9,5 C 10,0 C 70 % 1016,8 hPa 0,0 l/m 19,5 km/h (3 Bft) W 269 0 min 0,000 mm 0,0 UV-I 23 W/m 4,3 C 2,8 C 25,7 km/h (4 Bft) 100,00 %
28.10.2017 17:05 9,5 C 10,0 C 70 % 1016,8 hPa 0,0 l/m 14,9 km/h (3 Bft) W 261 0 min 0,000 mm 0,0 UV-I 22 W/m 4,3 C 4,6 C 22,5 km/h (4 Bft) 100,00 %
28.10.2017 17:06 9,5 C 10,0 C 70 % 1016,8 hPa 0,0 l/m 21,6 km/h (4 Bft) W-SW 249 0 min 0,000 mm 0,0 UV-I 21 W/m 4,3 C 2,1 C 35,4 km/h (5 Bft) 100,00 %
28.10.2017 17:07 9,5 C 10,0 C 70 % 1016,8 hPa 0,0 l/m 27,9 km/h (4 Bft) W-SW 250 0 min 0,000 mm 0,0 UV-I 20 W/m 4,3 C 0,4 C 33,8 km/h (5 Bft) 100,00 %
28.10.2017 17:08 9,5 C 10,0 C 70 % 1016,8 hPa 0,0 l/m 18,6 km/h (3 Bft) W-SW 248 0 min 0,000 mm 0,0 UV-I 19 W/m 4,3 C 3,1 C 24,1 km/h (4 Bft) 98,18 %
28.10.2017 17:09 9,4 C 10,0 C 70 % 1016,9 hPa 0,0 l/m 15,4 km/h (3 Bft) W 265 0 min 0,000 mm 0,0 UV-I 18 W/m 4,2 C 4,2 C 20,9 km/h (4 Bft) 100,00 %
28.10.2017 17:10 9,4 C 10,0 C 71 % 1016,9 hPa 0,0 l/m 13,9 km/h (3 Bft) W 265 0 min 0,000 mm 0,0 UV-I 18 W/m 4,4 C 4,9 C 22,5 km/h (4 Bft) 100,00 %
28.10.2017 17:11 9,4 C 10,0 C 71 % 1016,9 hPa 0,0 l/m 29,3 km/h (5 Bft) W 267 0 min 0,000 mm 0,0 UV-I 16 W/m 4,4 C -0,0 C 38,6 km/h (5 Bft) 100,00 %
28.10.2017 17:12 9,4 C 10,0 C 70 % 1016,9 hPa 0,0 l/m 31,4 km/h (5 Bft) W-SW 252 0 min 0,000 mm 0,0 UV-I 15 W/m 4,2 C -0,5 C 43,5 km/h (6 Bft) 100,00 %
28.10.2017 17:13 9,4 C 10,0 C 70 % 1016,9 hPa 0,0 l/m 25,1 km/h (4 Bft) W-SW 256 0 min 0,000 mm 0,0 UV-I 14 W/m 4,2 C 1,0 C 38,6 km/h (5 Bft) 95,65 %
28.10.2017 17:14 9,4 C 10,0 C 70 % 1016,8 hPa 0,0 l/m 25,9 km/h (4 Bft) W-SW 248 0 min 0,000 mm 0,0 UV-I 12 W/m 4,2 C 0,8 C 33,8 km/h (5 Bft) 100,00 %
28.10.2017 17:15 9,4 C 10,0 C 70 % 1016,9 hPa 0,0 l/m 21,4 km/h (4 Bft) W 262 0 min 0,000 mm 0,0 UV-I 12 W/m 4,2 C 2,1 C 27,4 km/h (4 Bft) 100,00 %
28.10.2017 17:16 9,4 C 10,0 C 70 % 1016,9 hPa 0,0 l/m 16,5 km/h (3 Bft) W 260 0 min 0,000 mm 0,0 UV-I 12 W/m 4,2 C 3,8 C 20,9 km/h (4 Bft) 100,00 %
28.10.2017 17:17 9,5 C 10,0 C 70 % 1016,8 hPa 0,0 l/m 19,8 km/h (3 Bft) S-SW 213 0 min 0,000 mm 0,0 UV-I 12 W/m 4,3 C 2,7 C 25,7 km/h (4 Bft) 100,00 %
28.10.2017 17:18 9,5 C 10,0 C 70 % 1016,8 hPa 0,0 l/m 25,9 km/h (4 Bft) W-SW 250 0 min 0,000 mm 0,0 UV-I 11 W/m 4,3 C 0,9 C 43,5 km/h (6 Bft) 100,00 %
28.10.2017 17:19 9,5 C 10,0 C 69 % 1016,7 hPa 0,0 l/m 24,1 km/h (4 Bft) W 259 0 min 0,000 mm 0,0 UV-I 11 W/m 4,1 C 1,4 C 32,2 km/h (5 Bft) 96,15 %
28.10.2017 17:20 9,5 C 10,0 C 69 % 1016,6 hPa 0,0 l/m 18,7 km/h (3 Bft) SW 234 0 min 0,000 mm 0,0 UV-I 11 W/m 4,1 C 3,1 C 24,1 km/h (4 Bft) 100,00 %
28.10.2017 17:21 9,4 C 10,0 C 69 % 1016,7 hPa 0,0 l/m 20,4 km/h (4 Bft) W-SW 255 0 min 0,000 mm 0,0 UV-I 11 W/m 4,0 C 2,4 C 25,7 km/h (4 Bft) 100,00 %
28.10.2017 17:22 9,5 C 10,0 C 70 % 1016,8 hPa 0,0 l/m 20,2 km/h (4 Bft) W-SW 252 0 min 0,000 mm 0,0 UV-I 9 W/m 4,3 C 2,6 C 29,0 km/h (5 Bft) 100,00 %
28.10.2017 17:23 9,5 C 10,0 C 70 % 1016,7 hPa 0,0 l/m 23,8 km/h (4 Bft) W 261 0 min 0,000 mm 0,0 UV-I 9 W/m 4,3 C 1,5 C 40,2 km/h (6 Bft) 100,00 %
28.10.2017 17:24 9,5 C 10,0 C 69 % 1016,8 hPa 0,0 l/m 27,8 km/h (4 Bft) W-SW 258 0 min 0,000 mm 0,0 UV-I 9 W/m 4,1 C 0,5 C 40,2 km/h (6 Bft) 100,00 %
28.10.2017 17:25 9,5 C 10,0 C 69 % 1016,8 hPa 0,0 l/m 22,5 km/h (4 Bft) W-SW 245 0 min 0,000 mm 0,0 UV-I 9 W/m 4,1 C 1,9 C 33,8 km/h (5 Bft) 91,67 %
28.10.2017 17:26 9,5 C 10,0 C 69 % 1016,8 hPa 0,0 l/m 24,7 km/h (4 Bft) W 263 0 min 0,000 mm 0,0 UV-I 7 W/m 4,1 C 1,2 C 43,5 km/h (6 Bft) 100,00 %
28.10.2017 17:27 9,5 C 10,0 C 69 % 1016,7 hPa 0,0 l/m 23,7 km/h (4 Bft) W-SW 254 0 min 0,000 mm 0,0 UV-I 7 W/m 4,1 C 1,5 C 29,0 km/h (5 Bft) 96,30 %
28.10.2017 17:28 9,5 C 10,0 C 69 % 1016,7 hPa 0,0 l/m 25,5 km/h (4 Bft) W-SW 242 0 min 0,000 mm 0,0 UV-I 7 W/m 4,1 C 1,0 C 32,2 km/h (5 Bft) 95,65 %
28.10.2017 17:29 9,5 C 10,0 C 69 % 1016,7 hPa 0,0 l/m 28,8 km/h (4 Bft) W-SW 252 0 min 0,000 mm 0,0 UV-I 6 W/m 4,1 C 0,2 C 48,3 km/h (6 Bft) 100,00 %
28.10.2017 17:30 9,5 C 10,0 C 69 % 1016,8 hPa 0,0 l/m 14,4 km/h (3 Bft) W-SW 247 0 min 0,000 mm 0,0 UV-I 5 W/m 4,1 C 4,8 C 20,9 km/h (4 Bft) 92,31 %
28.10.2017 17:31 9,5 C 10,0 C 69 % 1016,8 hPa 0,0 l/m 17,6 km/h (3 Bft) W-SW 241 0 min 0,000 mm 0,0 UV-I 5 W/m 4,1 C 3,5 C 24,1 km/h (4 Bft) 96,30 %
28.10.2017 17:32 9,5 C 10,0 C 69 % 1016,8 hPa 0,0 l/m 22,3 km/h (4 Bft) SW 235 0 min 0,000 mm 0,0 UV-I 5 W/m 4,1 C 1,9 C 30,6 km/h (5 Bft) 100,00 %
28.10.2017 17:33 9,5 C 10,0 C 69 % 1016,8 hPa 0,0 l/m 22,0 km/h (4 Bft) W 262 0 min 0,000 mm 0,0 UV-I 5 W/m 4,1 C 2,0 C 29,0 km/h (5 Bft) 92,11 %
28.10.2017 17:34 9,5 C 10,0 C 69 % 1016,7 hPa 0,0 l/m 17,1 km/h (3 Bft) W-SW 247 0 min 0,000 mm 0,0 UV-I 5 W/m 4,1 C 3,7 C 25,7 km/h (4 Bft) 92,31 %
28.10.2017 17:35 9,5 C 10,0 C 69 % 1016,7 hPa 0,0 l/m 25,2 km/h (4 Bft) W-SW 253 0 min 0,000 mm 0,0 UV-I 5 W/m 4,1 C 1,1 C 38,6 km/h (5 Bft) 91,67 %
28.10.2017 17:36 9,5 C 10,0 C 69 % 1016,7 hPa 0,0 l/m 29,6 km/h (5 Bft) W-SW 253 0 min 0,000 mm 0,0 UV-I 5 W/m 4,1 C 0,0 C 41,8 km/h (6 Bft) 92,59 %
28.10.2017 17:37 9,5 C 10,0 C 69 % 1016,8 hPa 0,0 l/m 23,4 km/h (4 Bft) W-SW 248 0 min 0,000 mm 0,0 UV-I 5 W/m 4,1 C 1,6 C 30,6 km/h (5 Bft) 96,15 %
28.10.2017 17:38 9,5 C 10,0 C 69 % 1016,8 hPa 0,0 l/m 22,8 km/h (4 Bft) W-SW 255 0 min 0,000 mm 0,0 UV-I 5 W/m 4,1 C 1,8 C 29,0 km/h (5 Bft) 91,30 %
28.10.2017 17:39 9,5 C 10,0 C 69 % 1017,0 hPa 0,0 l/m 19,7 km/h (3 Bft) W-SW 249 0 min 0,000 mm 0,0 UV-I 5 W/m 4,1 C 2,7 C 30,6 km/h (5 Bft) 95,83 %
28.10.2017 17:40 9,5 C 10,0 C 69 % 1016,8 hPa 0,0 l/m 25,7 km/h (4 Bft) W-SW 252 0 min 0,000 mm 0,0 UV-I 5 W/m 4,1 C 1,0 C 35,4 km/h (5 Bft) 96,15 %
28.10.2017 17:41 9,5 C 10,0 C 69 % 1016,7 hPa 0,0 l/m 25,7 km/h (4 Bft) W 259 0 min 0,000 mm 0,0 UV-I 5 W/m 4,1 C 1,0 C 32,2 km/h (5 Bft) 100,00 %
28.10.2017 17:42 9,5 C 10,0 C 69 % 1016,8 hPa 0,0 l/m 27,2 km/h (4 Bft) W-SW 251 0 min 0,000 mm 0,0 UV-I 5 W/m 4,1 C 0,6 C 37,0 km/h (5 Bft) 93,33 %
28.10.2017 17:43 9,5 C 10,0 C 69 % 1016,8 hPa 0,0 l/m 26,9 km/h (4 Bft) W 265 0 min 0,000 mm 0,0 UV-I 5 W/m 4,1 C 0,7 C 32,2 km/h (5 Bft) 96,15 %
28.10.2017 17:44 9,5 C 10,0 C 69 % 1016,8 hPa 0,0 l/m 23,9 km/h (4 Bft) W-SW 248 0 min 0,000 mm 0,0 UV-I 5 W/m 4,1 C 1,5 C 32,2 km/h (5 Bft) 96,30 %
28.10.2017 17:45 9,5 C 10,0 C 69 % 1016,8 hPa 0,0 l/m 18,9 km/h (3 Bft) S-SW 211 0 min 0,000 mm 0,0 UV-I 5 W/m 4,1 C 3,0 C 22,5 km/h (4 Bft) 92,86 %
28.10.2017 17:46 9,6 C 10,0 C 69 % 1016,8 hPa 0,0 l/m 19,2 km/h (3 Bft) W 273 0 min 0,000 mm 0,0 UV-I 3 W/m 4,2 C 3,0 C 24,1 km/h (4 Bft) 96,30 %
28.10.2017 17:47 9,5 C 10,0 C 69 % 1016,8 hPa 0,0 l/m 21,6 km/h (4 Bft) W 267 0 min 0,000 mm 0,0 UV-I 0 W/m 4,1 C 2,1 C 30,6 km/h (5 Bft) 88,46 %
28.10.2017 17:48 9,5 C 10,0 C 69 % 1016,8 hPa 0,0 l/m 19,1 km/h (3 Bft) W-SW 244 0 min 0,000 mm 0,0 UV-I 0 W/m 4,1 C 2,9 C 29,0 km/h (5 Bft) 96,30 %
28.10.2017 17:49 9,5 C 10,0 C 69 % 1016,9 hPa 0,0 l/m 16,7 km/h (3 Bft) W-SW 254 0 min 0,000 mm 0,0 UV-I 0 W/m 4,1 C 3,8 C 25,7 km/h (4 Bft) 95,65 %
28.10.2017 17:50 9,5 C 10,0 C 69 % 1016,8 hPa 0,0 l/m 15,4 km/h (3 Bft) W 263 0 min 0,000 mm 0,0 UV-I 0 W/m 4,1 C 4,4 C 20,9 km/h (4 Bft) 100,00 %
28.10.2017 17:51 9,5 C 10,0 C 69 % 1016,9 hPa 0,0 l/m 19,0 km/h (3 Bft) W 263 0 min 0,000 mm 0,0 UV-I 0 W/m 4,1 C 3,0 C 25,7 km/h (4 Bft) 91,30 %
28.10.2017 17:52 9,5 C 10,0 C 69 % 1016,9 hPa 0,0 l/m 15,0 km/h (3 Bft) W 265 0 min 0,000 mm 0,0 UV-I 0 W/m 4,1 C 4,5 C 24,1 km/h (4 Bft) 96,30 %
28.10.2017 17:53 9,4 C 10,0 C 69 % 1016,9 hPa 0,0 l/m 22,9 km/h (4 Bft) W 267 0 min 0,000 mm 0,0 UV-I 0 W/m 4,0 C 1,6 C 27,4 km/h (4 Bft) 96,15 %
28.10.2017 17:54 9,4 C 10,0 C 69 % 1016,8 hPa 0,0 l/m 22,9 km/h (4 Bft) W 275 0 min 0,000 mm 0,0 UV-I 0 W/m 4,0 C 1,6 C 32,2 km/h (5 Bft) 92,59 %
28.10.2017 17:55 9,4 C 10,0 C 69 % 1016,8 hPa 0,0 l/m 17,0 km/h (3 Bft) W 261 0 min 0,000 mm 0,0 UV-I 0 W/m 4,0 C 3,6 C 19,3 km/h (3 Bft) 95,65 %
28.10.2017 17:56 9,4 C 10,0 C 69 % 1016,8 hPa 0,0 l/m 17,1 km/h (3 Bft) W-SW 247 0 min 0,000 mm 0,0 UV-I 0 W/m 4,0 C 3,6 C 20,9 km/h (4 Bft) 83,33 %
28.10.2017 17:57 9,4 C 10,0 C 69 % 1016,8 hPa 0,0 l/m 20,5 km/h (4 Bft) W 274 0 min 0,000 mm 0,0 UV-I 0 W/m 4,0 C 2,3 C 29,0 km/h (5 Bft) 100,00 %
28.10.2017 17:58 9,4 C 10,0 C 69 % 1016,7 hPa 0,0 l/m 26,3 km/h (4 Bft) W-SW 258 0 min 0,000 mm 0,0 UV-I 0 W/m 4,0 C 0,7 C 38,6 km/h (5 Bft) 85,19 %
28.10.2017 17:59 9,4 C 10,0 C 69 % 1016,7 hPa 0,0 l/m 21,3 km/h (4 Bft) W-SW 257 0 min 0,000 mm 0,0 UV-I 0 W/m 4,0 C 2,1 C 30,6 km/h (5 Bft) 100,00 %
28.10.2017 18:00 9,4 C 10,0 C 69 % 1016,8 hPa 0,0 l/m 17,0 km/h (3 Bft) SW 233 0 min 0,000 mm 0,0 UV-I 0 W/m 4,0 C 3,6 C 20,9 km/h (4 Bft) 83,33 %
28.10.2017 18:01 9,4 C 10,0 C 70 % 1016,9 hPa 0,0 l/m 20,6 km/h (4 Bft) W 276 0 min 0,076 mm 0,0 UV-I 0 W/m 4,2 C 2,3 C 29,0 km/h (5 Bft) 100,00 %
28.10.2017 18:02 9,4 C 10,0 C 69 % 1016,8 hPa 0,0 l/m 23,1 km/h (4 Bft) W-SW 251 0 min 0,000 mm 0,0 UV-I 0 W/m 4,0 C 1,5 C 30,6 km/h (5 Bft) 95,65 %
28.10.2017 18:03 9,4 C 10,0 C 69 % 1016,8 hPa 0,0 l/m 19,1 km/h (3 Bft) W-SW 254 0 min 0,000 mm 0,0 UV-I 0 W/m 4,0 C 2,8 C 25,7 km/h (4 Bft) 96,30 %
28.10.2017 18:04 9,4 C 10,0 C 69 % 1016,8 hPa 0,0 l/m 29,3 km/h (5 Bft) W 267 0 min 0,000 mm 0,0 UV-I 0 W/m 4,0 C -0,0 C 43,5 km/h (6 Bft) 92,31 %
28.10.2017 18:05 9,4 C 10,0 C 69 % 1016,8 hPa 0,0 l/m 23,3 km/h (4 Bft) W-SW 258 0 min 0,000 mm 0,0 UV-I 0 W/m 4,0 C 1,5 C 37,0 km/h (5 Bft) 87,50 %
28.10.2017 18:06 9,4 C 10,0 C 69 % 1016,8 hPa 0,0 l/m 27,5 km/h (4 Bft) W-SW 250 0 min 0,000 mm 0,0 UV-I 0 W/m 4,0 C 0,4 C 38,6 km/h (5 Bft) 100,00 %
28.10.2017 18:07 9,4 C 10,0 C 69 % 1016,8 hPa 0,0 l/m 24,5 km/h (4 Bft) SW 235 0 min 0,000 mm 0,0 UV-I 0 W/m 4,0 C 1,2 C 33,8 km/h (5 Bft) 96,67 %
28.10.2017 18:08 9,4 C 10,0 C 69 % 1016,8 hPa 0,0 l/m 23,1 km/h (4 Bft) W-SW 252 0 min 0,000 mm 0,0 UV-I 0 W/m 4,0 C 1,5 C 35,4 km/h (5 Bft) 100,00 %
28.10.2017 18:09 9,4 C 10,0 C 69 % 1016,8 hPa 0,0 l/m 25,8 km/h (4 Bft) S-SW 196 0 min 0,000 mm 0,0 UV-I 0 W/m 4,0 C 0,8 C 35,4 km/h (5 Bft) 91,67 %
28.10.2017 18:10 9,5 C 10,0 C 69 % 1016,6 hPa 0,0 l/m 27,6 km/h (4 Bft) W 267 0 min 0,000 mm 0,0 UV-I 0 W/m 4,1 C 0,5 C 43,5 km/h (6 Bft) 92,86 %
28.10.2017 18:11 9,5 C 10,0 C 69 % 1016,6 hPa 0,0 l/m 23,9 km/h (4 Bft) W 263 0 min 0,000 mm 0,0 UV-I 0 W/m 4,1 C 1,5 C 32,2 km/h (5 Bft) 96,67 %
28.10.2017 18:12 9,5 C 10,0 C 69 % 1016,7 hPa 0,0 l/m 23,8 km/h (4 Bft) W-SW 257 0 min 0,000 mm 0,0 UV-I 0 W/m 4,1 C 1,5 C 35,4 km/h (5 Bft) 96,15 %
28.10.2017 18:13 9,5 C 10,0 C 69 % 1016,7 hPa 0,0 l/m 20,0 km/h (4 Bft) W 261 0 min 0,000 mm 0,0 UV-I 0 W/m 4,1 C 2,6 C 30,6 km/h (5 Bft) 100,00 %
28.10.2017 18:14 9,5 C 10,0 C 69 % 1016,7 hPa 0,0 l/m 20,7 km/h (4 Bft) W 271 0 min 0,000 mm 0,0 UV-I 0 W/m 4,1 C 2,4 C 30,6 km/h (5 Bft) 100,00 %
28.10.2017 18:15 9,5 C 10,0 C 69 % 1016,7 hPa 0,0 l/m 23,1 km/h (4 Bft) SW 230 0 min 0,000 mm 0,0 UV-I 0 W/m 4,1 C 1,7 C 35,4 km/h (5 Bft) 96,30 %
28.10.2017 18:16 9,5 C 10,0 C 69 % 1016,8 hPa 0,0 l/m 15,9 km/h (3 Bft) W-SW 242 0 min 0,000 mm 0,0 UV-I 0 W/m 4,1 C 4,2 C 20,9 km/h (4 Bft) 96,55 %
28.10.2017 18:17 9,5 C 10,0 C 69 % 1016,8 hPa 0,0 l/m 17,9 km/h (3 Bft) W 261 0 min 0,000 mm 0,0 UV-I 0 W/m 4,1 C 3,4 C 25,7 km/h (4 Bft) 100,00 %
28.10.2017 18:18 9,5 C 10,0 C 69 % 1016,9 hPa 0,0 l/m 18,6 km/h (3 Bft) W 273 0 min 0,000 mm 0,0 UV-I 0 W/m 4,1 C 3,1 C 27,4 km/h (4 Bft) 96,15 %
28.10.2017 18:19 9,5 C 10,0 C 69 % 1016,8 hPa 0,0 l/m 21,0 km/h (4 Bft) W-NW 282 0 min 0,000 mm 0,0 UV-I 0 W/m 4,1 C 2,3 C 30,6 km/h (5 Bft) 100,00 %
28.10.2017 18:20 9,4 C 10,0 C 69 % 1016,8 hPa 0,0 l/m 21,5 km/h (4 Bft) W 275 0 min 0,000 mm 0,0 UV-I 0 W/m 4,0 C 2,0 C 25,7 km/h (4 Bft) 96,15 %
28.10.2017 18:21 9,4 C 10,0 C 69 % 1016,8 hPa 0,0 l/m 15,2 km/h (3 Bft) W-SW 250 0 min 0,000 mm 0,0 UV-I 0 W/m 4,0 C 4,3 C 22,5 km/h (4 Bft) 100,00 %
28.10.2017 18:22 9,4 C 10,0 C 70 % 1016,8 hPa 0,0 l/m 16,1 km/h (3 Bft) W-SW 257 0 min 0,000 mm 0,0 UV-I 0 W/m 4,2 C 3,9 C 20,9 km/h (4 Bft) 96,67 %
28.10.2017 18:23 9,4 C 10,0 C 70 % 1016,8 hPa 0,0 l/m 20,2 km/h (4 Bft) W-SW 250 0 min 0,000 mm 0,0 UV-I 0 W/m 4,2 C 2,4 C 25,7 km/h (4 Bft) 100,00 %
28.10.2017 18:24 9,4 C 10,0 C 70 % 1016,8 hPa 0,0 l/m 25,1 km/h (4 Bft) SW 232 0 min 0,000 mm 0,0 UV-I 0 W/m 4,2 C 1,0 C 37,0 km/h (5 Bft) 93,33 %
28.10.2017 18:25 9,4 C 10,0 C 70 % 1016,8 hPa 0,0 l/m 20,7 km/h (4 Bft) W-SW 248 0 min 0,000 mm 0,0 UV-I 0 W/m 4,2 C 2,3 C 33,8 km/h (5 Bft) 95,65 %
28.10.2017 18:26 9,4 C 10,0 C 70 % 1016,7 hPa 0,0 l/m 20,5 km/h (4 Bft) W 261 0 min 0,000 mm 0,0 UV-I 0 W/m 4,2 C 2,3 C 29,0 km/h (5 Bft) 100,00 %
28.10.2017 18:27 9,4 C 10,0 C 69 % 1016,7 hPa 0,0 l/m 22,8 km/h (4 Bft) W 261 0 min 0,000 mm 0,0 UV-I 0 W/m 4,0 C 1,6 C 30,6 km/h (5 Bft) 92,31 %
28.10.2017 18:28 9,4 C 10,0 C 70 % 1016,8 hPa 0,0 l/m 17,3 km/h (3 Bft) W-SW 248 0 min 0,000 mm 0,0 UV-I 0 W/m 4,2 C 3,5 C 22,5 km/h (4 Bft) 100,00 %
28.10.2017 18:29 9,4 C 10,0 C 70 % 1016,8 hPa 0,0 l/m 19,6 km/h (3 Bft) W 273 0 min 0,000 mm 0,0 UV-I 0 W/m 4,2 C 2,6 C 25,7 km/h (4 Bft) 96,55 %
28.10.2017 18:30 9,4 C 10,0 C 70 % 1016,8 hPa 0,0 l/m 17,3 km/h (3 Bft) W 270 0 min 0,000 mm 0,0 UV-I 0 W/m 4,2 C 3,5 C 24,1 km/h (4 Bft) 100,00 %
28.10.2017 18:32 9,4 C 10,0 C 70 % 1016,7 hPa 0,0 l/m 16,5 km/h (3 Bft) W-SW 241 0 min 0,000 mm 0,0 UV-I 0 W/m 4,2 C 3,8 C 25,7 km/h (4 Bft) 97,73 %
28.10.2017 18:33 9,4 C 10,0 C 70 % 1016,7 hPa 0,0 l/m 23,5 km/h (4 Bft) W 281 0 min 0,000 mm 0,0 UV-I 0 W/m 4,2 C 1,4 C 29,0 km/h (5 Bft) 100,00 %
28.10.2017 18:34 9,4 C 10,0 C 70 % 1016,7 hPa 0,0 l/m 23,7 km/h (4 Bft) W 265 0 min 0,000 mm 0,0 UV-I 0 W/m 4,2 C 1,4 C 29,0 km/h (5 Bft) 96,15 %
28.10.2017 18:35 9,4 C 10,0 C 70 % 1016,6 hPa 0,0 l/m 16,2 km/h (3 Bft) W-SW 250 0 min 0,000 mm 0,0 UV-I 0 W/m 4,2 C 3,9 C 24,1 km/h (4 Bft) 100,00 %
28.10.2017 18:36 9,3 C 10,0 C 70 % 1016,5 hPa 0,0 l/m 16,3 km/h (3 Bft) W-SW 246 0 min 0,000 mm 0,0 UV-I 0 W/m 4,1 C 3,7 C 24,1 km/h (4 Bft) 100,00 %
28.10.2017 18:37 9,3 C 10,0 C 70 % 1016,4 hPa 0,0 l/m 18,5 km/h (3 Bft) W 269 0 min 0,000 mm 0,0 UV-I 0 W/m 4,1 C 2,9 C 24,1 km/h (4 Bft) 100,00 %
28.10.2017 18:38 9,3 C 10,0 C 70 % 1016,3 hPa 0,0 l/m 16,2 km/h (3 Bft) W-SW 258 0 min 0,000 mm 0,0 UV-I 0 W/m 4,1 C 3,8 C 20,9 km/h (4 Bft) 100,00 %
28.10.2017 18:39 9,3 C 10,0 C 70 % 1016,3 hPa 0,0 l/m 16,4 km/h (3 Bft) W 268 0 min 0,000 mm 0,0 UV-I 0 W/m 4,1 C 3,7 C 22,5 km/h (4 Bft) 95,65 %
28.10.2017 18:40 9,3 C 10,0 C 71 % 1016,4 hPa 0,0 l/m 18,6 km/h (3 Bft) W-SW 257 0 min 0,000 mm 0,0 UV-I 0 W/m 4,3 C 2,9 C 22,5 km/h (4 Bft) 100,00 %
28.10.2017 18:41 9,3 C 10,0 C 71 % 1016,4 hPa 0,0 l/m 14,8 km/h (3 Bft) W-NW 284 0 min 0,000 mm 0,0 UV-I 0 W/m 4,3 C 4,4 C 19,3 km/h (3 Bft) 100,00 %
28.10.2017 18:42 9,3 C 10,0 C 71 % 1016,5 hPa 0,0 l/m 18,0 km/h (3 Bft) W 260 0 min 0,000 mm 0,0 UV-I 0 W/m 4,3 C 3,1 C 25,7 km/h (4 Bft) 100,00 %
28.10.2017 18:43 9,3 C 10,0 C 71 % 1016,5 hPa 0,0 l/m 18,8 km/h (3 Bft) W 275 0 min 0,000 mm 0,0 UV-I 0 W/m 4,3 C 2,8 C 22,5 km/h (4 Bft) 100,00 %
28.10.2017 18:44 9,3 C 10,0 C 71 % 1016,6 hPa 0,0 l/m 17,0 km/h (3 Bft) W 265 0 min 0,000 mm 0,0 UV-I 0 W/m 4,3 C 3,5 C 20,9 km/h (4 Bft) 100,00 %
28.10.2017 18:45 9,3 C 10,0 C 71 % 1016,7 hPa 0,0 l/m 24,4 km/h (4 Bft) W 261 0 min 0,000 mm 0,0 UV-I 0 W/m 4,3 C 1,0 C 30,6 km/h (5 Bft) 100,00 %
28.10.2017 18:46 9,3 C 10,0 C 71 % 1016,7 hPa 0,0 l/m 16,5 km/h (3 Bft) W-SW 257 0 min 0,000 mm 0,0 UV-I 0 W/m 4,3 C 3,7 C 20,9 km/h (4 Bft) 96,55 %
28.10.2017 18:47 9,3 C 10,0 C 71 % 1016,7 hPa 0,0 l/m 17,6 km/h (3 Bft) W-SW 245 0 min 0,000 mm 0,0 UV-I 0 W/m 4,3 C 3,2 C 22,5 km/h (4 Bft) 100,00 %
28.10.2017 18:48 9,3 C 10,0 C 71 % 1016,6 hPa 0,0 l/m 17,3 km/h (3 Bft) W 261 0 min 0,000 mm 0,0 UV-I 0 W/m 4,3 C 3,3 C 20,9 km/h (4 Bft) 100,00 %
28.10.2017 18:49 9,3 C 10,0 C 71 % 1016,6 hPa 0,0 l/m 24,3 km/h (4 Bft) W-SW 239 0 min 0,000 mm 0,0 UV-I 0 W/m 4,3 C 1,1 C 29,0 km/h (5 Bft) 96,30 %
28.10.2017 18:50 9,3 C 10,0 C 71 % 1016,6 hPa 0,0 l/m 18,5 km/h (3 Bft) W-SW 252 0 min 0,000 mm 0,0 UV-I 0 W/m 4,3 C 2,9 C 27,4 km/h (4 Bft) 100,00 %
28.10.2017 18:51 9,3 C 10,0 C 72 % 1016,6 hPa 0,0 l/m 17,8 km/h (3 Bft) SW 232 0 min 0,000 mm 0,0 UV-I 0 W/m 4,5 C 3,2 C 24,1 km/h (4 Bft) 100,00 %
28.10.2017 18:52 9,3 C 10,0 C 72 % 1016,6 hPa 0,0 l/m 14,2 km/h (3 Bft) W-SW 257 0 min 0,000 mm 0,0 UV-I 0 W/m 4,5 C 4,6 C 20,9 km/h (4 Bft) 96,15 %
28.10.2017 18:53 9,3 C 10,0 C 72 % 1016,6 hPa 0,0 l/m 19,7 km/h (3 Bft) W-SW 243 0 min 0,000 mm 0,0 UV-I 0 W/m 4,5 C 2,5 C 22,5 km/h (4 Bft) 100,00 %
28.10.2017 18:54 9,3 C 10,0 C 72 % 1016,6 hPa 0,0 l/m 19,0 km/h (3 Bft) W-SW 257 0 min 0,000 mm 0,0 UV-I 0 W/m 4,5 C 2,7 C 25,7 km/h (4 Bft) 100,00 %
28.10.2017 18:55 9,3 C 10,0 C 72 % 1016,7 hPa 0,0 l/m 16,1 km/h (3 Bft) W-SW 247 0 min 0,000 mm 0,0 UV-I 0 W/m 4,5 C 3,8 C 20,9 km/h (4 Bft) 100,00 %
28.10.2017 18:56 9,3 C 10,0 C 72 % 1016,7 hPa 0,0 l/m 16,9 km/h (3 Bft) SW 234 0 min 0,000 mm 0,0 UV-I 0 W/m 4,5 C 3,5 C 22,5 km/h (4 Bft) 100,00 %
28.10.2017 18:57 9,3 C 10,0 C 72 % 1016,7 hPa 0,0 l/m 15,5 km/h (3 Bft) W-SW 244 0 min 0,000 mm 0,0 UV-I 0 W/m 4,5 C 4,1 C 24,1 km/h (4 Bft) 100,00 %
28.10.2017 18:58 9,3 C 10,0 C 72 % 1016,7 hPa 0,0 l/m 17,4 km/h (3 Bft) W-SW 248 0 min 0,000 mm 0,0 UV-I 0 W/m 4,5 C 3,3 C 25,7 km/h (4 Bft) 96,15 %
28.10.2017 18:59 9,3 C 10,0 C 72 % 1016,8 hPa 0,0 l/m 16,6 km/h (3 Bft) W-SW 250 0 min 0,000 mm 0,0 UV-I 0 W/m 4,5 C 3,6 C 19,3 km/h (3 Bft) 100,00 %
28.10.2017 19:00 9,3 C 10,0 C 72 % 1016,8 hPa 0,0 l/m 14,1 km/h (3 Bft) W-SW 244 0 min 0,000 mm 0,0 UV-I 0 W/m 4,5 C 4,7 C 19,3 km/h (3 Bft) 100,00 %
28.10.2017 19:01 9,3 C 10,0 C 72 % 1016,7 hPa 0,0 l/m 15,6 km/h (3 Bft) W 260 0 min 0,051 mm 0,0 UV-I 0 W/m 4,5 C 4,0 C 24,1 km/h (4 Bft) 100,00 %
28.10.2017 19:02 9,3 C 10,0 C 72 % 1016,7 hPa 0,0 l/m 15,9 km/h (3 Bft) W-SW 252 0 min 0,000 mm 0,0 UV-I 0 W/m 4,5 C 3,9 C 19,3 km/h (3 Bft) 100,00 %
28.10.2017 19:03 9,2 C 10,0 C 72 % 1016,7 hPa 0,0 l/m 17,1 km/h (3 Bft) W-SW 243 0 min 0,000 mm 0,0 UV-I 0 W/m 4,4 C 3,3 C 20,9 km/h (4 Bft) 96,15 %
28.10.2017 19:04 9,3 C 10,0 C 72 % 1016,6 hPa 0,0 l/m 16,2 km/h (3 Bft) W-SW 250 0 min 0,000 mm 0,0 UV-I 0 W/m 4,5 C 3,8 C 22,5 km/h (4 Bft) 100,00 %
28.10.2017 19:05 9,2 C 10,0 C 72 % 1016,6 hPa 0,0 l/m 12,2 km/h (2 Bft) W-SW 244 0 min 0,000 mm 0,0 UV-I 0 W/m 4,4 C 5,5 C 16,1 km/h (3 Bft) 100,00 %
28.10.2017 19:06 9,2 C 10,0 C 72 % 1016,6 hPa 0,0 l/m 16,0 km/h (3 Bft) W-SW 243 0 min 0,000 mm 0,0 UV-I 0 W/m 4,4 C 3,7 C 24,1 km/h (4 Bft) 100,00 %
28.10.2017 19:07 9,2 C 10,0 C 72 % 1016,7 hPa 0,0 l/m 12,5 km/h (3 Bft) W-SW 251 0 min 0,000 mm 0,0 UV-I 0 W/m 4,4 C 5,3 C 16,1 km/h (3 Bft) 100,00 %
28.10.2017 19:08 9,3 C 10,0 C 72 % 1016,7 hPa 0,0 l/m 15,2 km/h (3 Bft) W 259 0 min 0,000 mm 0,0 UV-I 0 W/m 4,5 C 4,2 C 20,9 km/h (4 Bft) 100,00 %
28.10.2017 19:09 9,2 C 10,0 C 72 % 1016,7 hPa 0,0 l/m 15,8 km/h (3 Bft) W 262 0 min 0,000 mm 0,0 UV-I 0 W/m 4,4 C 3,8 C 20,9 km/h (4 Bft) 100,00 %
28.10.2017 19:10 9,2 C 10,0 C 72 % 1016,7 hPa 0,0 l/m 14,4 km/h (3 Bft) W-SW 250 0 min 0,000 mm 0,0 UV-I 0 W/m 4,4 C 4,4 C 20,9 km/h (4 Bft) 100,00 %
28.10.2017 19:11 9,2 C 10,0 C 72 % 1016,7 hPa 0,0 l/m 12,0 km/h (2 Bft) W-SW 256 0 min 0,000 mm 0,0 UV-I 0 W/m 4,4 C 5,6 C 19,3 km/h (3 Bft) 100,00 %
28.10.2017 19:12 9,3 C 10,0 C 72 % 1016,6 hPa 0,0 l/m 14,7 km/h (3 Bft) W 260 0 min 0,000 mm 0,0 UV-I 0 W/m 4,5 C 4,4 C 19,3 km/h (3 Bft) 100,00 %
28.10.2017 19:13 9,3 C 10,0 C 72 % 1016,6 hPa 0,0 l/m 12,2 km/h (2 Bft) W-NW 285 0 min 0,000 mm 0,0 UV-I 0 W/m 4,5 C 5,6 C 19,3 km/h (3 Bft) 100,00 %
28.10.2017 19:14 9,2 C 10,0 C 72 % 1016,6 hPa 0,0 l/m 11,7 km/h (2 Bft) W-SW 252 0 min 0,000 mm 0,0 UV-I 0 W/m 4,4 C 5,8 C 19,3 km/h (3 Bft) 100,00 %
28.10.2017 19:15 9,2 C 10,0 C 73 % 1016,6 hPa 0,0 l/m 12,3 km/h (3 Bft) W 272 0 min 0,000 mm 0,0 UV-I 0 W/m 4,6 C 5,4 C 19,3 km/h (3 Bft) 100,00 %
28.10.2017 19:16 9,2 C 10,0 C 72 % 1016,6 hPa 0,0 l/m 19,0 km/h (3 Bft) W-SW 238 0 min 0,000 mm 0,0 UV-I 0 W/m 4,4 C 2,6 C 25,7 km/h (4 Bft) 100,00 %
28.10.2017 19:17 9,2 C 10,0 C 72 % 1016,6 hPa 0,0 l/m 18,4 km/h (3 Bft) SW 233 0 min 0,000 mm 0,0 UV-I 0 W/m 4,4 C 2,8 C 33,8 km/h (5 Bft) 100,00 %
28.10.2017 19:18 9,3 C 10,0 C 72 % 1016,6 hPa 0,0 l/m 18,2 km/h (3 Bft) W 269 0 min 0,000 mm 0,0 UV-I 0 W/m 4,5 C 3,0 C 20,9 km/h (4 Bft) 100,00 %
28.10.2017 19:19 9,3 C 10,0 C 72 % 1016,6 hPa 0,0 l/m 15,9 km/h (3 Bft) W 263 0 min 0,000 mm 0,0 UV-I 0 W/m 4,5 C 3,9 C 19,3 km/h (3 Bft) 100,00 %
28.10.2017 19:20 9,3 C 10,0 C 72 % 1016,6 hPa 0,0 l/m 18,3 km/h (3 Bft) W-SW 255 0 min 0,000 mm 0,0 UV-I 0 W/m 4,5 C 3,0 C 22,5 km/h (4 Bft) 100,00 %
28.10.2017 19:21 9,3 C 10,0 C 72 % 1016,5 hPa 0,0 l/m 13,7 km/h (3 Bft) W-SW 243 0 min 0,000 mm 0,0 UV-I 0 W/m 4,5 C 4,9 C 16,1 km/h (3 Bft) 100,00 %
28.10.2017 19:22 9,3 C 10,0 C 72 % 1016,5 hPa 0,0 l/m 20,6 km/h (4 Bft) W 260 0 min 0,000 mm 0,0 UV-I 0 W/m 4,5 C 2,2 C 32,2 km/h (5 Bft) 100,00 %
28.10.2017 19:23 9,3 C 10,0 C 72 % 1016,6 hPa 0,0 l/m 16,8 km/h (3 Bft) W-SW 238 0 min 0,000 mm 0,0 UV-I 0 W/m 4,5 C 3,5 C 30,6 km/h (5 Bft) 100,00 %
28.10.2017 19:24 9,3 C 10,0 C 72 % 1016,6 hPa 0,0 l/m 12,0 km/h (2 Bft) W 265 0 min 0,000 mm 0,0 UV-I 0 W/m 4,5 C 5,7 C 14,5 km/h (3 Bft) 100,00 %
28.10.2017 19:25 9,3 C 10,0 C 72 % 1016,6 hPa 0,0 l/m 19,0 km/h (3 Bft) W 275 0 min 0,000 mm 0,0 UV-I 0 W/m 4,5 C 2,7 C 22,5 km/h (4 Bft) 100,00 %
28.10.2017 19:26 9,3 C 10,0 C 72 % 1016,6 hPa 0,0 l/m 20,9 km/h (4 Bft) W-SW 258 0 min 0,000 mm 0,0 UV-I 0 W/m 4,5 C 2,1 C 25,7 km/h (4 Bft) 100,00 %
28.10.2017 19:27 9,3 C 10,0 C 71 % 1016,6 hPa 0,0 l/m 13,6 km/h (3 Bft) W 264 0 min 0,000 mm 0,0 UV-I 0 W/m 4,3 C 4,9 C 17,7 km/h (3 Bft) 100,00 %
28.10.2017 19:28 9,3 C 10,0 C 72 % 1016,5 hPa 0,0 l/m 11,8 km/h (2 Bft) W 261 0 min 0,000 mm 0,0 UV-I 0 W/m 4,5 C 5,8 C 22,5 km/h (4 Bft) 100,00 %
28.10.2017 19:29 9,3 C 10,0 C 72 % 1016,5 hPa 0,0 l/m 20,3 km/h (4 Bft) W 279 0 min 0,000 mm 0,0 UV-I 0 W/m 4,5 C 2,3 C 27,4 km/h (4 Bft) 93,33 %
28.10.2017 19:30 9,3 C 10,0 C 71 % 1016,4 hPa 0,0 l/m 20,0 km/h (4 Bft) W-SW 247 0 min 0,000 mm 0,0 UV-I 0 W/m 4,3 C 2,4 C 25,7 km/h (4 Bft) 100,00 %
28.10.2017 19:31 9,3 C 10,0 C 71 % 1016,5 hPa 0,0 l/m 20,0 km/h (4 Bft) W-SW 257 0 min 0,000 mm 0,0 UV-I 0 W/m 4,3 C 2,4 C 25,7 km/h (4 Bft) 96,30 %
28.10.2017 19:32 9,3 C 10,0 C 71 % 1016,4 hPa 0,0 l/m 23,5 km/h (4 Bft) W-SW 250 0 min 0,000 mm 0,0 UV-I 0 W/m 4,3 C 1,3 C 35,4 km/h (5 Bft) 100,00 %
28.10.2017 19:33 9,3 C 10,0 C 71 % 1016,5 hPa 0,0 l/m 28,4 km/h (4 Bft) W-SW 243 0 min 0,000 mm 0,0 UV-I 0 W/m 4,3 C 0,0 C 41,8 km/h (6 Bft) 96,15 %
28.10.2017 19:34 9,4 C 10,0 C 71 % 1016,5 hPa 0,0 l/m 21,5 km/h (4 Bft) W-SW 250 0 min 0,000 mm 0,0 UV-I 0 W/m 4,4 C 2,0 C 32,2 km/h (5 Bft) 100,00 %
28.10.2017 19:35 9,4 C 10,0 C 70 % 1016,4 hPa 0,0 l/m 20,6 km/h (4 Bft) W-SW 246 0 min 0,000 mm 0,0 UV-I 0 W/m 4,2 C 2,3 C 30,6 km/h (5 Bft) 93,33 %
28.10.2017 19:36 9,4 C 10,0 C 70 % 1016,4 hPa 0,0 l/m 19,2 km/h (3 Bft) S-SW 210 0 min 0,000 mm 0,0 UV-I 0 W/m 4,2 C 2,8 C 27,4 km/h (4 Bft) 100,00 %
28.10.2017 19:37 9,4 C 10,0 C 70 % 1016,4 hPa 0,0 l/m 16,2 km/h (3 Bft) W 259 0 min 0,000 mm 0,0 UV-I 0 W/m 4,2 C 3,9 C 25,7 km/h (4 Bft) 95,65 %
28.10.2017 19:38 9,4 C 10,0 C 71 % 1016,4 hPa 0,0 l/m 18,0 km/h (3 Bft) W 264 0 min 0,000 mm 0,0 UV-I 0 W/m 4,4 C 3,2 C 22,5 km/h (4 Bft) 95,83 %
28.10.2017 19:39 9,4 C 10,0 C 71 % 1016,5 hPa 0,0 l/m 18,7 km/h (3 Bft) W-SW 255 0 min 0,000 mm 0,0 UV-I 0 W/m 4,4 C 3,0 C 27,4 km/h (4 Bft) 100,00 %
28.10.2017 19:40 9,4 C 10,0 C 71 % 1016,4 hPa 0,0 l/m 18,3 km/h (3 Bft) W 273 0 min 0,000 mm 0,0 UV-I 0 W/m 4,4 C 3,1 C 29,0 km/h (5 Bft) 100,00 %
28.10.2017 19:41 9,4 C 10,0 C 70 % 1016,4 hPa 0,0 l/m 24,1 km/h (4 Bft) W-SW 243 0 min 0,000 mm 0,0 UV-I 0 W/m 4,2 C 1,3 C 32,2 km/h (5 Bft) 96,55 %
28.10.2017 19:42 9,5 C 10,0 C 70 % 1016,4 hPa 0,0 l/m 17,7 km/h (3 Bft) W-SW 251 0 min 0,000 mm 0,0 UV-I 0 W/m 4,3 C 3,4 C 22,5 km/h (4 Bft) 96,30 %
28.10.2017 19:43 9,5 C 10,0 C 70 % 1016,2 hPa 0,0 l/m 19,8 km/h (3 Bft) W-SW 252 0 min 0,000 mm 0,0 UV-I 0 W/m 4,3 C 2,7 C 32,2 km/h (5 Bft) 100,00 %
28.10.2017 19:44 9,4 C 10,0 C 70 % 1016,2 hPa 0,0 l/m 28,0 km/h (4 Bft) W-SW 244 0 min 0,000 mm 0,0 UV-I 0 W/m 4,2 C 0,3 C 43,5 km/h (6 Bft) 96,30 %
28.10.2017 19:45 9,5 C 10,0 C 70 % 1016,2 hPa 0,0 l/m 29,8 km/h (5 Bft) W-SW 258 0 min 0,000 mm 0,0 UV-I 0 W/m 4,3 C -0,0 C 41,8 km/h (6 Bft) 96,15 %
28.10.2017 19:46 9,5 C 10,0 C 70 % 1016,2 hPa 0,0 l/m 20,6 km/h (4 Bft) W-SW 248 0 min 0,000 mm 0,0 UV-I 0 W/m 4,3 C 2,4 C 25,7 km/h (4 Bft) 100,00 %
28.10.2017 19:47 9,5 C 10,0 C 70 % 1016,1 hPa 0,0 l/m 18,0 km/h (3 Bft) W 260 0 min 0,000 mm 0,0 UV-I 0 W/m 4,3 C 3,3 C 27,4 km/h (4 Bft) 96,15 %
28.10.2017 19:48 9,5 C 10,0 C 70 % 1016,2 hPa 0,0 l/m 25,7 km/h (4 Bft) W 265 0 min 0,000 mm 0,0 UV-I 0 W/m 4,3 C 1,0 C 37,0 km/h (5 Bft) 100,00 %
28.10.2017 19:49 9,5 C 10,0 C 70 % 1016,1 hPa 0,0 l/m 18,2 km/h (3 Bft) W-SW 250 0 min 0,000 mm 0,0 UV-I 0 W/m 4,3 C 3,3 C 22,5 km/h (4 Bft) 95,65 %
28.10.2017 19:50 9,5 C 10,0 C 70 % 1016,0 hPa 0,0 l/m 20,5 km/h (4 Bft) W-SW 242 0 min 0,000 mm 0,0 UV-I 0 W/m 4,3 C 2,5 C 29,0 km/h (5 Bft) 100,00 %
28.10.2017 19:51 9,5 C 10,0 C 70 % 1016,0 hPa 0,0 l/m 23,6 km/h (4 Bft) W-SW 256 0 min 0,000 mm 0,0 UV-I 0 W/m 4,3 C 1,5 C 30,6 km/h (5 Bft) 95,65 %
28.10.2017 19:52 9,5 C 10,0 C 70 % 1016,0 hPa 0,0 l/m 23,3 km/h (4 Bft) W-SW 246 0 min 0,000 mm 0,0 UV-I 0 W/m 4,3 C 1,6 C 32,2 km/h (5 Bft) 100,00 %
28.10.2017 19:53 9,5 C 10,0 C 70 % 1016,0 hPa 0,0 l/m 22,6 km/h (4 Bft) W 269 0 min 0,000 mm 0,0 UV-I 0 W/m 4,3 C 1,8 C 30,6 km/h (5 Bft) 96,15 %
28.10.2017 19:54 9,5 C 10,0 C 70 % 1015,9 hPa 0,0 l/m 21,3 km/h (4 Bft) W 259 0 min 0,000 mm 0,0 UV-I 0 W/m 4,3 C 2,2 C 30,6 km/h (5 Bft) 92,59 %
28.10.2017 19:55 9,5 C 10,0 C 70 % 1015,9 hPa 0,0 l/m 18,8 km/h (3 Bft) SW 234 0 min 0,000 mm 0,0 UV-I 0 W/m 4,3 C 3,1 C 24,1 km/h (4 Bft) 100,00 %
28.10.2017 19:56 9,5 C 10,0 C 70 % 1015,9 hPa 0,0 l/m 17,3 km/h (3 Bft) W 261 0 min 0,000 mm 0,0 UV-I 0 W/m 4,3 C 3,6 C 25,7 km/h (4 Bft) 96,55 %
28.10.2017 19:57 9,5 C 10,0 C 70 % 1015,8 hPa 0,0 l/m 22,1 km/h (4 Bft) W-SW 250 0 min 0,000 mm 0,0 UV-I 0 W/m 4,3 C 2,0 C 27,4 km/h (4 Bft) 100,00 %
28.10.2017 19:58 9,5 C 10,0 C 70 % 1015,8 hPa 0,0 l/m 18,5 km/h (3 Bft) W-SW 241 0 min 0,000 mm 0,0 UV-I 0 W/m 4,3 C 3,2 C 30,6 km/h (5 Bft) 92,86 %
28.10.2017 19:59 9,4 C 10,0 C 70 % 1015,7 hPa 0,0 l/m 24,2 km/h (4 Bft) SW 215 0 min 0,000 mm 0,0 UV-I 0 W/m 4,2 C 1,2 C 33,8 km/h (5 Bft) 100,00 %
28.10.2017 20:00 9,5 C 10,0 C 70 % 1015,7 hPa 0,0 l/m 20,3 km/h (4 Bft) W-SW 254 0 min 0,000 mm 0,0 UV-I 0 W/m 4,3 C 2,5 C 29,0 km/h (5 Bft) 92,31 %
28.10.2017 20:01 9,5 C 10,0 C 70 % 1015,8 hPa 0,0 l/m 20,2 km/h (4 Bft) W-SW 255 0 min 0,051 mm 0,0 UV-I 0 W/m 4,3 C 2,6 C 25,7 km/h (4 Bft) 100,00 %
28.10.2017 20:02 9,4 C 10,0 C 70 % 1015,7 hPa 0,0 l/m 19,4 km/h (3 Bft) W 273 0 min 0,000 mm 0,0 UV-I 0 W/m 4,2 C 2,7 C 37,0 km/h (5 Bft) 96,15 %
28.10.2017 20:03 9,5 C 10,0 C 70 % 1015,8 hPa 0,0 l/m 22,3 km/h (4 Bft) W-SW 249 0 min 0,000 mm 0,0 UV-I 0 W/m 4,3 C 1,9 C 27,4 km/h (4 Bft) 96,67 %
28.10.2017 20:04 9,5 C 10,0 C 70 % 1015,7 hPa 0,0 l/m 21,7 km/h (4 Bft) W-SW 252 0 min 0,000 mm 0,0 UV-I 0 W/m 4,3 C 2,1 C 25,7 km/h (4 Bft) 100,00 %
28.10.2017 20:05 9,5 C 10,0 C 70 % 1015,8 hPa 0,0 l/m 18,2 km/h (3 Bft) SW 230 0 min 0,000 mm 0,0 UV-I 0 W/m 4,3 C 3,3 C 24,1 km/h (4 Bft) 95,83 %
28.10.2017 20:06 9,4 C 10,0 C 70 % 1015,8 hPa 0,0 l/m 20,8 km/h (4 Bft) W-SW 249 0 min 0,000 mm 0,0 UV-I 0 W/m 4,2 C 2,2 C 24,1 km/h (4 Bft) 100,00 %
28.10.2017 20:07 9,4 C 10,0 C 70 % 1015,8 hPa 0,0 l/m 17,9 km/h (3 Bft) W 259 0 min 0,000 mm 0,0 UV-I 0 W/m 4,2 C 3,2 C 24,1 km/h (4 Bft) 91,67 %
28.10.2017 20:08 9,4 C 10,0 C 70 % 1015,8 hPa 0,0 l/m 27,9 km/h (4 Bft) W 268 0 min 0,000 mm 0,0 UV-I 0 W/m 4,2 C 0,3 C 35,4 km/h (5 Bft) 100,00 %
28.10.2017 20:09 9,5 C 10,0 C 70 % 1015,7 hPa 0,0 l/m 22,0 km/h (4 Bft) W-SW 243 0 min 0,000 mm 0,0 UV-I 0 W/m 4,3 C 2,0 C 32,2 km/h (5 Bft) 100,00 %
28.10.2017 20:10 9,5 C 10,0 C 70 % 1015,8 hPa 0,0 l/m 21,4 km/h (4 Bft) W 260 0 min 0,000 mm 0,0 UV-I 0 W/m 4,3 C 2,2 C 25,7 km/h (4 Bft) 100,00 %
28.10.2017 20:11 9,4 C 10,0 C 70 % 1015,8 hPa 0,0 l/m 20,0 km/h (4 Bft) W-SW 246 0 min 0,000 mm 0,0 UV-I 0 W/m 4,2 C 2,5 C 27,4 km/h (4 Bft) 100,00 %
28.10.2017 20:12 9,5 C 10,0 C 70 % 1015,8 hPa 0,0 l/m 20,4 km/h (4 Bft) SW 227 0 min 0,000 mm 0,0 UV-I 0 W/m 4,3 C 2,5 C 24,1 km/h (4 Bft) 95,65 %
28.10.2017 20:13 9,5 C 10,0 C 70 % 1015,9 hPa 0,0 l/m 21,5 km/h (4 Bft) W-SW 250 0 min 0,000 mm 0,0 UV-I 0 W/m 4,3 C 2,2 C 32,2 km/h (5 Bft) 95,83 %
28.10.2017 20:14 9,4 C 10,0 C 70 % 1015,9 hPa 0,0 l/m 19,9 km/h (4 Bft) W-SW 241 0 min 0,000 mm 0,0 UV-I 0 W/m 4,2 C 2,5 C 24,1 km/h (4 Bft) 100,00 %
28.10.2017 20:15 9,4 C 10,0 C 70 % 1015,9 hPa 0,0 l/m 23,4 km/h (4 Bft) W-SW 255 0 min 0,000 mm 0,0 UV-I 0 W/m 4,2 C 1,5 C 29,0 km/h (5 Bft) 100,00 %
28.10.2017 20:16 9,4 C 10,0 C 70 % 1015,9 hPa 0,0 l/m 23,4 km/h (4 Bft) W 269 0 min 0,000 mm 0,0 UV-I 0 W/m 4,2 C 1,5 C 30,6 km/h (5 Bft) 100,00 %
28.10.2017 20:17 9,4 C 10,0 C 70 % 1015,9 hPa 0,0 l/m 22,0 km/h (4 Bft) W 261 0 min 0,000 mm 0,0 UV-I 0 W/m 4,2 C 1,9 C 29,0 km/h (5 Bft) 100,00 %
28.10.2017 20:18 9,5 C 10,0 C 70 % 1015,8 hPa 0,0 l/m 20,0 km/h (4 Bft) SW 236 0 min 0,000 mm 0,0 UV-I 0 W/m 4,3 C 2,6 C 29,0 km/h (5 Bft) 100,00 %
28.10.2017 20:19 9,5 C 10,0 C 70 % 1015,9 hPa 0,0 l/m 22,3 km/h (4 Bft) W-SW 252 0 min 0,000 mm 0,0 UV-I 0 W/m 4,3 C 1,9 C 30,6 km/h (5 Bft) 95,65 %
28.10.2017 20:20 9,5 C 10,0 C 70 % 1015,9 hPa 0,0 l/m 21,2 km/h (4 Bft) S 171 0 min 0,000 mm 0,0 UV-I 0 W/m 4,3 C 2,3 C 25,7 km/h (4 Bft) 95,83 %
28.10.2017 20:21 9,5 C 10,0 C 70 % 1015,9 hPa 0,0 l/m 22,9 km/h (4 Bft) W-NW 284 0 min 0,000 mm 0,0 UV-I 0 W/m 4,3 C 1,7 C 35,4 km/h (5 Bft) 100,00 %
28.10.2017 20:22 9,5 C 10,0 C 70 % 1016,0 hPa 0,0 l/m 22,0 km/h (4 Bft) W-SW 250 0 min 0,000 mm 0,0 UV-I 0 W/m 4,3 C 2,0 C 27,4 km/h (4 Bft) 100,00 %
28.10.2017 20:23 9,5 C 10,0 C 70 % 1016,0 hPa 0,0 l/m 19,6 km/h (3 Bft) W-SW 251 0 min 0,000 mm 0,0 UV-I 0 W/m 4,3 C 2,8 C 25,7 km/h (4 Bft) 100,00 %
28.10.2017 20:24 9,5 C 10,0 C 70 % 1016,0 hPa 0,0 l/m 20,9 km/h (4 Bft) SW 236 0 min 0,000 mm 0,0 UV-I 0 W/m 4,3 C 2,3 C 35,4 km/h (5 Bft) 100,00 %
28.10.2017 20:25 9,5 C 10,0 C 70 % 1016,1 hPa 0,0 l/m 20,1 km/h (4 Bft) W-SW 252 0 min 0,000 mm 0,0 UV-I 0 W/m 4,3 C 2,6 C 29,0 km/h (5 Bft) 100,00 %
28.10.2017 20:26 9,5 C 10,0 C 70 % 1016,1 hPa 0,0 l/m 16,6 km/h (3 Bft) W 281 0 min 0,000 mm 0,0 UV-I 0 W/m 4,3 C 3,9 C 20,9 km/h (4 Bft) 100,00 %
28.10.2017 20:27 9,5 C 10,0 C 70 % 1016,1 hPa 0,0 l/m 23,5 km/h (4 Bft) W 267 0 min 0,000 mm 0,0 UV-I 0 W/m 4,3 C 1,6 C 29,0 km/h (5 Bft) 100,00 %
28.10.2017 20:28 9,5 C 10,0 C 70 % 1016,1 hPa 0,0 l/m 21,2 km/h (4 Bft) W 261 0 min 0,000 mm 0,0 UV-I 0 W/m 4,3 C 2,3 C 27,4 km/h (4 Bft) 100,00 %
28.10.2017 20:29 9,4 C 10,0 C 70 % 1016,1 hPa 0,0 l/m 19,4 km/h (3 Bft) SW 232 0 min 0,000 mm 0,0 UV-I 0 W/m 4,2 C 2,7 C 27,4 km/h (4 Bft) 100,00 %
28.10.2017 20:30 9,5 C 10,0 C 70 % 1016,1 hPa 0,0 l/m 15,8 km/h (3 Bft) SW 231 0 min 0,000 mm 0,0 UV-I 0 W/m 4,3 C 4,2 C 20,9 km/h (4 Bft) 100,00 %
28.10.2017 20:31 9,5 C 10,0 C 70 % 1016,1 hPa 0,0 l/m 17,5 km/h (3 Bft) W-SW 258 0 min 0,000 mm 0,0 UV-I 0 W/m 4,3 C 3,5 C 24,1 km/h (4 Bft) 92,86 %
28.10.2017 20:32 9,5 C 10,0 C 70 % 1016,1 hPa 0,0 l/m 19,4 km/h (3 Bft) W-SW 254 0 min 0,000 mm 0,0 UV-I 0 W/m 4,3 C 2,8 C 24,1 km/h (4 Bft) 96,30 %
28.10.2017 20:33 9,4 C 10,0 C 70 % 1016,0 hPa 0,0 l/m 18,3 km/h (3 Bft) W-SW 244 0 min 0,000 mm 0,0 UV-I 0 W/m 4,2 C 3,1 C 30,6 km/h (5 Bft) 100,00 %
28.10.2017 20:34 9,4 C 10,0 C 70 % 1016,1 hPa 0,0 l/m 20,4 km/h (4 Bft) W-SW 239 0 min 0,000 mm 0,0 UV-I 0 W/m 4,2 C 2,4 C 27,4 km/h (4 Bft) 100,00 %
28.10.2017 20:35 9,4 C 10,0 C 70 % 1016,0 hPa 0,0 l/m 17,9 km/h (3 Bft) W 265 0 min 0,000 mm 0,0 UV-I 0 W/m 4,2 C 3,2 C 24,1 km/h (4 Bft) 100,00 %
28.10.2017 20:37 9,4 C 10,0 C 70 % 1016,0 hPa 0,0 l/m 22,2 km/h (4 Bft) W-SW 246 0 min 0,000 mm 0,0 UV-I 0 W/m 4,2 C 1,8 C 32,2 km/h (5 Bft) 98,11 %
28.10.2017 20:38 9,4 C 10,0 C 70 % 1016,0 hPa 0,0 l/m 20,4 km/h (4 Bft) W-SW 252 0 min 0,000 mm 0,0 UV-I 0 W/m 4,2 C 2,4 C 25,7 km/h (4 Bft) 100,00 %
28.10.2017 20:39 9,4 C 10,0 C 70 % 1016,0 hPa 0,0 l/m 16,4 km/h (3 Bft) W 280 0 min 0,000 mm 0,0 UV-I 0 W/m 4,2 C 3,8 C 20,9 km/h (4 Bft) 100,00 %
28.10.2017 20:40 9,4 C 10,0 C 70 % 1015,9 hPa 0,0 l/m 24,8 km/h (4 Bft) W 281 0 min 0,000 mm 0,0 UV-I 0 W/m 4,2 C 1,1 C 32,2 km/h (5 Bft) 100,00 %
28.10.2017 20:41 9,4 C 10,0 C 70 % 1015,8 hPa 0,0 l/m 25,4 km/h (4 Bft) W-SW 243 0 min 0,000 mm 0,0 UV-I 0 W/m 4,2 C 0,9 C 35,4 km/h (5 Bft) 100,00 %
28.10.2017 20:42 9,4 C 10,0 C 69 % 1015,8 hPa 0,0 l/m 22,8 km/h (4 Bft) SW 232 0 min 0,000 mm 0,0 UV-I 0 W/m 4,0 C 1,6 C 33,8 km/h (5 Bft) 100,00 %
28.10.2017 20:43 9,5 C 10,0 C 69 % 1015,8 hPa 0,0 l/m 26,1 km/h (4 Bft) W-SW 250 0 min 0,000 mm 0,0 UV-I 0 W/m 4,1 C 0,9 C 32,2 km/h (5 Bft) 100,00 %
28.10.2017 20:44 9,5 C 10,0 C 69 % 1015,9 hPa 0,0 l/m 20,0 km/h (4 Bft) SW 236 0 min 0,000 mm 0,0 UV-I 0 W/m 4,1 C 2,6 C 30,6 km/h (5 Bft) 100,00 %
28.10.2017 20:45 9,5 C 10,0 C 69 % 1015,8 hPa 0,0 l/m 15,0 km/h (3 Bft) W-SW 240 0 min 0,000 mm 0,0 UV-I 0 W/m 4,1 C 4,5 C 17,7 km/h (3 Bft) 100,00 %
28.10.2017 20:46 9,5 C 10,0 C 69 % 1015,9 hPa 0,0 l/m 17,0 km/h (3 Bft) W-SW 247 0 min 0,000 mm 0,0 UV-I 0 W/m 4,1 C 3,7 C 24,1 km/h (4 Bft) 100,00 %
28.10.2017 20:47 9,5 C 10,0 C 69 % 1015,9 hPa 0,0 l/m 21,2 km/h (4 Bft) SW 230 0 min 0,000 mm 0,0 UV-I 0 W/m 4,1 C 2,3 C 30,6 km/h (5 Bft) 100,00 %
28.10.2017 20:48 9,5 C 10,0 C 70 % 1015,9 hPa 0,0 l/m 17,9 km/h (3 Bft) W-SW 252 0 min 0,000 mm 0,0 UV-I 0 W/m 4,3 C 3,4 C 29,0 km/h (5 Bft) 100,00 %
28.10.2017 20:49 9,5 C 10,0 C 69 % 1015,9 hPa 0,0 l/m 14,8 km/h (3 Bft) W-SW 255 0 min 0,000 mm 0,0 UV-I 0 W/m 4,1 C 4,6 C 19,3 km/h (3 Bft) 100,00 %
28.10.2017 20:50 9,5 C 10,0 C 69 % 1015,9 hPa 0,0 l/m 17,4 km/h (3 Bft) W 259 0 min 0,000 mm 0,0 UV-I 0 W/m 4,1 C 3,6 C 24,1 km/h (4 Bft) 100,00 %
28.10.2017 20:51 9,5 C 10,0 C 69 % 1015,9 hPa 0,0 l/m 20,8 km/h (4 Bft) W-SW 244 0 min 0,000 mm 0,0 UV-I 0 W/m 4,1 C 2,4 C 29,0 km/h (5 Bft) 100,00 %
28.10.2017 20:52 9,5 C 10,0 C 69 % 1015,9 hPa 0,0 l/m 22,4 km/h (4 Bft) W-SW 245 0 min 0,000 mm 0,0 UV-I 0 W/m 4,1 C 1,9 C 27,4 km/h (4 Bft) 100,00 %
28.10.2017 20:53 9,5 C 10,0 C 69 % 1015,9 hPa 0,0 l/m 18,0 km/h (3 Bft) W 261 0 min 0,000 mm 0,0 UV-I 0 W/m 4,1 C 3,3 C 24,1 km/h (4 Bft) 100,00 %
28.10.2017 20:54 9,5 C 10,0 C 69 % 1015,8 hPa 0,0 l/m 18,3 km/h (3 Bft) W-SW 254 0 min 0,000 mm 0,0 UV-I 0 W/m 4,1 C 3,2 C 25,7 km/h (4 Bft) 100,00 %
28.10.2017 20:55 9,5 C 10,0 C 69 % 1015,8 hPa 0,0 l/m 19,7 km/h (3 Bft) W-NW 286 0 min 0,000 mm 0,0 UV-I 0 W/m 4,1 C 2,7 C 25,7 km/h (4 Bft) 100,00 %
28.10.2017 20:56 9,5 C 10,0 C 69 % 1015,7 hPa 0,0 l/m 22,1 km/h (4 Bft) W-SW 253 0 min 0,000 mm 0,0 UV-I 0 W/m 4,1 C 2,0 C 32,2 km/h (5 Bft) 100,00 %
28.10.2017 20:57 9,5 C 10,0 C 69 % 1015,7 hPa 0,0 l/m 18,6 km/h (3 Bft) W-SW 252 0 min 0,000 mm 0,0 UV-I 0 W/m 4,1 C 3,1 C 22,5 km/h (4 Bft) 100,00 %
28.10.2017 20:58 9,5 C 10,0 C 69 % 1015,6 hPa 0,0 l/m 19,0 km/h (3 Bft) W 269 0 min 0,000 mm 0,0 UV-I 0 W/m 4,1 C 3,0 C 29,0 km/h (5 Bft) 100,00 %
28.10.2017 20:59 9,5 C 10,0 C 69 % 1015,6 hPa 0,0 l/m 25,6 km/h (4 Bft) W-SW 256 0 min 0,000 mm 0,0 UV-I 0 W/m 4,1 C 1,0 C 38,6 km/h (5 Bft) 100,00 %
28.10.2017 21:00 9,5 C 10,0 C 69 % 1015,6 hPa 0,0 l/m 20,6 km/h (4 Bft) SW 236 0 min 0,000 mm 0,0 UV-I 0 W/m 4,1 C 2,4 C 24,1 km/h (4 Bft) 100,00 %
28.10.2017 21:01 9,5 C 10,0 C 69 % 1015,6 hPa 0,0 l/m 19,2 km/h (3 Bft) S-SW 206 0 min 0,076 mm 0,0 UV-I 0 W/m 4,1 C 2,9 C 27,4 km/h (4 Bft) 100,00 %
28.10.2017 21:02 9,5 C 10,0 C 69 % 1015,6 hPa 0,0 l/m 20,6 km/h (4 Bft) W 279 0 min 0,000 mm 0,0 UV-I 0 W/m 4,1 C 2,4 C 29,0 km/h (5 Bft) 94,44 %
28.10.2017 21:03 9,5 C 10,0 C 69 % 1015,6 hPa 0,0 l/m 18,6 km/h (3 Bft) W-SW 255 0 min 0,000 mm 0,0 UV-I 0 W/m 4,1 C 3,1 C 24,1 km/h (4 Bft) 100,00 %
28.10.2017 21:04 9,5 C 10,0 C 69 % 1015,5 hPa 0,0 l/m 17,2 km/h (3 Bft) SW 235 0 min 0,000 mm 0,0 UV-I 0 W/m 4,1 C 3,6 C 22,5 km/h (4 Bft) 100,00 %
28.10.2017 21:05 9,5 C 10,0 C 69 % 1015,5 hPa 0,0 l/m 13,4 km/h (3 Bft) W-SW 248 0 min 0,000 mm 0,0 UV-I 0 W/m 4,1 C 5,2 C 17,7 km/h (3 Bft) 100,00 %
28.10.2017 21:06 9,5 C 10,0 C 69 % 1015,5 hPa 0,0 l/m 16,4 km/h (3 Bft) W 266 0 min 0,000 mm 0,0 UV-I 0 W/m 4,1 C 3,9 C 22,5 km/h (4 Bft) 100,00 %
28.10.2017 21:07 9,5 C 10,0 C 69 % 1015,5 hPa 0,0 l/m 20,4 km/h (4 Bft) W 259 0 min 0,000 mm 0,0 UV-I 0 W/m 4,1 C 2,5 C 29,0 km/h (5 Bft) 100,00 %
28.10.2017 21:08 9,5 C 10,0 C 69 % 1015,5 hPa 0,0 l/m 16,5 km/h (3 Bft) W 261 0 min 0,000 mm 0,0 UV-I 0 W/m 4,1 C 3,9 C 22,5 km/h (4 Bft) 100,00 %
28.10.2017 21:09 9,5 C 10,0 C 69 % 1015,5 hPa 0,0 l/m 18,7 km/h (3 Bft) SW 222 0 min 0,000 mm 0,0 UV-I 0 W/m 4,1 C 3,1 C 24,1 km/h (4 Bft) 100,00 %
28.10.2017 21:10 9,5 C 10,0 C 69 % 1015,5 hPa 0,0 l/m 20,8 km/h (4 Bft) W 259 0 min 0,000 mm 0,0 UV-I 0 W/m 4,1 C 2,4 C 32,2 km/h (5 Bft) 100,00 %
28.10.2017 21:11 9,5 C 10,0 C 69 % 1015,6 hPa 0,0 l/m 16,9 km/h (3 Bft) W 263 0 min 0,000 mm 0,0 UV-I 0 W/m 4,1 C 3,8 C 20,9 km/h (4 Bft) 100,00 %
28.10.2017 21:12 9,5 C 10,0 C 69 % 1015,5 hPa 0,0 l/m 21,1 km/h (4 Bft) W 260 0 min 0,000 mm 0,0 UV-I 0 W/m 4,1 C 2,3 C 32,2 km/h (5 Bft) 100,00 %
28.10.2017 21:13 9,5 C 10,0 C 69 % 1015,5 hPa 0,0 l/m 17,4 km/h (3 Bft) SW 235 0 min 0,000 mm 0,0 UV-I 0 W/m 4,1 C 3,6 C 20,9 km/h (4 Bft) 100,00 %
28.10.2017 21:14 9,5 C 10,0 C 69 % 1015,5 hPa 0,0 l/m 18,4 km/h (3 Bft) W 263 0 min 0,000 mm 0,0 UV-I 0 W/m 4,1 C 3,2 C 27,4 km/h (4 Bft) 100,00 %
28.10.2017 21:15 9,5 C 10,0 C 68 % 1015,5 hPa 0,0 l/m 23,7 km/h (4 Bft) W-SW 239 0 min 0,000 mm 0,0 UV-I 0 W/m 3,9 C 1,5 C 29,0 km/h (5 Bft) 100,00 %
28.10.2017 21:16 9,5 C 10,0 C 68 % 1015,5 hPa 0,0 l/m 24,5 km/h (4 Bft) W-SW 240 0 min 0,000 mm 0,0 UV-I 0 W/m 3,9 C 1,3 C 32,2 km/h (5 Bft) 100,00 %
28.10.2017 21:17 9,6 C 10,0 C 68 % 1015,4 hPa 0,0 l/m 23,8 km/h (4 Bft) W-SW 250 0 min 0,000 mm 0,0 UV-I 0 W/m 4,0 C 1,6 C 30,6 km/h (5 Bft) 98,15 %
28.10.2017 21:18 9,6 C 10,0 C 68 % 1015,5 hPa 0,0 l/m 19,2 km/h (3 Bft) W 271 0 min 0,000 mm 0,0 UV-I 0 W/m 4,0 C 3,0 C 29,0 km/h (5 Bft) 97,56 %
28.10.2017 21:19 9,6 C 10,0 C 68 % 1015,5 hPa 0,0 l/m 19,3 km/h (3 Bft) W-SW 252 0 min 0,000 mm 0,0 UV-I 0 W/m 4,0 C 3,0 C 27,4 km/h (4 Bft) 100,00 %
28.10.2017 21:20 9,6 C 10,0 C 68 % 1015,5 hPa 0,0 l/m 23,5 km/h (4 Bft) W 259 0 min 0,000 mm 0,0 UV-I 0 W/m 4,0 C 1,7 C 32,2 km/h (5 Bft) 100,00 %
28.10.2017 21:21 9,6 C 10,0 C 68 % 1015,4 hPa 0,0 l/m 18,8 km/h (3 Bft) W 264 0 min 0,000 mm 0,0 UV-I 0 W/m 4,0 C 3,2 C 30,6 km/h (5 Bft) 100,00 %
28.10.2017 21:22 9,6 C 10,0 C 68 % 1015,5 hPa 0,0 l/m 18,8 km/h (3 Bft) W-SW 252 0 min 0,000 mm 0,0 UV-I 0 W/m 4,0 C 3,2 C 25,7 km/h (4 Bft) 100,00 %
28.10.2017 21:23 9,6 C 10,0 C 68 % 1015,5 hPa 0,0 l/m 21,9 km/h (4 Bft) W-SW 249 0 min 0,000 mm 0,0 UV-I 0 W/m 4,0 C 2,2 C 33,8 km/h (5 Bft) 100,00 %
28.10.2017 21:24 9,6 C 10,0 C 68 % 1015,5 hPa 0,0 l/m 23,4 km/h (4 Bft) W 271 0 min 0,000 mm 0,0 UV-I 0 W/m 4,0 C 1,7 C 29,0 km/h (5 Bft) 100,00 %
28.10.2017 21:25 9,6 C 10,0 C 68 % 1015,5 hPa 0,0 l/m 18,5 km/h (3 Bft) W-SW 246 0 min 0,000 mm 0,0 UV-I 0 W/m 4,0 C 3,3 C 25,7 km/h (4 Bft) 100,00 %
28.10.2017 21:26 9,6 C 10,0 C 68 % 1015,5 hPa 0,0 l/m 17,8 km/h (3 Bft) S 180 0 min 0,000 mm 0,0 UV-I 0 W/m 4,0 C 3,5 C 29,0 km/h (5 Bft) 100,00 %
28.10.2017 21:27 9,6 C 10,0 C 67 % 1015,4 hPa 0,0 l/m 19,6 km/h (3 Bft) W 269 0 min 0,000 mm 0,0 UV-I 0 W/m 3,8 C 2,9 C 25,7 km/h (4 Bft) 100,00 %
28.10.2017 21:28 9,6 C 10,0 C 67 % 1015,5 hPa 0,0 l/m 21,2 km/h (4 Bft) W-SW 254 0 min 0,000 mm 0,0 UV-I 0 W/m 3,8 C 2,4 C 32,2 km/h (5 Bft) 94,12 %
28.10.2017 21:29 9,6 C 10,0 C 67 % 1015,5 hPa 0,0 l/m 19,5 km/h (3 Bft) W-SW 254 0 min 0,000 mm 0,0 UV-I 0 W/m 3,8 C 2,9 C 29,0 km/h (5 Bft) 100,00 %
28.10.2017 21:30 9,6 C 10,0 C 67 % 1015,5 hPa 0,0 l/m 17,1 km/h (3 Bft) W 261 0 min 0,000 mm 0,0 UV-I 0 W/m 3,8 C 3,8 C 20,9 km/h (4 Bft) 96,15 %
28.10.2017 21:31 9,6 C 10,0 C 68 % 1015,5 hPa 0,0 l/m 16,3 km/h (3 Bft) W 259 0 min 0,000 mm 0,0 UV-I 0 W/m 4,0 C 4,1 C 22,5 km/h (4 Bft) 95,83 %
28.10.2017 21:32 9,6 C 10,0 C 68 % 1015,5 hPa 0,0 l/m 21,4 km/h (4 Bft) S-SW 212 0 min 0,000 mm 0,0 UV-I 0 W/m 4,0 C 2,3 C 25,7 km/h (4 Bft) 91,30 %
28.10.2017 21:33 9,6 C 10,0 C 68 % 1015,3 hPa 0,0 l/m 23,0 km/h (4 Bft) W-SW 254 0 min 0,000 mm 0,0 UV-I 0 W/m 4,0 C 1,8 C 29,0 km/h (5 Bft) 100,00 %
28.10.2017 21:34 9,6 C 10,0 C 67 % 1015,4 hPa 0,0 l/m 24,9 km/h (4 Bft) W-NW 292 0 min 0,000 mm 0,0 UV-I 0 W/m 3,8 C 1,3 C 30,6 km/h (5 Bft) 96,55 %
28.10.2017 21:35 9,6 C 10,0 C 67 % 1015,4 hPa 0,0 l/m 20,8 km/h (4 Bft) W 273 0 min 0,000 mm 0,0 UV-I 0 W/m 3,8 C 2,5 C 27,4 km/h (4 Bft) 91,67 %
28.10.2017 21:36 9,6 C 10,0 C 67 % 1015,5 hPa 0,0 l/m 15,1 km/h (3 Bft) W-SW 253 0 min 0,000 mm 0,0 UV-I 0 W/m 3,8 C 4,6 C 20,9 km/h (4 Bft) 100,00 %
28.10.2017 21:37 9,6 C 10,0 C 67 % 1015,5 hPa 0,0 l/m 15,4 km/h (3 Bft) W-SW 240 0 min 0,000 mm 0,0 UV-I 0 W/m 3,8 C 4,5 C 19,3 km/h (3 Bft) 100,00 %
28.10.2017 21:38 9,6 C 10,0 C 68 % 1015,4 hPa 0,0 l/m 16,2 km/h (3 Bft) S-SW 205 0 min 0,000 mm 0,0 UV-I 0 W/m 4,0 C 4,2 C 20,9 km/h (4 Bft) 96,30 %
28.10.2017 21:39 9,6 C 10,0 C 67 % 1015,4 hPa 0,0 l/m 14,3 km/h (3 Bft) SW 217 0 min 0,000 mm 0,0 UV-I 0 W/m 3,8 C 5,0 C 20,9 km/h (4 Bft) 92,31 %
28.10.2017 21:40 9,6 C 10,0 C 67 % 1015,3 hPa 0,0 l/m 22,9 km/h (4 Bft) W-SW 245 0 min 0,000 mm 0,0 UV-I 0 W/m 3,8 C 1,9 C 30,6 km/h (5 Bft) 100,00 %
28.10.2017 21:41 9,6 C 10,0 C 67 % 1015,3 hPa 0,0 l/m 18,7 km/h (3 Bft) W-SW 242 0 min 0,000 mm 0,0 UV-I 0 W/m 3,8 C 3,2 C 25,7 km/h (4 Bft) 93,33 %
28.10.2017 21:42 9,6 C 10,0 C 67 % 1015,2 hPa 0,0 l/m 20,6 km/h (4 Bft) W 262 0 min 0,000 mm 0,0 UV-I 0 W/m 3,8 C 2,6 C 41,8 km/h (6 Bft) 96,67 %
28.10.2017 21:43 9,6 C 10,0 C 67 % 1015,2 hPa 0,0 l/m 25,5 km/h (4 Bft) SW 218 0 min 0,000 mm 0,0 UV-I 0 W/m 3,8 C 1,2 C 32,2 km/h (5 Bft) 90,91 %
28.10.2017 21:44 9,7 C 10,0 C 67 % 1015,2 hPa 0,0 l/m 18,4 km/h (3 Bft) W 259 0 min 0,000 mm 0,0 UV-I 0 W/m 3,9 C 3,4 C 22,5 km/h (4 Bft) 96,30 %
28.10.2017 21:45 9,7 C 10,0 C 67 % 1015,2 hPa 0,0 l/m 14,4 km/h (3 Bft) SW 226 0 min 0,000 mm 0,0 UV-I 0 W/m 3,9 C 5,0 C 20,9 km/h (4 Bft) 93,75 %
28.10.2017 21:46 9,7 C 10,0 C 67 % 1015,1 hPa 0,0 l/m 19,4 km/h (3 Bft) W-SW 256 0 min 0,000 mm 0,0 UV-I 0 W/m 3,9 C 3,1 C 27,4 km/h (4 Bft) 95,83 %
28.10.2017 21:47 9,7 C 10,0 C 67 % 1015,2 hPa 0,0 l/m 26,2 km/h (4 Bft) W 273 0 min 0,000 mm 0,0 UV-I 0 W/m 3,9 C 1,1 C 35,4 km/h (5 Bft) 100,00 %
28.10.2017 21:48 9,7 C 10,0 C 67 % 1015,1 hPa 0,0 l/m 24,7 km/h (4 Bft) W-SW 245 0 min 0,000 mm 0,0 UV-I 0 W/m 3,9 C 1,5 C 33,8 km/h (5 Bft) 95,83 %
28.10.2017 21:49 9,7 C 10,0 C 67 % 1015,1 hPa 0,0 l/m 23,5 km/h (4 Bft) W 260 0 min 0,000 mm 0,0 UV-I 0 W/m 3,9 C 1,8 C 30,6 km/h (5 Bft) 91,30 %
28.10.2017 21:50 9,7 C 10,0 C 67 % 1015,1 hPa 0,0 l/m 21,4 km/h (4 Bft) W 281 0 min 0,000 mm 0,0 UV-I 0 W/m 3,9 C 2,5 C 30,6 km/h (5 Bft) 95,83 %
28.10.2017 21:51 9,7 C 10,0 C 67 % 1015,2 hPa 0,0 l/m 22,0 km/h (4 Bft) W-SW 255 0 min 0,000 mm 0,0 UV-I 0 W/m 3,9 C 2,3 C 30,6 km/h (5 Bft) 93,10 %
28.10.2017 21:52 9,7 C 10,0 C 67 % 1015,2 hPa 0,0 l/m 22,7 km/h (4 Bft) W 261 0 min 0,000 mm 0,0 UV-I 0 W/m 3,9 C 2,1 C 29,0 km/h (5 Bft) 96,30 %
28.10.2017 21:53 9,7 C 10,0 C 67 % 1015,3 hPa 0,0 l/m 14,9 km/h (3 Bft) W-SW 246 0 min 0,000 mm 0,0 UV-I 0 W/m 3,9 C 4,8 C 17,7 km/h (3 Bft) 95,65 %
28.10.2017 21:54 9,7 C 10,0 C 67 % 1015,3 hPa 0,0 l/m 22,3 km/h (4 Bft) W 262 0 min 0,000 mm 0,0 UV-I 0 W/m 3,9 C 2,2 C 27,4 km/h (4 Bft) 93,33 %
28.10.2017 21:55 9,7 C 10,0 C 67 % 1015,2 hPa 0,0 l/m 20,1 km/h (4 Bft) SW 220 0 min 0,000 mm 0,0 UV-I 0 W/m 3,9 C 2,9 C 29,0 km/h (5 Bft) 92,59 %
28.10.2017 21:56 9,7 C 10,0 C 67 % 1015,2 hPa 0,0 l/m 24,6 km/h (4 Bft) W-SW 240 0 min 0,000 mm 0,0 UV-I 0 W/m 3,9 C 1,5 C 40,2 km/h (6 Bft) 92,31 %
28.10.2017 21:57 9,7 C 10,0 C 67 % 1015,2 hPa 0,0 l/m 30,2 km/h (5 Bft) W-NW 287 0 min 0,000 mm 0,0 UV-I 0 W/m 3,9 C 0,2 C 38,6 km/h (5 Bft) 95,83 %
28.10.2017 21:58 9,7 C 10,0 C 66 % 1015,2 hPa 0,0 l/m 21,6 km/h (4 Bft) W-SW 253 0 min 0,000 mm 0,0 UV-I 0 W/m 3,7 C 2,4 C 25,7 km/h (4 Bft) 96,15 %
28.10.2017 21:59 9,7 C 10,0 C 66 % 1015,2 hPa 0,0 l/m 18,6 km/h (3 Bft) W 277 0 min 0,000 mm 0,0 UV-I 0 W/m 3,7 C 3,4 C 25,7 km/h (4 Bft) 100,00 %
28.10.2017 22:00 9,7 C 10,0 C 66 % 1015,1 hPa 0,0 l/m 19,5 km/h (3 Bft) W-SW 241 0 min 0,000 mm 0,0 UV-I 0 W/m 3,7 C 3,1 C 30,6 km/h (5 Bft) 92,31 %
28.10.2017 22:01 9,7 C 10,0 C 66 % 1015,2 hPa 0,0 l/m 25,6 km/h (4 Bft) W-SW 254 0 min 0,076 mm 0,0 UV-I 0 W/m 3,7 C 1,3 C 38,6 km/h (5 Bft) 96,30 %
28.10.2017 22:02 9,7 C 10,0 C 66 % 1015,1 hPa 0,0 l/m 19,0 km/h (3 Bft) W-SW 256 0 min 0,000 mm 0,0 UV-I 0 W/m 3,7 C 3,2 C 29,0 km/h (5 Bft) 95,65 %
28.10.2017 22:03 9,7 C 10,0 C 66 % 1015,2 hPa 0,0 l/m 20,0 km/h (4 Bft) W 263 0 min 0,000 mm 0,0 UV-I 0 W/m 3,7 C 2,9 C 27,4 km/h (4 Bft) 92,59 %
28.10.2017 22:04 9,7 C 10,0 C 66 % 1015,2 hPa 0,0 l/m 12,7 km/h (3 Bft) SW 236 0 min 0,000 mm 0,0 UV-I 0 W/m 3,7 C 5,8 C 24,1 km/h (4 Bft) 95,65 %
28.10.2017 22:05 9,7 C 10,0 C 66 % 1015,2 hPa 0,0 l/m 16,5 km/h (3 Bft) W 259 0 min 0,000 mm 0,0 UV-I 0 W/m 3,7 C 4,2 C 30,6 km/h (5 Bft) 98,06 %
28.10.2017 22:06 9,7 C 10,0 C 66 % 1015,2 hPa 0,0 l/m 21,4 km/h (4 Bft) W 261 0 min 0,000 mm 0,0 UV-I 0 W/m 3,7 C 2,5 C 30,6 km/h (5 Bft) 93,02 %
28.10.2017 22:07 9,7 C 10,0 C 67 % 1015,1 hPa 0,0 l/m 18,6 km/h (3 Bft) SW 231 0 min 0,000 mm 0,0 UV-I 0 W/m 3,9 C 3,4 C 25,7 km/h (4 Bft) 93,33 %
28.10.2017 22:08 9,7 C 10,0 C 66 % 1015,2 hPa 0,0 l/m 20,2 km/h (4 Bft) W 280 0 min 0,000 mm 0,0 UV-I 0 W/m 3,7 C 2,8 C 30,6 km/h (5 Bft) 96,55 %
28.10.2017 22:09 9,7 C 10,0 C 66 % 1015,1 hPa 0,0 l/m 19,2 km/h (3 Bft) W-SW 248 0 min 0,000 mm 0,0 UV-I 0 W/m 3,7 C 3,2 C 25,7 km/h (4 Bft) 92,59 %
28.10.2017 22:10 9,7 C 10,0 C 66 % 1015,1 hPa 0,0 l/m 19,1 km/h (3 Bft) W-SW 254 0 min 0,000 mm 0,0 UV-I 0 W/m 3,7 C 3,2 C 27,4 km/h (4 Bft) 100,00 %
28.10.2017 22:11 9,7 C 10,0 C 66 % 1015,1 hPa 0,0 l/m 20,1 km/h (4 Bft) W-SW 246 0 min 0,000 mm 0,0 UV-I 0 W/m 3,7 C 2,9 C 24,1 km/h (4 Bft) 93,75 %
28.10.2017 22:12 9,7 C 10,0 C 66 % 1015,1 hPa 0,0 l/m 22,1 km/h (4 Bft) SW 235 0 min 0,000 mm 0,0 UV-I 0 W/m 3,7 C 2,2 C 30,6 km/h (5 Bft) 100,00 %
28.10.2017 22:13 9,7 C 10,0 C 66 % 1015,1 hPa 0,0 l/m 15,2 km/h (3 Bft) W-SW 252 0 min 0,000 mm 0,0 UV-I 0 W/m 3,7 C 4,7 C 24,1 km/h (4 Bft) 96,43 %
28.10.2017 22:14 9,7 C 10,0 C 66 % 1015,0 hPa 0,0 l/m 17,2 km/h (3 Bft) W-SW 257 0 min 0,000 mm 0,0 UV-I 0 W/m 3,7 C 3,9 C 24,1 km/h (4 Bft) 96,30 %
28.10.2017 22:15 9,7 C 10,0 C 67 % 1015,1 hPa 0,0 l/m 18,6 km/h (3 Bft) W-NW 282 0 min 0,000 mm 0,0 UV-I 0 W/m 3,9 C 3,4 C 27,4 km/h (4 Bft) 100,00 %
28.10.2017 22:16 9,7 C 10,0 C 67 % 1015,1 hPa 0,0 l/m 18,8 km/h (3 Bft) SW 234 0 min 0,000 mm 0,0 UV-I 0 W/m 3,9 C 3,3 C 24,1 km/h (4 Bft) 95,83 %
28.10.2017 22:17 9,7 C 10,0 C 66 % 1015,0 hPa 0,0 l/m 18,2 km/h (3 Bft) W 262 0 min 0,000 mm 0,0 UV-I 0 W/m 3,7 C 3,5 C 25,7 km/h (4 Bft) 100,00 %
28.10.2017 22:18 9,7 C 10,0 C 66 % 1015,0 hPa 0,0 l/m 16,4 km/h (3 Bft) SW 226 0 min 0,000 mm 0,0 UV-I 0 W/m 3,7 C 4,2 C 30,6 km/h (5 Bft) 92,31 %
28.10.2017 22:19 9,7 C 10,0 C 66 % 1015,0 hPa 0,0 l/m 16,7 km/h (3 Bft) W-SW 242 0 min 0,000 mm 0,0 UV-I 0 W/m 3,7 C 4,1 C 24,1 km/h (4 Bft) 98,04 %
28.10.2017 22:20 9,7 C 10,0 C 66 % 1014,9 hPa 0,0 l/m 22,1 km/h (4 Bft) W-SW 257 0 min 0,000 mm 0,0 UV-I 0 W/m 3,7 C 2,2 C 35,4 km/h (5 Bft) 95,56 %
28.10.2017 22:21 9,7 C 10,0 C 66 % 1014,9 hPa 0,0 l/m 21,5 km/h (4 Bft) W-SW 242 0 min 0,000 mm 0,0 UV-I 0 W/m 3,7 C 2,4 C 29,0 km/h (5 Bft) 92,31 %
28.10.2017 22:22 9,7 C 10,0 C 65 % 1014,9 hPa 0,0 l/m 18,7 km/h (3 Bft) W 268 0 min 0,000 mm 0,0 UV-I 0 W/m 3,4 C 3,3 C 29,0 km/h (5 Bft) 100,00 %
28.10.2017 22:23 9,7 C 10,0 C 66 % 1014,9 hPa 0,0 l/m 14,0 km/h (3 Bft) W 266 0 min 0,000 mm 0,0 UV-I 0 W/m 3,7 C 5,2 C 22,5 km/h (4 Bft) 96,15 %
28.10.2017 22:24 9,7 C 10,0 C 65 % 1014,8 hPa 0,0 l/m 21,6 km/h (4 Bft) W 274 0 min 0,000 mm 0,0 UV-I 0 W/m 3,4 C 2,4 C 33,8 km/h (5 Bft) 100,00 %
28.10.2017 22:25 9,7 C 10,0 C 65 % 1014,8 hPa 0,0 l/m 21,6 km/h (4 Bft) S-SW 209 0 min 0,000 mm 0,0 UV-I 0 W/m 3,4 C 2,4 C 30,6 km/h (5 Bft) 91,30 %
28.10.2017 22:26 9,7 C 10,0 C 65 % 1014,8 hPa 0,0 l/m 17,5 km/h (3 Bft) W-SW 237 0 min 0,000 mm 0,0 UV-I 0 W/m 3,4 C 3,8 C 20,9 km/h (4 Bft) 100,00 %
28.10.2017 22:27 9,7 C 10,0 C 65 % 1014,8 hPa 0,0 l/m 22,7 km/h (4 Bft) W-SW 247 0 min 0,000 mm 0,0 UV-I 0 W/m 3,4 C 2,1 C 33,8 km/h (5 Bft) 91,30 %
28.10.2017 22:28 9,7 C 10,0 C 65 % 1014,8 hPa 0,0 l/m 23,3 km/h (4 Bft) W-SW 255 0 min 0,000 mm 0,0 UV-I 0 W/m 3,4 C 1,9 C 32,2 km/h (5 Bft) 100,00 %
28.10.2017 22:29 9,7 C 10,0 C 65 % 1014,8 hPa 0,0 l/m 21,6 km/h (4 Bft) SW 233 0 min 0,000 mm 0,0 UV-I 0 W/m 3,4 C 2,4 C 29,0 km/h (5 Bft) 96,15 %
28.10.2017 22:30 9,8 C 10,0 C 65 % 1014,8 hPa 0,0 l/m 23,0 km/h (4 Bft) W-SW 249 0 min 0,000 mm 0,0 UV-I 0 W/m 3,5 C 2,1 C 32,2 km/h (5 Bft) 100,00 %
28.10.2017 22:31 9,8 C 10,0 C 65 % 1014,7 hPa 0,0 l/m 18,7 km/h (3 Bft) W-NW 286 0 min 0,000 mm 0,0 UV-I 0 W/m 3,5 C 3,5 C 33,8 km/h (5 Bft) 95,83 %
28.10.2017 22:32 9,8 C 10,0 C 65 % 1014,7 hPa 0,0 l/m 22,1 km/h (4 Bft) W-SW 251 0 min 0,000 mm 0,0 UV-I 0 W/m 3,5 C 2,4 C 29,0 km/h (5 Bft) 95,83 %
28.10.2017 22:33 9,8 C 10,0 C 65 % 1014,6 hPa 0,0 l/m 16,3 km/h (3 Bft) SW 227 0 min 0,000 mm 0,0 UV-I 0 W/m 3,5 C 4,4 C 20,9 km/h (4 Bft) 100,00 %
28.10.2017 22:34 9,8 C 10,0 C 64 % 1014,6 hPa 0,0 l/m 16,4 km/h (3 Bft) W 263 0 min 0,000 mm 0,0 UV-I 0 W/m 3,3 C 4,3 C 20,9 km/h (4 Bft) 91,67 %
28.10.2017 22:35 9,8 C 10,0 C 65 % 1014,6 hPa 0,0 l/m 20,1 km/h (4 Bft) W-SW 246 0 min 0,000 mm 0,0 UV-I 0 W/m 3,5 C 3,0 C 32,2 km/h (5 Bft) 100,00 %
28.10.2017 22:36 9,8 C 10,0 C 65 % 1014,6 hPa 0,0 l/m 19,5 km/h (3 Bft) W-SW 245 0 min 0,000 mm 0,0 UV-I 0 W/m 3,5 C 3,2 C 27,4 km/h (4 Bft) 92,31 %
28.10.2017 22:37 9,8 C 10,0 C 65 % 1014,6 hPa 0,0 l/m 21,1 km/h (4 Bft) W-SW 248 0 min 0,000 mm 0,0 UV-I 0 W/m 3,5 C 2,7 C 29,0 km/h (5 Bft) 100,00 %
28.10.2017 22:38 9,8 C 10,0 C 65 % 1014,6 hPa 0,0 l/m 17,7 km/h (3 Bft) W-SW 255 0 min 0,000 mm 0,0 UV-I 0 W/m 3,5 C 3,8 C 24,1 km/h (4 Bft) 100,00 %
28.10.2017 22:39 9,8 C 10,0 C 65 % 1014,6 hPa 0,0 l/m 20,5 km/h (4 Bft) W-NW 293 0 min 0,000 mm 0,0 UV-I 0 W/m 3,5 C 2,9 C 29,0 km/h (5 Bft) 96,30 %
28.10.2017 22:40 9,8 C 10,0 C 65 % 1014,5 hPa 0,0 l/m 23,2 km/h (4 Bft) W 265 0 min 0,000 mm 0,0 UV-I 0 W/m 3,5 C 2,1 C 29,0 km/h (5 Bft) 96,15 %
28.10.2017 22:41 9,8 C 10,0 C 64 % 1014,5 hPa 0,0 l/m 22,6 km/h (4 Bft) W 262 0 min 0,000 mm 0,0 UV-I 0 W/m 3,3 C 2,2 C 32,2 km/h (5 Bft) 100,00 %
28.10.2017 22:42 9,8 C 10,0 C 64 % 1014,5 hPa 0,0 l/m 18,5 km/h (3 Bft) W 262 0 min 0,000 mm 0,0 UV-I 0 W/m 3,3 C 3,5 C 25,7 km/h (4 Bft) 100,00 %
28.10.2017 22:43 9,8 C 10,0 C 64 % 1014,6 hPa 0,0 l/m 17,1 km/h (3 Bft) W-SW 258 0 min 0,000 mm 0,0 UV-I 0 W/m 3,3 C 4,1 C 27,4 km/h (4 Bft) 100,00 %
28.10.2017 22:44 9,8 C 10,0 C 64 % 1014,4 hPa 0,0 l/m 21,9 km/h (4 Bft) SW 227 0 min 0,000 mm 0,0 UV-I 0 W/m 3,3 C 2,4 C 27,4 km/h (4 Bft) 96,55 %
28.10.2017 22:45 9,8 C 10,0 C 64 % 1014,4 hPa 0,0 l/m 19,5 km/h (3 Bft) W-SW 242 0 min 0,000 mm 0,0 UV-I 0 W/m 3,3 C 3,2 C 29,0 km/h (5 Bft) 100,00 %
28.10.2017 22:46 9,8 C 10,0 C 64 % 1014,4 hPa 0,0 l/m 23,5 km/h (4 Bft) W 259 0 min 0,000 mm 0,0 UV-I 0 W/m 3,3 C 2,0 C 30,6 km/h (5 Bft) 100,00 %
28.10.2017 22:47 9,8 C 10,0 C 64 % 1014,4 hPa 0,0 l/m 24,7 km/h (4 Bft) W 261 0 min 0,000 mm 0,0 UV-I 0 W/m 3,3 C 1,6 C 32,2 km/h (5 Bft) 100,00 %
28.10.2017 22:48 9,8 C 10,0 C 64 % 1014,4 hPa 0,0 l/m 22,9 km/h (4 Bft) W-SW 256 0 min 0,000 mm 0,0 UV-I 0 W/m 3,3 C 2,1 C 30,6 km/h (5 Bft) 100,00 %
28.10.2017 22:49 9,8 C 10,0 C 64 % 1014,4 hPa 0,0 l/m 18,5 km/h (3 Bft) S-SW 204 0 min 0,000 mm 0,0 UV-I 0 W/m 3,3 C 3,5 C 25,7 km/h (4 Bft) 98,02 %
28.10.2017 22:50 9,8 C 10,0 C 64 % 1014,3 hPa 0,0 l/m 19,7 km/h (3 Bft) W 263 0 min 0,000 mm 0,0 UV-I 0 W/m 3,3 C 3,1 C 27,4 km/h (4 Bft) 100,00 %
28.10.2017 22:51 9,8 C 10,0 C 64 % 1014,4 hPa 0,0 l/m 16,7 km/h (3 Bft) SW 234 0 min 0,000 mm 0,0 UV-I 0 W/m 3,3 C 4,2 C 25,7 km/h (4 Bft) 100,00 %
28.10.2017 22:52 9,8 C 10,0 C 64 % 1014,4 hPa 0,0 l/m 19,1 km/h (3 Bft) W-SW 254 0 min 0,000 mm 0,0 UV-I 0 W/m 3,3 C 3,3 C 22,5 km/h (4 Bft) 98,02 %
28.10.2017 22:53 9,8 C 10,0 C 64 % 1014,5 hPa 0,0 l/m 18,5 km/h (3 Bft) W-SW 257 0 min 0,000 mm 0,0 UV-I 0 W/m 3,3 C 3,5 C 22,5 km/h (4 Bft) 100,00 %
28.10.2017 22:54 9,8 C 10,0 C 63 % 1014,4 hPa 0,0 l/m 20,2 km/h (4 Bft) W-SW 253 0 min 0,000 mm 0,0 UV-I 0 W/m 3,1 C 3,0 C 29,0 km/h (5 Bft) 100,00 %
28.10.2017 22:55 9,8 C 10,0 C 63 % 1014,5 hPa 0,0 l/m 22,0 km/h (4 Bft) W-SW 247 0 min 0,000 mm 0,0 UV-I 0 W/m 3,1 C 2,4 C 30,6 km/h (5 Bft) 100,00 %
28.10.2017 22:56 9,8 C 10,0 C 63 % 1014,4 hPa 0,0 l/m 18,0 km/h (3 Bft) W 279 0 min 0,000 mm 0,0 UV-I 0 W/m 3,1 C 3,7 C 29,0 km/h (5 Bft) 100,00 %
28.10.2017 22:57 9,8 C 10,0 C 63 % 1014,4 hPa 0,0 l/m 17,6 km/h (3 Bft) W-SW 247 0 min 0,000 mm 0,0 UV-I 0 W/m 3,1 C 3,9 C 25,7 km/h (4 Bft) 100,00 %
28.10.2017 22:58 9,8 C 10,0 C 64 % 1014,4 hPa 0,0 l/m 14,8 km/h (3 Bft) W-SW 246 0 min 0,000 mm 0,0 UV-I 0 W/m 3,3 C 5,0 C 19,3 km/h (3 Bft) 100,00 %
28.10.2017 22:59 9,8 C 10,0 C 64 % 1014,4 hPa 0,0 l/m 14,6 km/h (3 Bft) W 259 0 min 0,000 mm 0,0 UV-I 0 W/m 3,3 C 5,1 C 17,7 km/h (3 Bft) 98,03 %
28.10.2017 23:00 9,8 C 10,0 C 64 % 1014,5 hPa 0,0 l/m 21,7 km/h (4 Bft) W-SW 248 0 min 0,000 mm 0,0 UV-I 0 W/m 3,3 C 2,5 C 29,0 km/h (5 Bft) 97,30 %
28.10.2017 23:01 9,8 C 10,0 C 64 % 1014,4 hPa 0,0 l/m 18,6 km/h (3 Bft) SW 223 0 min 0,076 mm 0,0 UV-I 0 W/m 3,3 C 3,5 C 25,7 km/h (4 Bft) 100,00 %
28.10.2017 23:02 9,8 C 10,0 C 63 % 1014,3 hPa 0,0 l/m 20,4 km/h (4 Bft) W 259 0 min 0,000 mm 0,0 UV-I 0 W/m 3,1 C 2,9 C 25,7 km/h (4 Bft) 100,00 %
28.10.2017 23:03 9,8 C 10,0 C 63 % 1014,3 hPa 0,0 l/m 15,0 km/h (3 Bft) SW 236 0 min 0,000 mm 0,0 UV-I 0 W/m 3,1 C 4,9 C 20,9 km/h (4 Bft) 100,00 %
28.10.2017 23:04 9,8 C 10,0 C 64 % 1014,3 hPa 0,0 l/m 19,3 km/h (3 Bft) W-SW 249 0 min 0,000 mm 0,0 UV-I 0 W/m 3,3 C 3,3 C 30,6 km/h (5 Bft) 100,00 %
28.10.2017 23:05 9,8 C 10,0 C 64 % 1014,3 hPa 0,0 l/m 19,4 km/h (3 Bft) W-SW 256 0 min 0,000 mm 0,0 UV-I 0 W/m 3,3 C 3,2 C 30,6 km/h (5 Bft) 96,15 %
28.10.2017 23:06 9,8 C 10,0 C 63 % 1014,2 hPa 0,0 l/m 22,3 km/h (4 Bft) W-SW 239 0 min 0,000 mm 0,0 UV-I 0 W/m 3,1 C 2,3 C 35,4 km/h (5 Bft) 100,00 %
28.10.2017 23:07 9,8 C 10,0 C 63 % 1014,2 hPa 0,0 l/m 16,8 km/h (3 Bft) W-SW 253 0 min 0,000 mm 0,0 UV-I 0 W/m 3,1 C 4,2 C 20,9 km/h (4 Bft) 100,00 %
28.10.2017 23:08 9,8 C 10,0 C 63 % 1014,1 hPa 0,0 l/m 25,0 km/h (4 Bft) W-NW 285 0 min 0,000 mm 0,0 UV-I 0 W/m 3,1 C 1,6 C 37,0 km/h (5 Bft) 100,00 %
28.10.2017 23:09 9,8 C 10,0 C 63 % 1014,1 hPa 0,0 l/m 18,9 km/h (3 Bft) W-SW 256 0 min 0,000 mm 0,0 UV-I 0 W/m 3,1 C 3,4 C 24,1 km/h (4 Bft) 100,00 %
28.10.2017 23:10 9,8 C 10,0 C 63 % 1014,0 hPa 0,0 l/m 19,5 km/h (3 Bft) W 263 0 min 0,000 mm 0,0 UV-I 0 W/m 3,1 C 3,2 C 27,4 km/h (4 Bft) 100,00 %
28.10.2017 23:11 9,8 C 10,0 C 63 % 1014,1 hPa 0,0 l/m 21,4 km/h (4 Bft) W 272 0 min 0,000 mm 0,0 UV-I 0 W/m 3,1 C 2,6 C 25,7 km/h (4 Bft) 100,00 %
28.10.2017 23:12 9,8 C 10,0 C 63 % 1014,1 hPa 0,0 l/m 21,9 km/h (4 Bft) SW 236 0 min 0,000 mm 0,0 UV-I 0 W/m 3,1 C 2,4 C 30,6 km/h (5 Bft) 100,00 %
28.10.2017 23:13 9,8 C 10,0 C 63 % 1014,0 hPa 0,0 l/m 19,8 km/h (3 Bft) W-SW 248 0 min 0,000 mm 0,0 UV-I 0 W/m 3,1 C 3,1 C 25,7 km/h (4 Bft) 95,65 %
28.10.2017 23:14 9,8 C 10,0 C 63 % 1014,0 hPa 0,0 l/m 21,5 km/h (4 Bft) SW 231 0 min 0,000 mm 0,0 UV-I 0 W/m 3,1 C 2,6 C 27,4 km/h (4 Bft) 100,00 %
28.10.2017 23:15 9,8 C 10,0 C 63 % 1014,0 hPa 0,0 l/m 20,0 km/h (4 Bft) W-SW 239 0 min 0,000 mm 0,0 UV-I 0 W/m 3,1 C 3,0 C 29,0 km/h (5 Bft) 100,00 %
28.10.2017 23:16 9,8 C 10,0 C 63 % 1014,0 hPa 0,0 l/m 22,0 km/h (4 Bft) W-SW 252 0 min 0,000 mm 0,0 UV-I 0 W/m 3,1 C 2,4 C 32,2 km/h (5 Bft) 100,00 %
28.10.2017 23:17 9,8 C 10,0 C 63 % 1014,0 hPa 0,0 l/m 17,5 km/h (3 Bft) W-SW 251 0 min 0,000 mm 0,0 UV-I 0 W/m 3,1 C 3,9 C 27,4 km/h (4 Bft) 100,00 %
28.10.2017 23:18 9,8 C 10,0 C 63 % 1014,1 hPa 0,0 l/m 22,1 km/h (4 Bft) W 261 0 min 0,000 mm 0,0 UV-I 0 W/m 3,1 C 2,4 C 27,4 km/h (4 Bft) 100,00 %
28.10.2017 23:19 9,8 C 10,0 C 63 % 1014,0 hPa 0,0 l/m 16,2 km/h (3 Bft) W 267 0 min 0,000 mm 0,0 UV-I 0 W/m 3,1 C 4,4 C 20,9 km/h (4 Bft) 100,00 %
28.10.2017 23:20 9,8 C 10,0 C 63 % 1014,0 hPa 0,0 l/m 22,2 km/h (4 Bft) SW 232 0 min 0,000 mm 0,0 UV-I 0 W/m 3,1 C 2,3 C 32,2 km/h (5 Bft) 100,00 %
28.10.2017 23:21 9,8 C 10,0 C 63 % 1014,0 hPa 0,0 l/m 19,2 km/h (3 Bft) W 259 0 min 0,000 mm 0,0 UV-I 0 W/m 3,1 C 3,3 C 24,1 km/h (4 Bft) 100,00 %
28.10.2017 23:22 9,8 C 10,0 C 63 % 1014,0 hPa 0,0 l/m 14,6 km/h (3 Bft) W 260 0 min 0,000 mm 0,0 UV-I 0 W/m 3,1 C 5,1 C 19,3 km/h (3 Bft) 100,00 %
28.10.2017 23:23 9,8 C 10,0 C 63 % 1014,0 hPa 0,0 l/m 21,5 km/h (4 Bft) W-SW 251 0 min 0,000 mm 0,0 UV-I 0 W/m 3,1 C 2,6 C 29,0 km/h (5 Bft) 100,00 %
28.10.2017 23:24 9,8 C 10,0 C 63 % 1013,9 hPa 0,0 l/m 20,8 km/h (4 Bft) W 273 0 min 0,000 mm 0,0 UV-I 0 W/m 3,1 C 2,8 C 25,7 km/h (4 Bft) 100,00 %
28.10.2017 23:25 9,8 C 10,0 C 63 % 1013,9 hPa 0,0 l/m 17,6 km/h (3 Bft) W-SW 247 0 min 0,000 mm 0,0 UV-I 0 W/m 3,1 C 3,9 C 22,5 km/h (4 Bft) 100,00 %
28.10.2017 23:26 9,8 C 10,0 C 63 % 1013,9 hPa 0,0 l/m 26,0 km/h (4 Bft) W-SW 249 0 min 0,000 mm 0,0 UV-I 0 W/m 3,1 C 1,3 C 38,6 km/h (5 Bft) 100,00 %
28.10.2017 23:27 9,8 C 10,0 C 62 % 1013,7 hPa 0,0 l/m 28,4 km/h (4 Bft) SW 221 0 min 0,000 mm 0,0 UV-I 0 W/m 2,9 C 0,7 C 43,5 km/h (6 Bft) 100,00 %
28.10.2017 23:28 9,8 C 10,0 C 62 % 1013,7 hPa 0,0 l/m 22,1 km/h (4 Bft) W-SW 241 0 min 0,000 mm 0,0 UV-I 0 W/m 2,9 C 2,4 C 30,6 km/h (5 Bft) 100,00 %
28.10.2017 23:29 9,8 C 10,0 C 62 % 1013,6 hPa 0,0 l/m 27,7 km/h (4 Bft) W 265 0 min 0,000 mm 0,0 UV-I 0 W/m 2,9 C 0,9 C 37,0 km/h (5 Bft) 100,00 %
28.10.2017 23:30 9,8 C 10,0 C 61 % 1013,6 hPa 0,0 l/m 23,3 km/h (4 Bft) W-SW 252 0 min 0,000 mm 0,0 UV-I 0 W/m 2,6 C 2,0 C 30,6 km/h (5 Bft) 100,00 %
28.10.2017 23:32 9,9 C 9,4 C 62 % 1013,5 hPa 0,0 l/m 20,2 km/h (4 Bft) SW 223 0 min 0,000 mm 0,0 UV-I 0 W/m 3,0 C 3,1 C 37,0 km/h (5 Bft) 98,11 %
28.10.2017 23:33 9,9 C 10,0 C 61 % 1013,5 hPa 0,0 l/m 23,4 km/h (4 Bft) SW 222 0 min 0,000 mm 0,0 UV-I 0 W/m 2,7 C 2,1 C 40,2 km/h (6 Bft) 100,00 %
28.10.2017 23:34 9,9 C 9,4 C 61 % 1013,6 hPa 0,0 l/m 24,0 km/h (4 Bft) SW 230 0 min 0,000 mm 0,0 UV-I 0 W/m 2,7 C 2,0 C 35,4 km/h (5 Bft) 100,00 %
28.10.2017 23:35 9,9 C 9,4 C 61 % 1013,5 hPa 0,0 l/m 20,5 km/h (4 Bft) W-SW 242 0 min 0,000 mm 0,0 UV-I 0 W/m 2,7 C 3,0 C 38,6 km/h (5 Bft) 100,00 %
28.10.2017 23:36 9,9 C 10,0 C 62 % 1013,6 hPa 0,0 l/m 26,0 km/h (4 Bft) W-SW 248 0 min 0,000 mm 0,0 UV-I 0 W/m 3,0 C 1,4 C 33,8 km/h (5 Bft) 100,00 %
28.10.2017 23:37 9,9 C 9,4 C 62 % 1013,5 hPa 0,0 l/m 23,3 km/h (4 Bft) W-SW 257 0 min 0,000 mm 0,0 UV-I 0 W/m 3,0 C 2,2 C 38,6 km/h (5 Bft) 100,00 %
28.10.2017 23:38 9,9 C 9,4 C 61 % 1013,5 hPa 0,0 l/m 26,0 km/h (4 Bft) SW 227 0 min 0,000 mm 0,0 UV-I 0 W/m 2,7 C 1,4 C 37,0 km/h (5 Bft) 100,00 %
28.10.2017 23:39 9,9 C 9,4 C 61 % 1013,6 hPa 0,0 l/m 21,4 km/h (4 Bft) W 281 0 min 0,000 mm 0,0 UV-I 0 W/m 2,7 C 2,7 C 33,8 km/h (5 Bft) 90,91 %
28.10.2017 23:40 9,9 C 9,4 C 62 % 1013,3 hPa 0,0 l/m 13,0 km/h (3 Bft) W-SW 248 0 min 0,000 mm 0,0 UV-I 0 W/m 3,0 C 5,9 C 19,3 km/h (3 Bft) 100,00 %
28.10.2017 23:42 9,9 C 9,4 C 62 % 1013,3 hPa 0,0 l/m 22,2 km/h (4 Bft) W-NW 285 0 min 0,000 mm 0,0 UV-I 0 W/m 3,0 C 2,5 C 38,6 km/h (5 Bft) 100,00 %
28.10.2017 23:43 9,9 C 9,4 C 62 % 1013,3 hPa 0,0 l/m 18,7 km/h (3 Bft) W-NW 292 0 min 0,000 mm 0,0 UV-I 0 W/m 3,0 C 3,6 C 27,4 km/h (4 Bft) 95,65 %
28.10.2017 23:44 9,9 C 9,4 C 62 % 1013,4 hPa 0,0 l/m 14,9 km/h (3 Bft) W-SW 250 0 min 0,000 mm 0,0 UV-I 0 W/m 3,0 C 5,1 C 24,1 km/h (4 Bft) 95,83 %
28.10.2017 23:45 9,9 C 9,4 C 62 % 1013,3 hPa 0,0 l/m 25,5 km/h (4 Bft) W-SW 244 0 min 0,000 mm 0,0 UV-I 0 W/m 3,0 C 1,6 C 32,2 km/h (5 Bft) 95,65 %
28.10.2017 23:46 9,9 C 9,4 C 61 % 1013,3 hPa 0,0 l/m 31,9 km/h (5 Bft) W-SW 247 0 min 0,000 mm 0,0 UV-I 0 W/m 2,7 C 0,1 C 45,1 km/h (6 Bft) 91,67 %
28.10.2017 23:47 9,9 C 9,4 C 61 % 1013,3 hPa 0,0 l/m 27,8 km/h (4 Bft) W-SW 257 0 min 0,000 mm 0,0 UV-I 0 W/m 2,7 C 1,0 C 40,2 km/h (6 Bft) 100,00 %
28.10.2017 23:48 9,9 C 9,4 C 61 % 1013,3 hPa 0,0 l/m 28,9 km/h (5 Bft) SW 230 0 min 0,000 mm 0,0 UV-I 0 W/m 2,7 C 0,8 C 40,2 km/h (6 Bft) 96,67 %
28.10.2017 23:49 9,9 C 9,4 C 61 % 1013,4 hPa 0,0 l/m 19,9 km/h (4 Bft) W-SW 250 0 min 0,000 mm 0,0 UV-I 0 W/m 2,7 C 3,2 C 25,7 km/h (4 Bft) 96,15 %
28.10.2017 23:50 9,9 C 9,4 C 61 % 1013,4 hPa 0,0 l/m 24,9 km/h (4 Bft) W-SW 241 0 min 0,000 mm 0,0 UV-I 0 W/m 2,7 C 1,7 C 37,0 km/h (5 Bft) 100,00 %
28.10.2017 23:51 9,9 C 9,4 C 60 % 1013,4 hPa 0,0 l/m 45,0 km/h (6 Bft) W 265 0 min 0,000 mm 0,0 UV-I 0 W/m 2,5 C -1,9 C 67,6 km/h (8 Bft) 96,55 %
28.10.2017 23:52 9,9 C 9,4 C 61 % 1013,4 hPa 0,0 l/m 28,4 km/h (4 Bft) W 266 0 min 0,000 mm 0,0 UV-I 0 W/m 2,7 C 0,9 C 40,2 km/h (6 Bft) 100,00 %
28.10.2017 23:53 9,9 C 9,4 C 61 % 1013,4 hPa 0,0 l/m 22,7 km/h (4 Bft) W-SW 248 0 min 0,000 mm 0,0 UV-I 0 W/m 2,7 C 2,3 C 32,2 km/h (5 Bft) 91,67 %
28.10.2017 23:54 9,9 C 9,4 C 62 % 1013,5 hPa 0,0 l/m 18,4 km/h (3 Bft) W 263 0 min 0,000 mm 0,0 UV-I 0 W/m 3,0 C 3,7 C 25,7 km/h (4 Bft) 100,00 %
28.10.2017 23:55 9,9 C 9,4 C 62 % 1013,5 hPa 0,0 l/m 19,9 km/h (4 Bft) SW 235 0 min 0,000 mm 0,0 UV-I 0 W/m 3,0 C 3,2 C 32,2 km/h (5 Bft) 96,30 %
28.10.2017 23:56 9,8 C 9,4 C 63 % 1013,6 hPa 0,0 l/m 18,1 km/h (3 Bft) W 267 0 min 0,000 mm 0,0 UV-I 0 W/m 3,1 C 3,7 C 30,6 km/h (5 Bft) 95,65 %
28.10.2017 23:57 9,8 C 9,4 C 64 % 1013,6 hPa 0,0 l/m 16,7 km/h (3 Bft) W-SW 255 0 min 0,000 mm 0,0 UV-I 0 W/m 3,3 C 4,2 C 19,3 km/h (3 Bft) 100,00 %
28.10.2017 23:58 9,8 C 9,4 C 65 % 1013,6 hPa 0,0 l/m 22,4 km/h (4 Bft) W 263 0 min 0,000 mm 0,0 UV-I 0 W/m 3,5 C 2,3 C 32,2 km/h (5 Bft) 96,55 %
28.10.2017 23:59 9,7 C 9,4 C 65 % 1013,6 hPa 0,0 l/m 28,2 km/h (4 Bft) S-SW 202 0 min 0,000 mm 0,0 UV-I 0 W/m 3,4 C 0,6 C 45,1 km/h (6 Bft) 100,00 %
_ Min-Zeit 07:50 23:32 23:51 23:40 - 04:18 - - - - - - 23:51 23:51 19:24 00:02
Minimum _ 7,6 C 9,4 C 60 % 1013,3 hPa - 11,1 km/h (2 Bft) - - - - - - 2,5 C -1,9 C 14,5 km/h (3 Bft) 9,52 %
_ Max-Zeit 15:04 00:00 00:00 00:56 09:52 23:51 - - 07:54 12:00 11:56 11:56 00:00 23:40 23:51 00:00
Maximum _ 10,1 C 10,0 C 89 % 1025,2 hPa 0,2 l/m 45,0 km/h
W (6 Bft)
- - 2 min 0,127 mm 1,2 UV-I 271 W/m 6,6 C 5,9 C 67,6 km/h
SW (8 Bft)
100,00 %
Durchschnitt _ 8,9 C 10,0 C 78 % 1019,8 hPa #0,2 l/m 19,4 km/h (3 Bft) W-SW - #14 min. #1,422 mm 0,6 UV-I 87 W/m 5,2 C 2,2 C 29,0 km/h (5 Bft) 97,94 %